[[{"header":{"parameterUnit":"m.s-1","parameterCategory":1,"la1":30.6,"la2":28.766,"lo1":-90.7593,"lo2":-88.6598,"dy":0.0162,"dx":0.0183,"nx":116,"ny":114,"refTime":"2024-02-26T18:00:00:Z","depth":0,"parameterNumber":2,"parameterNumberName":"U-component_of_WINDS"},"data":[0.0,0.0,0.0,0.0,0.0,0.0,0.0,0.0,0.0,0.0,0.0,0.0,0.0,0.0,0.0,0.0,0.0,0.0,0.0,0.0,0.0,0.0,0.0,0.0,0.0,0.0,0.0,0.0,0.0,0.0,0.0,0.0,0.0,0.0,0.0,0.0,0.0,0.0,0.0,0.0,0.0,0.0,0.0,0.0,0.0,0.0,0.0,0.0,0.0,0.0,0.0,0.0,0.0,0.0,0.0,0.0,0.0,0.0,0.0,0.0,0.0,0.0,0.0,0.0,0.0,0.0,0.0,0.0,0.0,0.0,0.0,0.0,0.0,0.0,0.0,0.0,0.0,0.0,0.0,0.0,0.0,0.0,0.0,0.0,0.0,0.0,0.0,0.0,0.0,0.0,0.0,0.0,0.0,0.0,0.0,0.0,0.0,0.0,0.0,0.0,0.0,0.0,0.0,0.0,0.0,0.0,0.0,0.0,0.0,0.0,0.0,0.0,0.0,0.0,0.0,0.0,0.0,0.0,0.0,0.0,0.0,0.0,0.0,0.0,0.0,0.0,0.0,0.0,0.0,0.0,0.0,0.0,0.0,0.0,0.0,0.0,0.0,0.0,0.0,0.0,0.0,0.0,0.0,0.0,0.0,0.0,0.0,0.0,0.0,0.0,0.0,0.0,0.0,0.0,0.0,0.0,0.0,0.0,0.0,0.0,0.0,0.0,0.0,0.0,0.0,0.0,0.0,0.0,0.0,0.0,0.0,0.0,0.0,0.0,0.0,0.0,0.0,0.0,0.0,0.0,0.0,0.0,0.0,0.0,0.0,0.0,0.0,0.0,0.0,0.0,0.0,0.0,0.0,0.0,0.0,0.0,0.0,0.0,0.0,0.0,0.0,0.0,0.0,0.0,0.0,0.0,0.0,0.0,0.0,0.0,0.0,0.0,0.0,0.0,0.0,0.0,0.0,0.0,0.0,0.0,0.0,0.0,0.0,0.0,0.0,0.0,0.0,0.0,0.0,0.0,0.0,0.0,0.0,0.0,0.0,0.0,0.0,0.0,0.0,0.0,0.0,0.0,0.0,0.0,0.0,0.0,0.0,0.0,0.0,0.0,0.0,0.0,0.0,0.0,0.0,0.0,0.0,0.0,0.0,0.0,0.0,0.0,0.0,0.0,0.0,0.0,0.0,0.0,0.0,0.0,0.0,0.0,0.0,0.0,0.0,0.0,0.0,0.0,0.0,0.0,0.0,0.0,0.0,0.0,0.0,0.0,0.0,0.0,0.0,0.0,0.0,0.0,0.0,0.0,0.0,0.0,0.0,0.0,0.0,0.0,0.0,0.0,0.0,0.0,0.0,0.0,0.0,0.0,0.0,0.0,0.0,0.0,0.0,0.0,0.0,0.0,0.0,0.0,0.0,0.0,0.0,0.0,0.0,0.0,0.0,0.0,0.0,0.0,0.0,0.0,0.0,0.0,0.0,0.0,0.0,0.0,0.0,0.0,0.0,0.0,0.0,0.0,0.0,0.0,0.0,0.0,0.0,0.0,0.0,0.0,0.0,0.0,0.0,0.0,0.0,0.0,0.0,0.0,0.0,0.0,0.0,0.0,0.0,0.0,0.0,0.0,0.0,0.0,0.0,0.0,0.0,0.0,0.0,0.0,0.0,0.0,0.0,0.0,0.0,0.0,0.0,0.0,0.0,0.0,0.0,0.0,0.0,0.0,0.0,0.0,0.0,0.0,0.0,0.0,0.0,0.0,0.0,0.0,0.0,0.0,0.0,0.0,0.0,0.0,0.0,0.0,0.0,0.0,0.0,0.0,0.0,0.0,0.0,0.0,0.0,0.0,0.0,0.0,0.0,0.0,0.0,0.0,0.0,0.0,0.0,0.0,0.0,0.0,0.0,0.0,0.0,0.0,0.0,0.0,0.0,0.0,0.0,0.0,0.0,0.0,0.0,0.0,0.0,0.0,0.0,0.0,0.0,0.0,0.0,0.0,0.0,0.0,0.0,0.0,0.0,0.0,0.0,0.0,0.0,0.0,0.0,0.0,0.0,0.0,0.0,0.0,0.0,0.0,0.0,0.0,0.0,0.0,0.0,0.0,0.0,0.0,0.0,0.0,0.0,0.0,0.0,0.0,0.0,0.0,0.0,0.0,0.0,0.0,0.0,0.0,0.0,0.0,0.0,0.0,0.0,0.0,0.0,0.0,0.0,0.0,0.0,0.0,0.0,0.0,0.0,0.0,0.0,0.0,0.0,0.0,0.0,0.0,0.0,0.0,0.0,0.0,0.0,0.0,0.0,0.0,0.0,0.0,0.0,0.0,0.0,0.0,0.0,0.0,0.0,0.0,0.0,0.0,0.0,0.0,0.0,0.0,0.0,0.0,0.0,0.0,0.0,0.0,0.0,0.0,0.0,0.0,0.0,0.0,0.0,0.0,0.0,0.0,0.0,0.0,0.0,0.0,0.0,0.0,0.0,0.0,0.0,0.0,0.0,0.0,0.0,0.0,0.0,0.0,0.0,0.0,0.0,0.0,0.0,0.0,0.0,0.0,0.0,0.0,0.0,0.0,0.0,0.0,0.0,0.0,0.0,0.0,0.0,0.0,0.0,0.0,0.0,0.0,0.0,0.0,0.0,0.0,0.0,0.0,0.0,0.0,0.0,0.0,0.0,0.0,0.0,0.0,0.0,0.0,0.0,0.0,0.0,0.0,0.0,0.0,0.0,0.0,0.0,0.0,0.0,0.0,0.0,0.0,0.0,0.0,0.0,0.0,0.0,0.0,0.0,0.0,0.0,0.0,0.0,0.0,0.0,0.0,0.0,0.0,0.0,0.0,0.0,0.0,0.0,0.0,0.0,0.0,0.0,0.0,0.0,0.0,0.0,0.0,0.0,0.0,0.0,0.0,0.0,0.0,0.0,0.0,0.0,0.0,0.0,0.0,0.0,0.0,0.0,0.0,0.0,0.0,0.0,0.0,0.0,0.0,0.0,0.0,0.0,0.0,0.0,0.0,0.0,0.0,0.0,0.0,0.0,0.0,0.0,0.0,0.0,0.0,0.0,0.0,0.0,0.0,0.0,0.0,0.0,0.0,0.0,0.0,0.0,0.0,0.0,0.0,0.0,0.0,0.0,0.0,0.0,0.0,0.0,0.0,0.0,0.0,0.0,0.0,0.0,0.0,0.0,0.0,0.0,0.0,0.0,0.0,0.0,0.0,0.0,0.0,0.0,0.0,0.0,0.0,0.0,0.0,0.0,0.0,0.0,0.0,0.0,0.0,0.0,0.0,0.0,0.0,0.0,0.0,0.0,0.0,0.0,0.0,0.0,0.0,0.0,0.0,0.0,0.0,0.0,0.0,0.0,0.0,0.0,0.0,0.0,0.0,0.0,0.0,0.0,0.0,0.0,0.0,0.0,0.0,0.0,0.0,0.0,0.0,0.0,0.0,0.0,0.0,0.0,0.0,0.0,0.0,0.0,0.0,0.0,0.0,0.0,0.0,0.0,0.0,0.0,0.0,0.0,0.0,0.0,0.0,0.0,0.0,0.0,0.0,0.0,0.0,0.0,0.0,0.0,0.0,0.0,0.0,0.0,0.0,0.0,0.0,0.0,0.0,0.0,0.0,0.0,0.0,0.0,0.0,0.0,0.0,0.0,0.0,0.0,0.0,0.0,0.0,0.0,0.0,0.0,0.0,0.0,0.0,0.0,0.0,0.0,0.0,0.0,0.0,0.0,0.0,0.0,0.0,0.0,0.0,0.0,0.0,0.0,0.0,0.0,0.0,0.0,0.0,0.0,0.0,0.0,0.0,0.0,0.0,0.0,0.0,0.0,0.0,0.0,0.0,0.0,0.0,0.0,0.0,0.0,0.0,0.0,0.0,0.0,0.0,0.0,0.0,0.0,0.0,0.0,0.0,0.0,0.0,0.0,0.0,0.0,0.0,0.0,0.0,0.0,0.0,0.0,0.0,0.0,0.0,0.0,0.0,0.0,0.0,0.0,0.0,0.0,0.0,0.0,0.0,0.0,0.0,0.0,0.0,0.0,0.0,0.0,0.0,0.0,0.0,0.0,0.0,0.0,0.0,0.0,0.0,0.0,0.0,0.0,0.0,0.0,0.0,0.0,0.0,0.0,0.0,0.0,0.0,0.0,0.0,0.0,0.0,0.0,0.0,0.0,0.0,0.0,0.0,0.0,0.0,0.0,0.0,0.0,0.0,0.0,0.0,0.0,0.0,0.0,0.0,0.0,0.0,0.0,0.0,0.0,0.0,0.0,0.0,0.0,0.0,0.0,0.0,0.0,0.0,0.0,0.0,0.0,0.0,0.0,0.0,0.0,0.0,0.0,0.0,0.0,0.0,0.0,0.0,0.0,0.0,0.0,0.0,0.0,0.0,0.0,0.0,0.0,0.0,0.0,0.0,0.0,0.0,0.0,0.0,0.0,0.0,0.0,0.0,0.0,0.0,0.0,0.0,0.0,0.0,0.0,0.0,0.0,0.0,0.0,0.0,0.0,0.0,0.0,0.0,0.0,0.0,0.0,0.0,0.0,0.0,0.0,0.0,0.0,0.0,0.0,0.0,0.0,0.0,0.0,0.0,0.0,0.0,0.0,0.0,0.0,0.0,0.0,0.0,0.0,0.0,0.0,0.0,0.0,0.0,0.0,0.0,0.0,0.0,0.0,0.0,0.0,0.0,0.0,0.0,0.0,0.0,0.0,0.0,0.0,0.0,0.0,0.0,0.0,0.0,0.0,0.0,0.0,0.0,0.0,0.0,0.0,0.0,0.0,0.0,0.0,0.0,0.0,0.0,0.0,0.0,0.0,0.0,0.0,0.0,0.0,0.0,0.0,0.0,0.0,0.0,0.0,0.0,0.0,0.0,0.0,0.0,0.0,0.0,0.0,0.0,0.0,0.0,0.0,0.0,0.0,0.0,0.0,0.0,0.0,0.0,0.0,0.0,0.0,0.0,0.0,0.0,0.0,0.0,0.0,0.0,0.0,0.0,0.0,0.0,0.0,0.0,0.0,0.0,0.0,0.0,0.0,0.0,0.0,0.0,0.0,0.0,0.0,0.0,0.0,0.0,0.0,0.0,0.0,0.0,0.0,0.0,0.0,0.0,0.0,0.0,0.0,0.0,0.0,0.0,0.0,0.0,0.0,0.0,0.0,0.0,0.0,0.0,0.0,0.0,0.0,0.0,0.0,0.0,0.0,0.0,0.0,0.0,0.0,0.0,0.0,0.0,0.0,0.0,0.0,0.0,0.0,0.0,0.0,0.0,0.0,0.0,0.0,0.0,0.0,0.0,0.0,0.0,0.0,0.0,0.0,0.0,0.0,0.0,0.0,0.0,0.0,0.0,0.0,0.0,0.0,0.0,0.0,0.0,0.0,0.0,0.0,0.0,0.0,0.0,0.0,0.0,0.0,0.0,0.0,0.0,0.0,0.0,0.0,0.0,0.0,0.0,0.0,0.0,0.0,0.0,0.0,0.0,0.0,0.0,0.0,0.0,0.0,0.0,0.0,0.0,0.0,0.0,0.0,0.0,0.0,0.0,0.0,0.0,0.0,0.0,0.0,0.0,0.0,0.0,0.0,0.0,0.0,0.0,0.0,0.0,0.0,0.0,0.0,0.0,0.0,0.0,0.0,0.0,0.0,0.0,0.0,0.0,0.0,0.0,0.0,0.0,0.0,0.0,0.0,0.0,0.0,0.0,0.0,0.0,0.0,0.0,0.0,0.0,0.0,0.0,0.0,0.0,0.0,0.0,0.0,0.0,0.0,0.0,0.0,0.0,0.0,0.0,0.0,0.0,0.0,0.0,0.0,0.0,0.0,0.0,0.0,0.0,0.0,0.0,0.0,0.0,0.0,0.0,0.0,0.0,0.0,0.0,0.0,0.0,0.0,0.0,0.0,0.0,0.0,0.0,0.0,0.0,0.0,0.0,0.0,0.0,0.0,0.0,0.0,0.0,0.0,0.0,0.0,0.0,0.0,0.0,0.0,0.0,0.0,0.0,0.0,0.0,0.0,0.0,0.0,0.0,0.0,0.0,0.0,0.0,0.0,0.0,0.0,0.0,0.0,0.0,0.0,0.0,0.0,0.0,0.0,0.0,4.9534,0.0,0.0,0.0,0.0,0.0,0.0,0.0,0.0,0.0,0.0,0.0,0.0,0.0,0.0,0.0,0.0,0.0,0.0,0.0,0.0,0.0,0.0,0.0,0.0,0.0,0.0,0.0,3.471,3.5052,3.5782,3.593,3.5985,3.5985,3.6072,3.6119,3.6119,3.6119,3.6455,3.7127,3.7127,3.7494,3.8097,3.6653,3.4888,3.2865,0.0,0.0,0.0,0.0,0.0,0.0,0.0,0.0,0.0,0.0,0.0,0.0,0.0,0.0,0.0,0.0,0.0,0.0,0.0,0.0,0.0,0.0,0.0,0.0,0.0,0.0,0.0,0.0,0.0,0.0,0.0,0.0,0.0,0.0,0.0,0.0,0.0,0.0,0.0,0.0,0.0,0.0,0.0,0.0,0.0,0.0,0.0,0.0,0.0,0.0,0.0,0.0,0.0,0.0,0.0,0.0,0.0,0.0,0.0,0.0,0.0,0.0,0.0,0.0,0.0,0.0,0.0,0.0,0.0,0.0,0.0,5.0693,0.0,0.0,0.0,0.0,0.0,0.0,0.0,0.0,0.0,0.0,0.0,0.0,0.0,0.0,0.0,0.0,0.0,0.0,0.0,0.0,0.0,0.0,0.0,3.3933,3.4573,3.588,3.6017,3.657,3.7894,3.8019,3.8096,3.8218,3.8243,3.826,3.826,3.826,3.8624,3.9403,3.9655,4.0049,4.0603,4.0482,3.8755,3.573,3.4649,0.0,0.0,0.0,0.0,0.0,0.0,0.0,0.0,0.0,0.0,0.0,0.0,0.0,0.0,0.0,0.0,0.0,0.0,0.0,0.0,0.0,0.0,0.0,0.0,0.0,0.0,0.0,0.0,0.0,0.0,0.0,0.0,0.0,0.0,0.0,0.0,0.0,0.0,0.0,0.0,0.0,0.0,0.0,0.0,0.0,0.0,0.0,0.0,0.0,0.0,0.0,0.0,0.0,0.0,0.0,0.0,0.0,0.0,0.0,0.0,0.0,0.0,0.0,5.7509,5.7869,5.7869,5.8011,5.8092,5.7938,5.5047,5.3535,5.3153,5.3153,0.0,0.0,0.0,0.0,0.0,0.0,0.0,0.0,0.0,0.0,0.0,0.0,0.0,0.0,0.0,0.0,0.0,0.0,0.0,0.0,0.0,3.5767,3.6404,3.7101,3.7191,3.7507,3.8282,3.8499,3.884,3.9425,3.9575,3.9633,3.9633,3.9633,4.0261,4.1507,4.2667,4.3283,4.3374,4.2789,4.1938,4.083,3.838,0.0,0.0,0.0,0.0,0.0,0.0,0.0,0.0,0.0,0.0,0.0,0.0,0.0,0.0,0.0,0.0,0.0,0.0,0.0,0.0,0.0,0.0,0.0,0.0,0.0,0.0,0.0,0.0,0.0,0.0,0.0,0.0,0.0,0.0,0.0,0.0,0.0,0.0,0.0,0.0,0.0,0.0,0.0,4.2076,4.3998,0.0,0.0,0.0,0.0,0.0,0.0,0.0,0.0,0.0,0.0,0.0,0.0,0.0,5.7888,5.9447,5.9479,5.9576,5.9757,6.0477,6.0848,6.0848,6.0869,6.0858,6.0825,5.9733,0.0,5.6136,5.6136,0.0,0.0,0.0,0.0,0.0,0.0,0.0,0.0,0.0,0.0,0.0,0.0,0.0,0.0,0.0,0.0,0.0,0.0,0.0,0.0,0.0,3.7174,3.7832,3.8464,3.8862,3.9379,4.0047,4.0528,4.0895,4.1216,4.1603,4.1802,4.1802,4.1802,4.2474,4.3797,4.5151,4.5813,4.5813,4.5512,4.502,4.4319,4.2735,4.0598,3.8078,3.6706,0.0,0.0,0.0,0.0,0.0,0.0,0.0,0.0,0.0,0.0,0.0,0.0,0.0,0.0,0.0,0.0,0.0,0.0,0.0,0.0,0.0,0.0,0.0,0.0,0.0,0.0,0.0,0.0,0.0,0.0,0.0,0.0,0.0,0.0,0.0,0.0,0.0,0.0,0.0,4.2641,4.482,4.634,4.7521,4.9024,0.0,0.0,0.0,0.0,0.0,0.0,0.0,0.0,0.0,5.9922,5.9954,6.07,6.2238,6.2238,6.2284,6.2386,6.309,6.3415,6.3427,6.3576,6.3644,6.3623,6.3029,6.218,6.1071,5.9416,5.8725,5.8725,0.0,0.0,0.0,0.0,5.6641,5.5628,0.0,0.0,0.0,0.0,0.0,0.0,0.0,0.0,0.0,0.0,0.0,0.0,3.7755,3.8362,3.905,4.0098,4.0606,4.1244,4.2082,4.2601,4.305,4.3379,4.3828,4.4137,4.4326,4.4655,4.5324,4.6302,4.7668,4.8286,4.8286,4.8286,4.7945,4.7277,4.6621,4.4348,4.0933,3.9423,3.8789,0.0,0.0,0.0,0.0,0.0,0.0,0.0,0.0,0.0,0.0,0.0,0.0,0.0,0.0,0.0,0.0,0.0,0.0,0.0,0.0,0.0,0.0,0.0,0.0,0.0,0.0,0.0,0.0,0.0,0.0,0.0,0.0,0.0,0.0,0.0,0.0,0.0,0.0,4.5379,4.7215,4.8958,4.978,5.1209,0.0,0.0,0.0,0.0,0.0,0.0,5.9662,6.0407,6.1454,6.2858,6.2879,6.3591,6.5048,6.508,6.508,6.508,6.576,6.6116,6.6116,6.6323,6.6419,6.6354,6.5837,6.5582,6.5365,6.2571,6.1437,6.1437,6.1437,6.111,6.0694,6.0636,5.9933,5.8947,0.0,0.0,0.0,0.0,0.0,0.0,0.0,0.0,0.0,0.0,0.0,3.7165,3.9092,3.9331,4.0127,4.2081,4.2291,4.284,4.4067,4.4187,4.4775,4.6061,4.6121,4.645,4.7089,4.8349,4.9048,4.9108,5.0391,5.0996,5.0996,5.0996,5.0637,4.9968,4.9355,4.7241,4.3938,4.2051,4.1222,4.0973,0.0,0.0,0.0,0.0,0.0,0.0,0.0,0.0,0.0,0.0,0.0,0.0,0.0,0.0,0.0,0.0,0.0,0.0,0.0,0.0,0.0,0.0,0.0,0.0,0.0,0.0,0.0,0.0,0.0,0.0,0.0,0.0,0.0,0.0,0.0,0.0,0.0,0.0,0.0,5.1744,5.2114,0.0,0.0,0.0,0.0,6.0007,6.0887,6.1699,6.2631,6.3376,6.4433,6.5837,6.589,6.657,6.7974,6.7974,6.7974,6.8007,6.8732,6.9088,6.9088,6.9114,6.9114,6.9049,6.8336,6.8012,6.7855,6.5451,6.4471,6.4471,6.4471,6.4471,6.434,6.3653,6.3369,6.3107,0.0,0.0,0.0,0.0,0.0,0.0,0.0,0.0,3.508,3.6407,3.7635,3.8802,3.9909,4.1156,4.2203,4.293,4.4157,4.5084,4.5553,4.6401,4.71,4.7578,4.8364,4.9112,4.9811,5.1121,5.1821,5.1821,5.3114,5.3773,5.3773,5.3773,5.3542,5.306,5.2012,5.0787,4.9206,4.5487,4.3908,4.3668,4.1035,3.932,0.0,0.0,0.0,0.0,0.0,0.0,0.0,0.0,0.0,0.0,0.0,0.0,0.0,0.0,0.0,0.0,0.0,0.0,0.0,0.0,0.0,0.0,0.0,0.0,0.0,0.0,0.0,0.0,0.0,0.0,0.0,0.0,0.0,0.0,0.0,0.0,0.0,5.383,5.4516,0.0,5.9008,5.9318,6.0474,6.3345,6.3785,6.4495,6.5737,6.6058,6.6917,6.8492,6.8569,6.9336,7.0954,7.0954,7.0954,7.0954,7.1213,7.1342,7.1342,7.1342,7.1342,7.1342,7.1083,7.0954,7.0902,7.0065,6.8614,6.6968,6.6968,6.6968,6.6948,6.6845,6.624,6.5339,0.0,0.0,0.0,0.0,0.0,0.0,0.0,0.0,3.5654,3.7191,3.8445,3.9698,4.1037,4.2346,4.3437,4.433,4.562,4.6691,4.7335,4.822,4.8905,4.9321,5.0566,5.1577,5.2244,5.334,5.4007,5.4203,5.5334,5.5989,5.6227,5.6227,5.5961,5.5512,5.4416,5.3723,5.3057,4.9257,4.7167,4.6166,4.3617,4.1788,4.0485,0.0,0.0,0.0,0.0,0.0,0.0,0.0,0.0,0.0,0.0,0.0,0.0,0.0,0.0,0.0,0.0,0.0,0.0,0.0,0.0,0.0,0.0,0.0,0.0,0.0,0.0,0.0,0.0,0.0,0.0,0.0,0.0,0.0,0.0,0.0,5.4198,5.6261,5.7168,5.8723,6.1697,6.1963,6.3248,6.6333,6.6582,6.7227,6.8756,6.882,6.9425,7.0765,7.1054,7.1869,7.3264,7.349,7.3605,7.3605,7.3605,7.3605,7.3605,7.3361,7.3264,7.3278,7.3115,7.3072,7.3072,7.318,7.2087,7.0274,6.9561,6.9128,6.8959,6.9155,6.8589,6.7724,0.0,0.0,0.0,0.0,0.0,0.0,0.0,3.4038,3.5629,3.7561,3.8436,3.985,4.2412,4.2765,4.3836,4.6373,4.6668,4.7512,4.9404,4.9581,5.0158,5.1442,5.2695,5.3696,5.437,5.5073,5.5722,5.63,5.6962,5.7623,5.8258,5.8258,5.7904,5.7256,5.6595,5.5947,5.5253,5.3255,5.0959,4.8473,4.6016,4.4245,4.298,0.0,0.0,0.0,0.0,0.0,0.0,0.0,0.0,0.0,0.0,0.0,0.0,0.0,0.0,0.0,0.0,0.0,0.0,0.0,0.0,0.0,0.0,0.0,0.0,0.0,0.0,0.0,0.0,0.0,0.0,0.0,0.0,0.0,5.3144,5.4999,5.7085,5.9148,6.0012,6.1529,6.4361,6.4645,6.59,6.8937,6.9218,6.9931,7.1575,7.1685,7.2005,7.269,7.3411,7.4129,7.4893,7.5536,7.5873,7.5873,7.5873,7.5873,7.5841,7.512,7.4847,7.4875,7.4468,7.4318,7.4332,7.4605,7.4683,7.4456,7.2333,7.1103,7.052,7.052,7.0533,7.0403,0.0,0.0,0.0,0.0,0.0,0.0,0.0,3.5202,3.6661,3.8126,3.9833,4.1362,4.2559,4.4377,4.5813,4.655,4.8308,4.9581,5.0111,5.1054,5.2173,5.3457,5.471,5.5711,5.6386,5.7549,5.8197,5.8374,5.8993,5.9405,5.9582,5.9582,5.938,5.8977,5.8304,5.7797,5.7353,5.5387,5.3901,5.2541,4.8957,4.6712,4.5392,0.0,0.0,0.0,0.0,0.0,0.0,0.0,0.0,0.0,0.0,0.0,0.0,0.0,0.0,0.0,0.0,0.0,0.0,0.0,0.0,0.0,0.0,0.0,0.0,0.0,0.0,0.0,0.0,0.0,0.0,0.0,0.0,5.4829,5.528,5.7137,5.9211,6.1284,6.2611,6.4456,6.7281,6.7565,6.8509,7.0887,7.1502,7.221,7.32,7.3722,7.4426,7.5327,7.555,7.6099,7.7037,7.7246,7.7327,7.7327,7.7327,7.7327,7.731,7.7118,7.7022,7.7037,7.6933,7.6866,7.688,7.6953,7.6708,7.611,7.4402,7.3609,7.3447,7.3447,7.3137,7.2619,0.0,0.0,0.0,0.0,0.0,0.0,0.0,3.5581,3.702,3.8594,4.0334,4.1906,4.3115,4.5079,4.6526,4.7042,4.8934,5.0327,5.0871,5.2394,5.3945,5.5496,5.6286,5.7106,5.8057,5.9081,5.9769,6.0033,6.0633,6.1072,6.1365,6.1365,6.1101,6.069,6.002,5.9481,5.8987,5.7332,5.6258,5.5401,5.2267,4.9631,4.7496,4.6579,4.461,4.2255,4.1696,4.0267,3.8402,3.7049,0.0,0.0,0.0,0.0,0.0,0.0,0.0,0.0,0.0,0.0,0.0,0.0,0.0,0.0,0.0,0.0,0.0,0.0,0.0,0.0,0.0,0.0,0.0,0.0,5.4954,5.7074,5.8652,6.0045,6.1661,6.3741,6.5326,6.7331,7.0157,7.041,7.1294,7.3412,7.3917,7.4455,7.5165,7.5814,7.6473,7.7066,7.7637,7.8236,7.8818,7.9136,7.9263,7.9263,7.8977,7.8818,7.8801,7.8228,7.7942,7.7942,7.7791,7.7723,7.7738,7.7841,7.7662,0.0,0.0,0.0,0.0,0.0,7.4871,7.4466,0.0,0.0,0.0,0.0,0.0,0.0,0.0,3.5581,3.7032,3.9044,4.0408,4.1918,4.3816,4.5267,4.6603,4.7794,4.9129,5.0494,5.1833,5.3749,5.5548,5.7245,5.7507,5.8232,5.948,6.0119,6.0729,6.1396,6.1948,6.2499,6.308,6.308,6.2776,6.2195,6.1658,6.1048,6.0322,5.9132,5.8174,5.7274,5.5519,5.2688,4.9424,4.8858,4.7105,4.4859,4.4057,4.2568,4.0743,3.8973,0.0,0.0,0.0,0.0,0.0,0.0,0.0,0.0,0.0,0.0,0.0,0.0,0.0,0.0,0.0,0.0,0.0,0.0,0.0,0.0,0.0,0.0,0.0,0.0,5.7024,5.9433,6.2338,6.329,6.4406,6.6251,6.8003,7.0077,7.2664,7.3009,7.3954,7.6006,7.6272,7.665,7.7314,0.0,0.0,0.0,0.0,8.0238,8.0238,8.087,8.1218,8.1186,8.0554,8.0238,8.0175,7.8927,7.8358,7.8342,7.8033,7.7884,7.7804,7.8044,7.8101,7.7988,7.728,7.6606,7.6033,7.6033,7.6033,7.6077,0.0,0.0,0.0,0.0,0.0,0.0,0.0,3.6132,3.7177,3.9596,4.1076,4.2451,4.3845,4.6051,4.7735,4.8467,5.0179,5.2007,5.3836,5.5693,5.6926,5.726,5.8813,6.0003,6.0816,6.1425,6.2064,6.2732,6.2848,6.2964,6.308,6.308,6.3022,6.2906,6.279,6.2354,6.1687,6.0932,5.9655,5.8029,5.7129,5.4818,5.1731,5.0098,4.8522,4.6973,4.5449,4.3982,4.2521,4.0792,3.9537,3.8457,3.704,0.0,0.0,0.0,0.0,0.0,0.0,0.0,0.0,0.0,0.0,0.0,0.0,0.0,0.0,0.0,0.0,0.0,0.0,0.0,0.0,5.6025,5.8603,6.1038,6.3254,6.5779,6.7609,6.8224,7.0012,7.1853,7.3541,7.4408,7.5548,7.7103,7.8013,7.8784,7.9448,8.0175,8.0585,8.0585,8.0838,8.0996,8.0996,8.1123,8.1218,8.1218,0.0,0.0,8.0996,8.0712,8.0585,8.0585,8.0523,8.0143,7.9605,7.9637,7.9367,7.878,7.801,7.763,7.7502,7.7502,7.7502,7.7502,0.0,0.0,0.0,0.0,0.0,0.0,0.0,3.6306,3.7206,3.977,4.1279,4.2596,4.3874,4.6255,4.791,4.8217,5.0598,5.292,5.4822,5.6432,5.7594,5.8261,5.951,6.0642,6.1629,6.2267,6.2906,6.3558,6.3893,6.4054,6.4038,6.3865,6.3786,6.377,6.3279,6.2854,6.248,6.1559,6.0407,5.914,5.8018,5.6428,5.4504,5.242,5.0423,4.8543,4.7037,4.5674,4.4279,4.2199,4.1136,4.0428,3.8891,3.8124,3.7586,0.0,0.0,0.0,0.0,0.0,0.0,0.0,0.0,0.0,0.0,0.0,0.0,0.0,0.0,4.8368,5.0759,0.0,5.5118,5.7851,6.027,6.2627,6.5028,6.7818,6.9766,7.0058,7.1744,7.3672,7.5745,7.6401,7.7292,7.8685,7.93,7.9741,8.0087,8.0777,8.1236,8.1432,8.1778,8.2049,8.2213,8.2213,8.2213,8.2213,8.185,8.1692,8.1692,8.1344,8.1218,8.1218,8.1218,8.0996,8.0649,8.0649,8.0459,8.0112,7.9697,7.9123,7.8487,7.8487,7.8487,7.8517,0.0,0.0,0.0,0.0,0.0,0.0,0.0,3.6306,3.7206,3.977,4.1163,4.2451,4.3845,4.6167,4.7852,4.849,5.1133,5.3487,5.5205,5.6523,5.7799,5.9059,5.971,6.0665,6.2083,6.2633,6.327,6.3991,6.4544,6.482,6.4804,6.4515,6.4386,6.4386,6.3563,6.3063,6.2749,6.1721,6.0807,5.9864,5.8474,5.7398,5.642,5.4437,5.2265,5.0071,4.8665,4.7271,4.5754,4.3696,4.27,4.206,4.0637,3.9846,3.9293,3.8667,3.787,0.0,0.0,0.0,0.0,0.0,0.0,0.0,0.0,0.0,4.4331,4.6213,4.8427,5.0632,5.2661,5.4825,5.7199,5.9932,6.2073,6.432,6.6905,6.9505,7.1304,7.1824,7.343,7.5371,7.7579,7.811,7.8844,8.0091,8.0282,8.0408,8.0689,8.1203,8.1728,8.217,8.2578,8.2931,8.3198,8.3088,8.3025,8.2994,8.2474,8.219,8.219,8.1655,8.1386,8.1386,8.1228,8.1229,8.1279,8.1152,8.1122,8.1218,8.1218,8.0522,7.9495,7.9495,7.9495,7.9543,0.0,0.0,0.0,0.0,0.0,0.0,0.0,0.0,3.7206,3.977,4.0767,4.1918,4.3816,4.5739,4.8048,5.0933,5.253,5.3875,5.4976,5.6245,5.7384,5.8355,5.9043,6.0245,6.2047,6.2161,6.2807,6.3996,6.4082,6.4111,6.4111,6.4078,6.4062,6.4062,6.3928,6.3267,6.2193,6.2051,6.095,5.9234,5.8523,5.7195,5.5565,5.4707,5.3512,5.2046,5.015,4.8281,4.658,4.5783,4.4072,4.2274,4.206,4.1321,4.0437,4.0015,0.0,3.9611,3.9197,3.9032,3.9161,3.9915,4.0734,4.1746,0.0,0.0,4.6001,4.7438,4.9537,5.174,5.3844,5.6536,5.9329,6.2012,6.4197,6.6273,6.8366,7.0505,7.2337,7.3553,7.5464,7.6759,7.7083,7.8505,7.9726,8.0504,8.0817,8.1514,8.2796,8.2921,8.3281,8.3891,8.3409,8.3145,8.3196,8.2619,8.2307,8.2307,8.2244,8.2182,8.2182,8.2119,8.2088,8.2057,8.1399,8.13,8.1598,8.0937,8.0895,8.1218,8.1218,8.1091,8.0965,8.0965,8.0965,8.0965,0.0,0.0,0.0,0.0,0.0,0.0,0.0,0.0,0.0,3.9584,4.0408,4.1469,4.3369,4.5591,4.7909,5.0394,5.1746,5.3089,5.4617,5.5935,5.7153,5.8236,5.8938,5.9996,6.1479,6.1908,6.2524,6.3426,6.3797,6.3997,6.3997,6.3769,6.3643,6.3626,6.309,6.2539,6.1985,6.125,6.0244,5.9128,5.8334,5.7116,5.5695,5.4839,5.3501,5.1887,5.0488,4.8873,0.0,0.0,4.4974,4.3672,4.2944,4.2203,4.1526,4.1008,4.0674,0.0,4.0393,4.0761,4.1304,4.1943,4.266,4.3658,4.5409,4.6376,4.7478,4.9615,5.1512,5.3448,5.5469,5.7811,6.0193,0.0,6.4713,6.6893,6.89,7.1491,7.3522,7.4461,7.6739,7.8199,7.8199,7.9243,8.0315,8.1382,8.1612,8.2114,8.3091,8.3153,8.3364,8.3852,8.3573,8.357,8.3777,8.3108,8.2765,8.2782,8.2376,8.2189,8.2189,8.2189,8.2189,8.2189,8.186,8.1819,8.1986,8.1657,8.1646,8.1779,8.1779,8.1779,8.1734,8.134,8.1218,8.1218,0.0,0.0,0.0,0.0,0.0,0.0,0.0,0.0,0.0,0.0,4.0022,4.1084,4.3314,4.5618,4.7693,4.9465,5.0738,5.2155,5.3758,5.5096,5.6336,5.7472,5.8326,5.9351,6.0543,6.1226,6.1867,6.248,6.2964,6.3208,6.3192,6.2915,6.2785,6.274,6.2056,6.1633,6.1409,6.0297,5.9498,5.8855,5.7648,5.6538,5.5478,5.4232,5.2735,5.1272,5.0679,4.9288,0.0,4.6696,4.5732,4.4745,4.3816,4.3185,4.2688,4.2312,4.2016,4.1843,4.209,4.2634,4.325,4.3718,4.4476,4.5503,4.698,4.7957,4.9129,5.1077,5.3024,5.4855,5.6503,5.8663,6.0826,6.2872,6.509,6.7246,6.9275,7.1949,7.4007,7.4779,7.7267,7.8977,7.9092,7.9878,8.0863,8.202,8.2081,8.2481,8.3344,8.3374,8.3573,8.4006,8.3839,8.3887,8.4181,8.3514,8.3079,8.291,8.2412,8.2088,8.1901,8.1901,8.1901,8.1901,8.1901,8.1952,8.2037,8.2037,8.2104,8.2189,8.2189,8.2189,8.2131,8.1659,8.1527,8.1625,0.0,0.0,0.0,0.0,0.0,0.0,0.0,0.0,0.0,0.0,0.0,0.0,0.0,4.5864,4.7521,4.8823,5.0096,5.1235,5.2221,5.3454,5.4601,5.554,5.6805,5.8027,5.922,5.9851,6.0485,6.1148,6.1176,6.1176,6.1176,6.1176,6.116,6.116,6.1144,6.0778,6.0129,5.9498,5.888,5.8165,5.6326,5.5201,5.4429,5.2587,5.1286,5.0499,5.0985,0.0,4.7457,4.7682,4.6469,4.489,4.4861,4.4436,0.0,4.416,4.4325,4.4558,4.48,4.4903,4.4955,4.5203,4.6232,4.7209,4.7309,4.9284,5.1098,5.1199,5.3525,5.5757,5.6493,5.8953,6.1537,6.3643,6.5602,6.762,6.9686,7.1705,7.3336,7.4378,7.6888,7.8675,0.0,8.0296,8.136,8.205,8.2081,8.2666,8.4003,8.4065,8.4372,8.5037,8.4421,8.4082,8.41,8.3423,8.2794,8.2116,8.2116,8.1747,8.1148,8.1148,8.1148,8.1148,8.1148,8.1306,8.1615,8.1615,8.1836,8.2189,8.2189,8.2189,8.2189,8.2191,8.2379,8.2713,0.0,0.0,0.0,0.0,0.0,0.0,0.0,0.0,0.0,0.0,0.0,0.0,0.0,0.0,0.0,0.0,4.8541,4.9858,5.1796,5.2331,5.3459,5.5412,5.5917,5.6732,5.7969,5.8993,5.9611,5.9835,6.0694,6.1088,6.1088,6.1088,6.1088,6.1059,6.0216,5.9695,5.9442,5.8446,5.7407,5.6395,5.5749,5.44,5.2672,5.2053,5.0575,4.8931,0.0,0.0,4.7364,4.7037,4.6321,4.55,4.5035,4.4774,4.4534,4.4192,4.4259,4.4422,4.4496,4.5293,4.6105,4.6321,4.7357,4.8503,4.9097,5.0249,5.1457,5.2336,5.4368,5.62,5.6831,5.9165,6.1533,6.3125,6.5602,6.785,6.9437,7.194,7.3756,7.4129,7.6503,0.0,0.0,0.0,0.0,8.2666,8.2759,8.3344,8.468,8.4773,8.4865,8.508,8.4896,8.4773,8.4773,8.4095,8.3634,8.3436,8.2543,8.1989,8.1743,8.1298,8.1113,8.1113,8.1113,8.1151,8.1255,8.1255,8.1372,8.1505,8.1969,8.1877,8.154,8.2227,8.2257,8.2022,0.0,0.0,0.0,0.0,0.0,0.0,0.0,0.0,0.0,0.0,0.0,0.0,0.0,0.0,0.0,0.0,0.0,4.888,5.0678,5.1435,5.2503,5.4119,5.4821,5.5664,5.6704,5.7672,5.8318,5.8559,5.9373,5.9783,5.9783,5.9783,5.9783,5.9739,5.8924,5.8403,5.8122,5.7154,5.6016,5.4836,5.4344,5.3079,5.1407,5.0719,4.9498,0.0,4.7546,4.7101,4.6759,4.6569,4.6166,4.5706,4.5361,4.5267,4.518,4.4803,4.492,4.5226,4.5314,4.6207,4.7209,4.7403,4.8367,4.9461,5.0224,5.1177,5.2247,5.3324,5.5132,5.6628,5.7047,5.9308,6.1553,6.2884,6.5277,6.7515,6.9109,7.1588,7.3397,7.3723,7.6115,7.7772,0.0,0.0,0.0,8.2762,8.2884,8.3522,8.5001,8.5111,8.5111,8.5111,8.5111,8.5111,8.5111,8.468,8.4342,8.4095,8.2974,8.2451,8.2451,8.202,8.1804,8.1804,8.1804,8.1804,8.1804,8.1804,8.1804,8.1866,8.2297,8.2204,8.1901,8.2559,8.2522,8.2128,0.0,0.0,0.0,0.0,0.0,0.0,0.0,0.0,0.0,0.0,0.0,0.0,0.0,0.0,0.0,0.0,0.0,0.0,4.891,5.0649,5.1688,5.1744,5.3487,5.4752,5.5355,5.5987,5.662,5.7253,5.7281,5.7309,5.7309,5.7309,5.7309,5.7309,5.7281,5.6873,5.6212,5.5594,5.4667,5.3445,5.2194,5.1323,5.0577,4.8739,4.8024,4.7715,4.589,4.5399,4.5666,4.6228,4.5999,4.5549,4.5839,4.5906,4.5906,4.5935,4.6348,4.6876,4.7146,4.767,4.8208,4.8451,4.9236,5.0045,5.065,5.2025,5.3341,5.3987,5.5675,5.7064,0.0,0.0,6.1493,6.2824,6.4695,6.67,6.8675,7.0636,7.2218,0.0,0.0,0.0,0.0,0.0,0.0,8.2255,8.2444,8.3235,8.4928,8.5039,8.5039,8.5039,8.5057,8.5075,8.5075,8.5093,8.4773,8.4126,8.3449,8.3159,8.3159,8.3128,8.3097,8.3097,8.3097,8.3097,8.3097,8.3097,8.3097,8.3097,8.3159,8.3128,8.3097,8.3159,8.3128,8.3001,0.0,0.0,0.0,0.0,0.0,0.0,0.0,0.0,0.0,0.0,0.0,0.0,0.0,0.0,0.0,0.0,0.0,0.0,4.8249,4.9204,5.0144,5.1083,5.2025,5.2812,5.3416,5.4484,5.5145,5.5314,5.5749,5.5973,5.5973,5.5973,5.5973,5.5973,5.551,5.4976,5.4358,5.3697,5.2728,5.1533,5.0787,4.9805,4.8711,4.7784,4.6845,4.589,4.4963,4.4364,4.4182,4.4975,4.535,4.5549,4.5839,4.5906,4.5993,4.6435,4.6685,4.6928,4.7486,4.8108,4.8621,4.8864,4.9509,5.0133,5.0501,5.1777,5.294,5.3119,5.4903,5.6568,0.0,5.889,6.0775,6.2135,6.4425,0.0,6.8032,6.9947,0.0,7.289,0.0,7.5957,7.6987,7.7845,0.0,0.0,8.1643,8.2675,8.4124,8.4215,8.4215,8.4215,8.4497,8.4643,8.4643,8.4935,8.5019,8.4834,8.4157,8.3849,8.3818,8.3344,8.3097,8.3097,8.3097,8.3097,8.3097,8.3097,8.3097,8.3159,8.3634,8.3559,8.3159,8.3664,8.3528,8.3084,0.0,0.0,0.0,0.0,0.0,0.0,0.0,0.0,0.0,0.0,0.0,0.0,0.0,0.0,0.0,0.0,0.0,0.0,0.0,4.8108,4.8923,4.9623,5.0536,5.1294,5.1913,5.2615,5.3093,5.3374,5.3712,5.3866,5.3866,5.3866,5.3866,5.3866,5.3501,5.3037,5.2433,5.1786,5.0817,0.0,0.0,4.8021,4.6817,4.6211,4.5368,4.4441,4.3835,4.3385,4.3178,4.3755,4.4476,4.5174,4.5587,4.5827,4.6022,4.6627,4.7004,4.7375,4.8014,4.8653,4.9182,4.9339,4.9722,5.0235,5.0673,5.1522,5.2386,5.2936,5.442,5.5876,5.6745,5.842,6.0206,6.1822,6.3797,6.5682,6.7313,6.9243,7.0962,0.0,7.3898,0.0,7.6676,7.7424,7.8459,0.0,8.1081,8.2219,8.3433,8.3767,8.3901,8.3901,8.4111,8.424,8.424,8.4442,8.4583,8.4552,8.4185,8.4001,8.4001,8.3604,8.3451,8.3451,0.0,8.3451,8.3451,8.3451,8.3559,8.3752,8.412,8.4167,8.4003,8.4403,8.4311,8.3941,0.0,0.0,0.0,0.0,0.0,0.0,0.0,0.0,0.0,0.0,0.0,0.0,0.0,0.0,0.0,0.0,0.0,0.0,0.0,0.0,4.7856,4.7856,4.9074,4.9987,5.0521,5.0689,5.1055,5.1547,5.1547,5.1547,5.1547,5.1547,5.1519,5.1435,5.1435,5.1041,5.038,4.9846,4.8905,4.7687,4.7082,4.6127,4.4991,0.0,0.0,4.3312,4.2694,4.2424,4.239,4.2647,4.3529,4.4646,4.5204,4.5616,4.6051,4.6725,4.7335,4.7939,4.8641,4.9262,4.9693,4.9693,4.988,5.0208,5.0776,5.119,5.1756,5.2863,5.3917,5.4968,5.6159,5.7755,5.9469,6.1347,6.2872,6.4501,6.646,6.8435,7.0214,7.1713,7.3509,7.5198,7.6659,7.7335,7.8202,7.9578,8.0626,8.1666,8.2771,8.3407,8.3789,8.3845,8.3845,8.3863,8.3901,8.3901,8.3901,8.3901,8.3901,8.3901,8.3901,8.3901,8.3901,8.3901,8.3901,0.0,8.3901,8.3901,8.4123,8.4424,8.4424,8.4625,8.4948,8.4948,8.4984,8.4946,0.0,0.0,0.0,0.0,0.0,0.0,0.0,0.0,0.0,0.0,4.0631,4.1204,0.0,0.0,0.0,0.0,0.0,0.0,0.0,0.0,0.0,4.6616,4.7784,4.8486,4.8599,4.9621,5.0225,5.0309,5.0309,5.0309,5.0309,5.0309,5.003,4.9485,4.9485,4.8867,4.7825,4.774,4.6941,4.5721,4.5143,4.4441,4.375,0.0,0.0,0.0,4.2008,4.1435,4.112,4.1659,4.2904,4.4336,4.4664,4.5292,4.6138,4.73,4.7706,4.8055,4.9216,4.9606,4.9693,4.9693,4.9717,4.9795,4.9912,5.0569,0.0,5.1468,5.2624,5.3862,5.4656,5.6323,5.7969,5.9105,6.1288,6.3429,6.5114,6.7059,6.9229,0.0,7.2684,7.4163,7.6587,7.6916,0.0,0.0,7.9651,8.0653,8.1945,8.2635,8.3146,8.3484,8.3484,8.3603,8.3901,8.3901,8.3901,8.3901,8.3901,8.3901,8.3901,8.3901,8.3901,8.3901,8.3901,0.0,8.3901,8.3901,8.3956,8.3981,8.3981,8.4067,8.4123,8.4123,8.4313,8.4607,0.0,0.0,0.0,0.0,0.0,0.0,0.0,4.008,4.0473,4.1081,4.1154,4.1531,4.2508,4.2891,0.0,0.0,0.0,0.0,0.0,0.0,0.0,0.0,0.0,0.0,4.7166,4.7753,4.8075,4.8075,0.0,4.8075,4.8075,4.8075,4.7894,4.7587,4.7587,4.7082,4.6183,4.5874,4.52,4.4301,4.3722,4.3076,0.0,0.0,0.0,0.0,0.0,4.0473,4.0333,4.094,4.1996,4.3217,4.4118,4.4974,4.5968,4.7381,4.7805,4.8096,4.9345,4.9693,4.9693,4.9693,4.9693,4.9693,4.9693,0.0,0.0,5.0821,5.1599,5.2595,5.3947,5.5064,5.6375,5.8208,6.0087,6.2038,6.401,6.6261,6.8531,7.0617,7.2086,7.3655,7.5617,7.6407,7.7215,7.819,7.9219,8.0237,8.1231,8.2249,8.2901,8.309,8.309,8.3165,8.3323,8.3323,8.3323,8.3323,8.3323,8.3323,8.3323,8.3323,8.3323,8.3323,8.3323,0.0,8.3323,8.3323,8.3454,8.3622,8.3622,8.3733,8.3901,8.3901,8.403,8.4185,0.0,0.0,0.0,0.0,0.0,0.0,0.0,4.0491,4.1053,4.1548,4.1829,4.2205,4.2722,4.3228,4.375,0.0,0.0,0.0,0.0,0.0,0.0,0.0,0.0,0.0,0.0,0.0,0.0,4.6307,4.6307,0.0,0.0,0.0,0.0,0.0,4.5942,4.5537,4.4879,4.4273,4.3666,0.0,0.0,4.1794,0.0,0.0,0.0,0.0,0.0,3.9697,3.9866,4.0361,4.1126,4.2123,4.3348,4.4445,4.5618,4.7143,4.7677,4.8038,4.9187,4.9606,4.9693,4.9693,4.9606,4.9478,4.9478,4.9403,4.949,5.0145,5.0563,5.1307,5.299,5.3785,5.4952,5.7184,5.8892,6.0656,6.2794,6.5301,6.7591,6.9287,7.1323,0.0,7.4634,7.6013,0.0,7.7753,7.904,8.0165,8.0973,8.2129,8.2806,8.2806,8.2806,8.2806,8.2806,8.2806,8.2806,8.2806,8.2806,8.2806,8.2806,8.2806,8.2806,8.2806,8.2806,0.0,0.0,8.2806,8.2995,8.3278,8.3278,8.3416,8.3659,8.3659,8.3715,8.3789,0.0,0.0,0.0,0.0,0.0,0.0,0.0,4.1126,4.1548,4.1604,4.2598,4.3357,4.3413,4.3469,4.375,0.0,0.0,0.0,0.0,0.0,0.0,0.0,0.0,0.0,0.0,0.0,0.0,4.6307,4.6307,0.0,0.0,0.0,0.0,0.0,0.0,4.4256,4.3638,4.3031,0.0,0.0,0.0,0.0,0.0,0.0,0.0,0.0,0.0,3.9331,3.9809,3.9866,4.0653,4.1709,4.2084,4.3332,4.4966,4.6453,4.7306,4.7939,4.8612,4.9233,4.9693,4.9693,4.9233,4.8774,4.8774,4.8362,4.8142,4.8757,4.9403,5.0078,5.0863,5.2404,5.3949,5.5028,5.728,5.9503,6.1187,6.3636,6.5968,6.795,7.018,7.2293,7.4149,7.5827,7.7095,7.7753,7.904,8.0356,8.165,8.2417,8.2806,8.2806,8.2806,8.2806,8.2806,8.2806,8.2806,8.2806,8.2806,8.2806,8.2806,8.2806,8.2806,8.2806,8.2806,0.0,0.0,8.2806,8.2825,8.2863,8.2863,8.2882,8.292,8.292,8.3146,8.3446,0.0,0.0,0.0,0.0,0.0,0.0,4.0575,4.1211,4.1744,4.216,4.2964,4.3638,4.4003,4.4059,4.4132,0.0,0.0,0.0,0.0,0.0,0.0,0.0,0.0,0.0,0.0,0.0,4.5155,4.5155,4.5155,0.0,0.0,0.0,0.0,0.0,0.0,4.3301,4.2334,4.2093,0.0,0.0,0.0,0.0,0.0,0.0,0.0,0.0,0.0,0.0,3.8777,3.9546,4.0108,4.0674,4.1683,4.2851,4.4104,4.5572,4.6581,4.7335,4.7985,4.8345,4.856,4.856,4.8374,4.8159,4.8159,4.7968,4.7852,4.8101,4.8653,4.9291,4.9983,5.1323,5.2859,5.4415,5.6175,5.8196,6.0573,6.2775,6.4951,6.7144,6.9575,7.155,7.2674,7.4838,7.6658,7.7932,7.9122,8.0207,8.1153,8.183,8.2368,8.2776,8.2806,8.2806,8.2806,8.2806,8.2806,8.2806,8.2806,8.2806,8.2806,8.2806,8.2806,8.2806,8.2806,0.0,0.0,8.2806,8.2806,8.2806,8.2806,8.2806,8.2806,8.2806,8.2901,8.3052,0.0,0.0,0.0,0.0,0.0,4.009,4.071,4.1405,4.2064,4.2536,4.3284,4.3947,4.4357,4.4413,4.4413,4.4413,0.0,0.0,0.0,0.0,0.0,0.0,0.0,0.0,0.0,0.0,4.4413,4.4413,4.4413,4.4413,0.0,0.0,4.4076,4.3497,0.0,0.0,0.0,0.0,0.0,0.0,0.0,0.0,0.0,0.0,0.0,0.0,0.0,0.0,0.0,0.0,0.0,3.9971,4.1014,4.2079,4.3213,4.4763,4.598,4.6888,4.7375,4.7648,4.7805,4.7805,4.7648,4.7491,4.7491,4.7358,4.73,4.7474,4.8014,4.8612,4.9262,5.0627,5.2123,5.3675,5.5329,5.7242,5.964,6.183,6.3952,6.6149,6.8788,7.0767,7.1573,7.4121,7.6346,7.7919,7.8728,7.9529,8.0411,8.1019,8.1777,8.2776,8.2806,8.2806,8.2806,8.2806,8.2806,8.2806,8.2806,8.2806,8.2806,8.2806,8.2806,8.2806,8.2806,0.0,0.0,8.2806,8.2806,8.2806,8.2806,8.2806,8.2806,8.2806,8.2806,8.2806,0.0,0.0,0.0,0.0,0.0,0.0,4.0916,4.1909,4.2593,4.2593,4.3638,4.4385,4.4413,4.4413,4.4413,4.4413,0.0,0.0,0.0,0.0,0.0,0.0,0.0,0.0,0.0,0.0,4.4413,4.4413,4.4413,4.4413,4.4413,4.4413,4.4076,4.3469,0.0,0.0,0.0,0.0,0.0,0.0,0.0,0.0,0.0,0.0,0.0,0.0,0.0,0.0,0.0,0.0,0.0,0.0,0.0,4.0823,4.235,4.4108,4.5656,4.6789,4.6818,4.7277,4.7805,4.7805,4.7317,4.6818,4.6818,4.6348,4.6098,4.6685,4.7335,4.7997,4.86,5.0283,5.1804,5.251,5.4762,5.6868,5.8145,6.0496,6.2834,6.478,6.7622,6.9914,7.1173,7.398,7.6237,7.7516,7.7623,0.0,7.9558,7.9993,8.1029,8.2728,8.2806,8.2806,8.2806,8.2806,8.2806,8.2806,8.2806,8.2806,8.2806,8.2806,8.2806,8.2806,0.0,0.0,0.0,8.2806,8.2806,8.2806,8.2806,8.2806,8.2806,8.2806,8.2806,8.2806,0.0,0.0,0.0,0.0,0.0,0.0,0.0,4.2149,4.2799,4.2799,4.3741,4.4413,4.4413,4.4413,4.4413,4.4413,0.0,0.0,0.0,0.0,0.0,0.0,0.0,0.0,0.0,0.0,4.4413,4.4413,4.4413,4.4413,4.4413,4.4413,4.3863,4.2891,4.2705,4.1991,0.0,0.0,0.0,0.0,0.0,0.0,0.0,0.0,0.0,0.0,0.0,0.0,0.0,0.0,0.0,0.0,0.0,0.0,0.0,4.2665,4.4013,4.5327,4.5473,4.5993,4.6487,4.6487,4.6342,4.6185,4.6185,4.6051,4.5935,4.6156,4.7039,4.7852,4.8055,5.0005,5.1804,5.2481,5.4356,5.6302,5.8058,6.0148,6.2354,6.4722,6.8115,7.1121,7.3274,7.4567,7.5857,7.7158,7.7457,7.8194,7.9539,7.9711,8.0567,8.2272,8.2636,8.2806,8.2806,8.2806,8.2806,8.2806,8.2806,8.2806,8.2806,8.2806,8.2806,0.0,0.0,0.0,0.0,8.2806,8.2806,8.2806,8.2806,8.2806,8.2806,8.2806,8.2806,8.2806,0.0,0.0,0.0,0.0,0.0,0.0,0.0,4.2177,4.2776,4.3026,4.3698,4.4271,4.4537,4.4472,4.4413,4.4413,0.0,0.0,0.0,0.0,0.0,0.0,0.0,0.0,0.0,4.4413,4.4413,4.4413,4.4413,4.4413,4.4413,4.4413,4.3891,4.2919,4.2705,4.2019,0.0,0.0,0.0,0.0,0.0,0.0,3.6998,0.0,0.0,0.0,0.0,0.0,0.0,0.0,0.0,0.0,0.0,0.0,0.0,0.0,4.2573,4.3737,4.4275,4.494,4.5529,4.5529,4.5703,4.5906,4.5906,4.5906,4.5906,4.5906,4.6893,4.7805,4.7805,4.9872,5.1804,5.2481,5.4385,5.6361,5.8058,6.0177,6.2761,6.6041,6.8956,7.1713,7.4238,7.4737,7.5426,7.6768,7.7079,7.7766,7.9085,7.9276,8.0074,8.1601,8.2072,8.2331,8.2331,8.2331,8.2331,8.2331,8.2331,8.2408,8.256,8.256,8.2636,0.0,0.0,0.0,0.0,8.2806,8.2806,8.2806,8.2806,8.2806,8.2806,8.2806,8.2806,8.2806,0.0,0.0,0.0,0.0,0.0,0.0,0.0,0.0,4.2549,4.3222,4.3617,4.4072,4.4724,4.4588,4.4436,4.4413,0.0,0.0,0.0,0.0,0.0,0.0,0.0,0.0,0.0,4.4441,4.4469,4.4469,4.4525,4.4525,4.4525,4.4497,4.4132,4.3526,4.2919,4.2261,4.152,0.0,0.0,0.0,3.8169,3.755,0.0,0.0,0.0,0.0,0.0,0.0,0.0,0.0,0.0,0.0,0.0,0.0,0.0,0.0,0.0,0.0,0.0,4.4131,4.4879,4.489,4.5384,4.5906,4.5906,4.5906,0.0,4.5964,4.6951,4.7834,4.7921,4.993,5.1833,5.2539,5.4762,5.6868,5.8203,6.0671,6.398,6.8289,6.9926,7.1713,7.4238,7.4499,7.504,7.6384,7.65,7.7052,7.8262,7.8743,7.9538,8.0747,8.1175,8.1437,8.1495,8.1495,8.1495,8.1495,8.1495,8.1688,8.2053,8.2053,8.2312,0.0,0.0,0.0,0.0,8.275,8.275,8.2769,8.2806,8.2806,8.2806,8.2806,8.2806,8.2806,0.0,0.0,0.0,0.0,0.0,0.0,0.0,0.0,0.0,0.0,4.3862,4.4265,4.4736,4.4751,4.4623,0.0,0.0,0.0,0.0,0.0,0.0,0.0,0.0,0.0,0.0,4.4851,4.5103,4.5103,4.5593,4.5858,4.583,4.534,4.4766,4.416,4.3554,4.2654,4.152,4.0305,0.0,0.0,3.8169,3.755,0.0,0.0,0.0,0.0,3.6998,3.6998,0.0,0.0,0.0,0.0,0.0,0.0,0.0,0.0,4.0986,4.1288,4.1547,0.0,4.4709,4.4846,4.5384,4.5906,0.0,4.5906,4.6022,4.6493,0.0,4.8096,4.9083,5.054,5.1978,5.311,5.5039,5.7028,5.8813,6.2484,6.5967,6.8504,6.9926,7.1713,7.4238,7.4499,7.504,7.6384,7.65,7.683,7.7595,7.8213,7.8891,7.9647,8.0268,8.0883,8.1476,8.1495,8.1495,8.1495,8.1495,8.1534,8.163,8.163,8.1688,0.0,0.0,0.0,8.1823,8.213,8.2244,8.2282,8.2674,8.2806,8.2806,8.2806,8.2806,8.2806,0.0,0.0,0.0,0.0,0.0,0.0,0.0,0.0,0.0,0.0,0.0,0.0,0.0,0.0,0.0,0.0,0.0,0.0,0.0,0.0,0.0,0.0,0.0,4.4795,4.4795,4.5424,4.5761,4.5761,4.6111,4.6307,4.6279,4.593,4.5424,4.4766,4.3891,4.2795,4.1576,4.0912,4.0108,3.9257,3.8629,0.0,0.0,0.0,0.0,0.0,3.6998,3.6998,0.0,3.6998,3.7213,3.7607,0.0,0.0,0.0,0.0,4.0559,4.0862,4.0979,4.2484,4.4022,4.4154,4.4846,4.5572,4.5685,4.5939,4.628,4.672,0.0,4.8508,4.9524,5.0975,5.2484,5.3749,5.5809,5.8247,6.1062,6.4007,6.675,6.9002,7.0117,7.1713,7.4238,7.4499,7.504,7.6384,7.65,7.6743,7.7362,7.803,7.8669,7.9278,7.9946,8.0511,8.0961,8.0961,8.0961,8.0961,8.0961,8.1059,8.1204,8.1204,8.1321,0.0,0.0,0.0,8.1514,8.1727,8.1823,8.1861,8.2302,8.2484,8.2522,8.2731,8.2806,8.2806,0.0,0.0,0.0,0.0,0.0,0.0,0.0,0.0,0.0,0.0,0.0,0.0,0.0,0.0,0.0,0.0,0.0,0.0,0.0,0.0,0.0,0.0,0.0,4.5356,4.544,4.6111,4.6448,4.6448,4.6532,4.656,4.656,4.6476,4.6014,4.5244,4.4132,4.2992,4.1885,4.1688,4.0969,3.9894,3.9286,0.0,0.0,0.0,0.0,0.0,0.0,0.0,0.0,3.6998,3.6998,3.7129,3.7831,0.0,0.0,0.0,0.0,0.0,4.1007,4.2129,4.3198,4.3275,4.4207,4.5173,4.5505,4.6022,4.6569,4.7015,4.7988,4.9054,5.0047,5.1579,5.3171,5.4677,5.7158,6.0104,6.3658,6.5357,6.7099,6.9513,7.0512,7.1916,7.4267,7.4586,7.5156,7.6413,7.65,7.6732,7.7246,7.7885,7.8494,7.8988,7.9743,8.0149,8.0149,8.0236,8.0294,8.0294,8.0294,8.0471,8.0824,8.0824,8.1,8.1301,0.0,0.0,8.1301,8.136,8.1428,8.1437,8.1842,8.1996,8.2053,8.2541,8.2693,8.2712,0.0,0.0,0.0,0.0,0.0,0.0,0.0,0.0,0.0,0.0,0.0,0.0,0.0,0.0,0.0,0.0,0.0,0.0,0.0,0.0,0.0,4.5132,4.5244,4.5565,4.6139,4.6757,4.7054,4.7054,4.7587,4.7828,4.78,4.7307,4.6436,4.5272,4.4582,4.3879,4.3132,4.2053,4.1182,4.0491,3.9883,0.0,0.0,0.0,0.0,0.0,0.0,0.0,0.0,3.6998,3.6998,3.7195,3.8386,0.0,0.0,0.0,0.0,0.0,4.1366,4.2086,4.2805,4.3187,4.4207,4.5269,4.587,4.6082,4.6626,4.8236,4.8735,4.964,5.2128,5.2801,5.3875,5.6449,5.948,6.2296,6.4532,6.6418,6.8148,6.96,7.1266,7.2874,7.4372,7.4993,7.565,7.6442,7.65,7.6529,7.6645,7.7236,7.7595,7.7682,7.8843,7.9452,7.9452,8.0004,8.0294,8.0294,8.0294,8.0334,8.0393,8.0393,8.0432,8.0471,0.0,8.0471,8.0511,8.0864,8.1,8.1039,8.1418,8.1572,8.163,8.2053,8.2187,8.2244,0.0,0.0,0.0,0.0,0.0,0.0,0.0,0.0,0.0,0.0,0.0,0.0,0.0,0.0,0.0,0.0,0.0,0.0,0.0,0.0,4.4834,4.579,4.5846,4.6127,4.6785,4.7391,4.7856,4.8165,4.8445,4.8573,4.8573,4.7644,4.6885,4.6283,4.5312,4.4554,4.3919,4.2654,4.1783,4.1109,0.0,0.0,0.0,0.0,0.0,0.0,0.0,0.0,0.0,0.0,3.6998,3.7167,3.8056,0.0,0.0,0.0,0.0,0.0,4.152,4.2317,4.3228,4.3755,4.4553,4.5324,4.5777,4.6666,4.7681,4.8684,4.9696,5.0893,5.2541,5.3672,5.5347,5.8361,6.1118,6.3423,6.4984,6.7058,6.8857,7.0134,7.1673,7.3106,7.4401,7.5109,7.5766,7.6442,7.65,7.65,7.65,7.7091,7.7391,7.7391,7.832,7.8814,7.8814,7.9133,7.9627,8.0294,8.0294,8.0294,8.0294,8.0294,8.0294,8.0294,0.0,8.0294,8.0314,8.0491,8.057,8.0629,8.1039,8.1195,8.1204,8.1611,8.19,8.213,0.0,0.0,0.0,0.0,0.0,0.0,0.0,0.0,0.0,0.0,0.0,0.0,0.0,0.0,0.0,0.0,0.0,0.0,0.0,0.0,4.4975,4.6251,4.6307,4.6645,4.7391,4.7996,4.8545,4.8994,4.9176,4.9148,4.8994,4.8052,4.7475,4.7138,4.603,4.5188,4.4525,4.3312,4.2441,4.1744,0.0,0.0,0.0,0.0,0.0,0.0,0.0,0.0,0.0,0.0,0.0,0.0,0.0,0.0,0.0,3.9837,4.0772,4.1632,4.1772,4.2767,4.3863,4.4469,4.4963,4.546,4.6115,4.7363,0.0,0.0,0.0,5.2067,5.3201,5.511,5.7478,6.0392,6.2399,6.4136,6.5705,6.755,6.9251,7.0494,7.2,7.3317,7.4302,7.5188,7.5959,7.6471,7.65,7.65,7.65,7.6946,7.7188,7.7188,7.7827,7.8175,7.8175,7.832,7.8901,7.9859,7.9859,7.9859,7.9859,7.9859,7.9917,8.0062,8.0062,8.0149,8.0294,8.0294,8.0294,8.0334,8.0648,8.0824,8.0942,8.1253,8.1592,8.1957,0.0,0.0,0.0,0.0,0.0,0.0,0.0,0.0,0.0,0.0,0.0,0.0,0.0,0.0,0.0,0.0,0.0,0.0,0.0,0.0,4.4975,4.6251,4.6307,4.6841,4.7996,4.8629,4.8966,4.8994,4.9636,4.9608,4.8994,4.891,4.8277,4.7166,4.6504,4.5846,4.516,4.3947,4.3087,4.2469,4.1755,0.0,0.0,0.0,0.0,0.0,0.0,0.0,0.0,0.0,0.0,0.0,0.0,0.0,3.9866,4.0473,4.1081,4.1744,4.2357,4.3413,4.4469,4.5075,4.5272,4.5749,4.7544,4.8021,0.0,5.111,0.0,0.0,0.0,5.7986,6.0506,6.2476,6.3406,6.472,6.7193,6.8142,6.9092,7.0361,7.2517,7.3935,7.4021,7.5482,7.6442,7.65,7.65,7.65,7.65,7.6529,7.6558,7.6558,7.713,7.7478,7.7478,7.8088,7.8465,7.8553,7.8553,7.8553,7.8553,7.8553,7.8843,7.9365,7.9365,7.9714,8.0294,8.0294,8.0294,8.0294,8.0334,8.057,8.0903,8.0942,8.1214,8.1534,0.0,0.0,0.0,0.0,0.0,0.0,0.0,0.0,0.0,0.0,0.0,0.0,0.0,0.0,0.0,0.0,0.0,0.0,0.0,4.4413,4.4975,4.6251,4.6307,4.6869,4.808,4.8685,4.9204,4.9636,5.024,5.0423,5.0157,4.9372,4.877,4.8277,4.7307,4.6504,4.5846,4.4593,4.3722,4.3059,4.2025,4.1323,0.0,0.0,0.0,0.0,0.0,0.0,0.0,0.0,3.8319,3.8629,3.9247,3.9613,3.9996,4.0969,4.1727,4.2441,4.3441,4.4329,4.53,4.6704,4.7041,0.0,0.0,4.9301,5.0775,5.2096,5.3276,0.0,0.0,5.9808,6.1666,6.2769,6.4609,6.6282,6.7248,6.8778,7.01,7.0956,7.2578,7.3768,7.415,7.5095,7.5707,7.5707,7.5707,7.5707,7.5707,7.5707,7.5707,7.5707,7.5918,7.6166,7.6385,7.6664,7.6941,7.7236,7.8001,7.8407,7.8407,7.8407,7.8524,7.8727,7.8727,7.9104,7.9685,7.9685,7.9917,8.0294,8.0294,8.0393,8.053,8.053,8.0785,8.1137,0.0,0.0,0.0,0.0,0.0,0.0,0.0,0.0,0.0,0.0,0.0,0.0,0.0,0.0,0.0,0.0,0.0,0.0,4.4076,4.4301,4.4975,4.6251,4.6307,4.6869,4.808,4.8685,4.9329,5.0,5.0802,5.1083,5.0886,5.0016,4.9372,4.8966,4.794,4.7138,4.6504,4.5228,4.4329,4.3694,4.2615,4.1969,0.0,0.0,0.0,0.0,0.0,0.0,0.0,0.0,3.9032,3.9257,3.9669,3.9939,4.0277,4.1295,4.2064,4.2862,4.4076,4.5132,4.6255,4.7715,4.8698,4.9329,4.9526,5.0859,5.2377,5.3388,5.5243,0.0,0.0,0.0,0.0,6.3881,6.5723,6.7223,6.7817,6.9343,7.0651,7.1258,7.2599,7.3652,7.406,7.4783,7.5211,7.5211,7.5211,7.5211,7.5211,7.5211,7.5211,7.5211,7.5211,7.5316,7.5621,7.5621,7.5773,7.6105,7.6981,7.7549,7.7817,7.7817,7.7885,7.8088,7.8088,7.8436,7.9017,7.922,7.9685,8.0294,8.0294,8.0294,8.0294,8.0294,8.0471,8.0707,0.0,0.0,0.0,0.0,0.0,0.0,0.0,0.0,0.0,0.0,0.0,0.0,0.0,0.0,0.0,0.0,0.0,0.0,4.3497,4.4048,4.4975,4.6235,4.6307,4.6869,4.808,4.8685,4.9329,5.0,5.1224,5.1491,5.0914,5.0886,5.0213,4.8994,4.8389,4.7771,4.711,4.5834,4.4963,4.4357,4.375,4.2739,4.1632,0.0,0.0,0.0,0.0,0.0,0.0,0.0,3.9303,3.9809,3.9809,4.022,4.0828,4.1435,4.2093,4.2891,4.4076,4.579,4.7363,4.7968,4.9975,5.1969,5.2574,5.2742,5.3276,5.5159,5.7519,5.9807,6.1661,6.2532,0.0,6.6202,6.6613,6.7287,6.9152,6.9939,7.051,7.1156,7.2688,7.3718,7.3718,7.4611,7.5211,7.5211,7.5211,7.5211,7.5211,7.5211,7.5211,7.5211,7.5211,7.5211,7.5211,7.5211,7.5211,7.5211,7.5211,7.564,7.65,7.65,7.683,7.7391,7.7391,7.7769,7.8436,7.9046,7.9685,8.0294,8.0294,8.0294,8.0294,8.0294,8.0294,8.0294,0.0,0.0,0.0,0.0,0.0,0.0,0.0,0.0,0.0,0.0,0.0,0.0,0.0,0.0,0.0,0.0,0.0,0.0,4.3469,4.4048,4.475,4.5565,4.6055,4.6673,4.7447,4.8933,5.0015,5.0633,5.1407,5.1716,5.1519,5.1111,5.0465,4.9664,4.9007,4.8165,4.7138,4.6351,4.5621,4.4935,4.3919,4.3273,4.2851,0.0,0.0,0.0,0.0,0.0,0.0,0.0,0.0,0.0,4.0445,4.0856,4.1463,4.2121,4.3059,4.4144,4.5408,4.6773,4.8205,4.9679,5.0929,5.2306,5.4231,5.4681,0.0,0.0,6.0088,6.1954,6.2532,6.4218,0.0,6.6483,6.7691,6.8899,6.9911,7.0538,7.1325,7.2411,7.2976,7.3428,7.3879,7.4173,7.4363,7.4363,7.4363,7.4363,7.4363,7.4363,7.4363,7.4363,7.4363,7.4499,7.4779,7.4779,7.4914,7.5211,7.5211,7.5469,7.6,7.6,7.6286,7.6772,7.6772,7.712,7.7769,7.8843,7.9423,7.9627,8.012,8.0294,8.0294,8.0294,8.0294,8.0294,0.0,0.0,0.0,0.0,0.0,0.0,0.0,0.0,0.0,0.0,4.0943,4.0916,0.0,0.0,0.0,0.0,0.0,0.0,0.0,4.3722,4.4413,4.5272,4.593,4.6701,4.7531,4.8893,4.9764,5.0157,5.1266,5.18,5.18,5.1435,5.0802,4.9972,4.958,4.8711,4.7531,4.6926,4.6307,4.5621,4.4621,4.385,4.3264,0.0,0.0,0.0,0.0,0.0,0.0,0.0,0.0,0.0,4.0687,4.1022,4.1496,4.2389,4.3327,4.4415,4.5933,4.7293,4.874,5.0614,5.2027,5.3613,5.6367,5.6985,5.7672,6.0173,6.1842,6.3206,6.419,6.5583,0.0,6.7578,6.8646,6.9686,7.0538,7.1184,7.1971,7.2973,7.3311,7.36,7.3966,7.3994,7.3994,7.3994,7.3994,7.3994,7.3994,7.3994,7.3994,7.3994,7.3994,7.413,7.4354,7.4354,7.4499,7.4731,7.4731,7.4914,7.5335,7.5488,7.5792,7.6227,7.6425,7.683,7.7449,7.8233,7.8843,7.9336,7.9743,8.0062,8.0294,8.0294,8.0294,8.0294,0.0,0.0,3.8165,3.8165,0.0,0.0,0.0,0.0,0.0,0.0,4.0611,4.0894,0.0,0.0,0.0,0.0,0.0,0.0,0.0,0.0,4.4003,4.516,4.5902,4.6841,4.7996,4.8657,4.8994,4.8994,5.0831,5.1716,5.1716,5.1772,5.1195,5.0084,5.0028,4.9327,4.8137,4.7475,4.6873,4.6271,4.5557,4.4437,4.3211,4.3099,0.0,0.0,0.0,0.0,0.0,0.0,0.0,0.0,4.0824,4.1018,4.1283,4.2435,4.3263,4.4185,4.5977,4.7551,4.9095,5.0973,5.3176,5.5604,5.855,5.9351,6.0125,6.2431,6.3077,6.3937,6.6173,6.6753,6.741,6.9142,6.9489,6.9967,7.1128,7.185,7.2496,7.3114,7.3657,7.3994,7.3994,7.3994,7.3994,7.3994,7.3994,7.3994,7.3994,7.3994,7.3994,7.3994,7.3994,7.3994,7.3994,7.3994,7.3994,7.3994,7.3994,7.4188,7.4567,7.4952,7.5354,7.5773,7.6256,7.6744,7.7247,7.7372,7.8088,7.9133,7.9191,7.9627,8.0207,8.0207,8.0236,8.0294,0.0,0.0,3.7967,3.7967,0.0,0.0,0.0,0.0,0.0,0.0,0.0,0.0,0.0,0.0,0.0,0.0,0.0,0.0,0.0,0.0,4.3835,4.4554,4.5689,4.6645,4.7391,4.8445,4.8994,4.8994,5.041,5.1083,5.1111,5.1576,5.1407,5.0689,5.0225,4.9552,4.8742,4.7672,4.6986,4.6616,4.5499,4.4717,4.4092,4.3152,4.2675,0.0,0.0,0.0,0.0,0.0,0.0,0.0,4.1564,4.1922,4.2474,4.318,4.4225,4.5382,4.6735,4.8017,4.9412,5.1252,5.423,5.7129,5.8737,6.0461,6.1922,6.2747,6.4442,6.5977,6.6483,6.7803,6.8927,6.9321,7.0192,7.1072,7.1878,7.2524,7.3142,7.3713,7.3909,7.3994,7.3994,7.3994,7.3994,7.3994,7.3994,7.3994,7.3994,7.3994,7.3994,7.3994,7.3994,7.3994,7.3994,7.3994,7.3994,7.3994,7.3994,7.4052,7.4149,7.4548,7.4952,7.5335,7.5773,7.6001,7.6193,7.7055,7.7566,7.7856,7.8407,7.8959,7.9511,7.9511,7.9859,8.0294,0.0,0.0,0.0,0.0,0.0,0.0,0.0,0.0,0.0,0.0,0.0,0.0,0.0,0.0,0.0,0.0,0.0,0.0,0.0,0.0,4.361,4.4766,4.5481,4.6239,4.7166,4.7828,4.8277,4.8573,4.9526,5.0297,5.0914,5.1224,5.1195,5.0858,5.0281,4.9636,4.8925,4.7885,4.7199,4.6726,4.5974,4.5308,4.4691,4.3757,4.3328,4.3122,4.2234,0.0,0.0,0.0,0.0,0.0,0.0,0.0,4.2535,4.3423,4.4354,4.5435,4.6927,4.8321,5.0023,5.2809,5.5421,5.7701,5.9192,6.1093,6.2691,6.3156,6.5033,6.6809,6.7399,6.8552,6.9489,6.977,7.0595,7.1437,7.2102,7.2721,7.3339,7.3937,7.3994,7.3994,7.3994,7.3994,7.3994,7.3994,7.3994,7.3994,7.3994,7.3994,7.3994,7.3994,7.3994,7.3994,7.3994,7.3994,7.3994,7.3994,7.3994,7.3994,7.4013,7.4412,7.4702,7.4933,7.5335,7.5621,7.5859,7.6385,7.694,7.7449,7.7798,7.832,7.8901,7.9191,7.9511,7.9859,0.0,0.0,0.0,0.0,0.0,0.0,0.0,0.0,0.0,0.0,0.0,0.0,0.0,0.0,0.0,0.0,0.0,0.0,0.0,0.0,0.0,4.5075,4.5244,4.5777,4.6857,4.7082,4.7447,4.794,4.8545,4.9441,5.0564,5.0689,5.0802,5.0886,5.0215,4.9614,4.9016,4.817,4.7402,4.6782,4.6457,4.5873,4.5128,4.4526,4.4157,4.3808,4.2819,4.2412,4.2222,4.1722,0.0,0.0,0.0,0.0,4.2521,4.3618,4.4378,4.5234,4.7052,4.8723,5.0816,5.4354,5.6273,5.772,5.9428,6.1345,6.2894,6.3397,6.523,6.7046,6.8101,6.894,6.9622,7.0109,7.0866,7.1569,7.2102,7.2805,7.3432,7.3937,7.3994,7.3994,7.3994,7.3994,7.3994,7.3994,7.3994,7.3994,7.3994,7.3994,7.3994,7.3994,7.3994,7.3994,7.3994,7.3994,7.3994,7.3994,7.3994,7.3994,7.4013,7.4335,7.449,7.4509,7.4914,7.5278,7.5602,7.5678,7.6261,7.7132,7.7132,7.7595,7.8291,7.8785,7.9046,7.9249,0.0,0.0,0.0,0.0,0.0,0.0,0.0,0.0,0.0,0.0,3.9416,4.0024,0.0,4.0688,4.0688,4.0688,4.0688,4.0969,4.1576,0.0,0.0,4.4497,4.5019,4.5384,4.5553,4.6632,4.725,4.7307,4.7912,4.8573,0.0,0.0,5.0393,5.0873,4.9989,4.9521,4.9383,4.8508,4.7651,4.6853,4.6293,4.584,4.5461,4.4851,4.4608,4.4556,4.4393,4.3998,4.3549,4.3468,4.3075,0.0,0.0,0.0,4.3673,4.4366,4.5017,4.5858,4.7622,4.9766,5.2022,5.4093,5.5931,5.7536,5.8826,6.1149,6.3069,6.3152,6.5319,6.7238,6.7423,6.867,6.97,6.9756,7.1062,7.2102,7.2206,7.317,7.3909,7.3994,7.3994,7.3994,7.3994,7.3994,7.3994,7.3994,7.3994,7.3994,7.3994,7.3994,7.3994,7.3994,7.3994,7.3994,7.3994,7.3994,7.3994,7.3994,7.3994,7.3994,7.3994,7.4052,7.4072,7.4111,7.4509,7.4721,7.4799,7.5125,7.5564,7.6002,7.6002,7.6634,7.7537,7.7624,7.803,7.8611,0.0,0.0,0.0,0.0,0.0,0.0,0.0,0.0,0.0,0.0,0.0,3.9641,4.0603,4.0688,4.0688,4.0688,4.0688,4.0969,4.1576,4.2497,4.3284,4.3863,4.4469,4.4935,4.53,4.5834,4.6492,4.7194,4.7475,0.0,0.0,4.8576,4.94,0.0,0.0,4.9584,4.9701,4.8866,4.8266,4.7859,4.7427,4.6968,4.6536,4.5925,4.5491,4.5153,0.0,0.0,0.0,0.0,0.0,4.3904,4.3904,0.0,0.0,0.0,4.5627,4.6631,4.9046,5.0714,5.2329,5.446,5.5871,5.7092,5.8639,6.0457,6.1993,6.2639,6.4281,6.5975,6.7102,6.8429,6.9372,6.9372,7.055,7.1567,7.1825,7.2906,7.374,7.3955,7.3994,7.3994,7.3994,7.3994,7.3994,7.3994,7.3994,7.3994,7.3994,7.3994,7.3994,7.3994,7.3994,7.3994,7.3994,7.3994,7.3994,7.3994,7.3994,7.3994,7.3994,7.3994,7.3994,7.4013,7.4188,7.4374,7.4606,7.4779,7.5106,7.5488,7.5716,7.6098,7.6576,7.718,7.7595,7.7943,0.0,0.0,0.0,0.0,0.0,0.0,0.0,0.0,0.0,0.0,0.0,3.9528,4.0575,0.0,0.0,0.0,4.0688,4.0969,4.1576,4.2244,4.2862,4.3469,4.4076,4.461,4.5047,4.5184,4.5765,4.683,4.6948,0.0,4.7583,4.7583,4.835,0.0,4.945,4.9453,0.0,0.0,0.0,0.0,4.8301,4.7961,4.7554,4.7093,0.0,4.6211,4.5737,0.0,0.0,0.0,0.0,0.0,0.0,4.4827,0.0,0.0,0.0,4.7473,4.9983,5.1216,5.2341,5.4607,5.5735,5.6766,5.8585,5.9931,6.1125,6.2267,6.3478,6.4818,6.6469,6.7836,6.8765,6.893,6.9935,7.0798,7.1153,7.2248,7.3136,7.3574,7.3753,7.3877,7.3974,7.3994,7.3994,7.3994,7.3994,7.3994,7.3994,7.3994,7.3994,7.3994,7.3994,7.3994,7.3994,7.3853,7.3685,7.3544,7.3544,7.3544,7.3544,7.3544,7.3544,7.3544,7.3881,7.4169,7.4432,7.4432,7.4683,7.5067,7.5374,7.5621,7.5907,7.672,7.7064,7.7246,0.0,0.0,0.0,0.0,0.0,0.0,0.0,0.0,0.0,0.0,0.0,3.9996,4.0631,4.0688,4.0688,4.0688,4.0688,4.0969,4.1576,4.2244,4.2862,4.3469,4.4076,0.0,4.4441,4.4833,4.5287,4.5863,4.6251,0.0,4.7313,4.7313,4.753,4.7953,4.8501,4.8748,4.8789,0.0,0.0,0.0,0.0,4.8178,4.8151,0.0,0.0,0.0,0.0,0.0,0.0,0.0,0.0,0.0,0.0,0.0,0.0,0.0,0.0,0.0,4.9697,5.0918,5.2247,5.4095,5.5425,5.6766,5.8585,5.9931,6.1125,6.2267,6.3478,6.4518,6.5179,6.661,6.7883,6.8459,6.9386,7.0067,7.0086,7.1136,7.2066,7.2523,7.3064,7.3583,7.3955,7.3994,7.3994,7.3994,7.3994,7.3994,7.3994,7.3994,7.3994,7.3994,7.3994,7.3994,7.3994,7.3432,7.2861,7.229,7.229,7.229,7.229,7.229,7.229,7.2355,7.3488,7.4013,7.4033,7.4033,7.4285,7.4625,7.4664,7.5144,7.5811,7.5859,7.6171,7.6645,0.0,0.0,0.0,0.0,0.0,0.0,0.0,0.0,0.0,0.0,0.0,0.0,0.0,4.0688,4.0688,4.0688,4.1053,4.1379,4.1604,4.2598,4.3204,4.3228,4.3831,4.4056,4.3887,4.4014,4.4394,4.5016,4.557,4.6039,4.648,4.6864,4.7023,4.702,4.8189,4.879,4.8981,4.9468,0.0,0.0,0.0,0.0,0.0,0.0,0.0,0.0,0.0,0.0,0.0,0.0,0.0,0.0,0.0,0.0,0.0,0.0,4.8273,4.9032,5.024,5.1189,5.2124,5.3565,5.484,5.6115,5.7526,5.8791,5.9985,6.1162,6.2312,6.3451,6.4446,6.605,6.7286,6.7504,6.8482,6.9302,6.9571,7.0324,7.1002,7.1476,7.1729,7.2023,7.241,7.2448,7.2564,7.2814,7.2833,7.2833,7.2833,7.2833,7.2833,7.2833,7.2833,7.2833,7.2833,7.2636,7.2411,7.2206,7.2206,7.2206,7.2206,7.2206,7.2206,7.2234,7.2664,7.3058,7.3423,7.3423,7.3725,7.4247,7.449,7.4779,7.5106,7.5621,7.5906,7.6105,0.0,0.0,0.0,0.0,0.0,3.7185,0.0,0.0,0.0,0.0,0.0,0.0,0.0,0.0,4.1081,4.1317,4.1622,4.1791,4.1791,4.2692,4.3152,4.2979,4.3534,4.3768,4.3586,4.3531,4.381,4.4483,4.4978,4.546,4.5897,4.647,4.6679,4.6563,4.7918,4.8641,0.0,0.0,0.0,5.0308,0.0,0.0,5.0009,0.0,0.0,0.0,0.0,0.0,0.0,0.0,0.0,0.0,0.0,0.0,0.0,0.0,0.0,4.9304,5.0335,5.1189,5.2043,5.3034,5.4216,5.5464,5.6891,5.7814,5.8856,6.0464,6.1407,6.2284,6.3478,6.4997,6.6237,6.6625,6.7539,6.8306,6.8574,6.9295,6.9962,7.0415,7.0647,7.0931,7.1364,7.1403,7.1518,7.1786,7.192,0.0,7.1996,7.213,7.2206,7.2206,7.2206,7.2074,7.1878,7.185,7.1765,7.1569,7.1569,7.1569,7.1569,7.1569,7.1569,7.1569,7.1569,7.2018,7.2805,7.2805,7.3142,7.3723,7.3995,7.4301,7.4664,7.5202,7.5583,7.5849,0.0,3.6604,3.6998,3.6998,3.7026,3.7241,3.7831,0.0,0.0,0.0,0.0,0.0,0.0,0.0,0.0,4.2514,4.2351,4.2204,4.2204,4.2546,4.2727,4.2727,4.3287,4.3602,4.3563,4.3391,4.3572,4.4166,4.4506,4.499,4.56,4.621,4.6509,4.659,4.7704,4.8205,4.8314,0.0,5.0363,5.0905,0.0,5.1271,5.1799,0.0,0.0,0.0,5.1853,5.1853,0.0,0.0,0.0,0.0,0.0,0.0,0.0,0.0,0.0,0.0,0.0,0.0,0.0,5.2519,5.3592,5.4964,5.6755,5.7163,5.7868,6.023,6.0762,6.1125,6.224,6.3424,6.459,6.5811,6.6543,6.695,6.695,6.7973,6.888,6.9266,6.9844,7.0403,7.0857,7.0943,7.0943,7.0943,7.1309,7.1539,7.1539,7.1902,7.2131,7.2131,7.2131,7.1821,7.1184,7.1184,7.0875,7.0304,7.0304,7.0304,7.0304,7.0304,7.0304,7.0304,7.0304,7.1007,7.215,7.2159,7.2524,7.3086,7.3086,7.3702,7.4558,7.4606,7.5106,7.5773,3.6548,3.6885,3.6998,3.6998,3.7354,3.786,3.8516,0.0,0.0,0.0,0.0,0.0,0.0,4.1591,4.1812,4.2017,4.2364,4.2567,4.2567,4.3046,4.3298,4.3132,4.3297,4.3295,4.3103,4.303,4.3103,4.3254,4.424,4.48,4.4963,4.6007,4.6726,4.716,4.7907,4.8449,4.8924,5.0131,0.0,0.0,5.1379,5.1636,0.0,0.0,0.0,0.0,0.0,5.3103,0.0,0.0,5.2085,5.184,0.0,0.0,0.0,0.0,0.0,0.0,4.9941,0.0,0.0,0.0,0.0,0.0,5.5681,5.6577,5.7515,5.8618,5.9524,6.0392,6.1125,6.1868,6.2583,6.3379,6.5087,6.6354,6.6354,6.6625,6.7061,6.761,6.7819,6.8263,6.9121,6.9187,6.9301,0.0,6.9719,6.9776,6.9776,7.0154,7.0511,7.0819,7.0838,7.0754,7.0538,7.0538,7.0473,7.0304,7.0304,7.0304,7.0304,7.0304,7.0304,7.0304,7.0304,7.0501,7.0866,7.1316,7.185,7.2496,7.2917,7.3275,7.3588,7.432,7.4741,7.5029,3.6801,3.6998,3.7073,3.7325,3.7653,3.8185,0.0,0.0,0.0,0.0,0.0,0.0,0.0,0.0,4.3042,4.3291,4.3554,4.3698,4.3698,4.3943,4.3889,4.3509,4.3509,4.3327,4.2913,4.2913,4.2913,0.0,4.4122,4.4719,4.4746,0.0,0.0,0.0,4.7961,4.8666,0.0,0.0,0.0,0.0,5.222,0.0,0.0,5.3604,5.3821,0.0,0.0,0.0,5.4297,5.3929,5.3404,0.0,0.0,0.0,0.0,0.0,0.0,0.0,0.0,0.0,0.0,0.0,0.0,0.0,5.4894,5.5573,5.6375,5.7504,5.8275,5.9035,5.9904,6.0528,6.1081,6.1688,6.3153,6.4482,6.5241,6.5567,6.5947,6.6543,6.6625,6.6855,6.7426,6.7737,6.7968,6.8214,6.8604,6.892,6.909,6.9484,6.9821,7.0044,7.0211,7.0304,7.0304,7.0304,7.0304,7.0304,7.0304,7.0304,7.0304,7.0304,7.0304,7.0304,7.0304,7.0304,7.0332,7.0679,7.1184,7.185,7.2468,7.2889,7.3189,7.406,7.4451,7.4664,0.0,3.692,3.7116,3.7724,3.7892,3.827,0.0,0.0,0.0,0.0,4.1513,4.2416,4.3629,4.4211,4.4722,4.5285,4.5169,4.5056,4.5056,4.4817,4.4447,4.3929,4.3902,4.3658,4.3103,0.0,0.0,0.0,0.0,0.0,0.0,0.0,0.0,0.0,4.7988,4.8924,5.0158,0.0,0.0,5.2097,5.3239,5.4053,0.0,0.0,5.5584,0.0,5.5747,5.5801,5.5774,5.5591,5.4545,0.0,0.0,0.0,0.0,0.0,5.1127,0.0,0.0,0.0,0.0,0.0,0.0,0.0,5.4367,5.4503,5.4964,5.6647,5.7,5.738,5.8585,5.9236,5.9822,6.0474,6.1017,6.1959,6.3831,6.4554,6.5124,6.573,6.5865,6.5947,6.6001,6.6543,6.6896,6.6896,6.78,6.8507,6.8904,6.9335,6.9615,6.9709,7.0044,7.0248,7.0304,7.0304,7.0304,7.0304,7.0304,7.0304,7.0304,7.0304,7.0304,7.0304,7.0304,7.0304,7.0304,7.0304,7.0623,7.1156,7.1821,7.2468,7.3086,7.3685,7.4171,7.4548,3.6395,3.6506,3.67,3.73,3.7826,0.0,0.0,0.0,0.0,0.0,4.2069,4.342,0.0,0.0,0.0,4.4843,4.4792,4.4767,4.4767,4.4744,4.4664,4.4529,4.4529,4.4474,4.4339,0.0,0.0,0.0,0.0,0.0,0.0,0.0,0.0,0.0,4.8151,4.9141,5.077,0.0,0.0,5.332,5.4041,0.0,5.534,5.6441,5.6864,5.6973,5.796,5.8313,5.8101,0.0,5.5703,5.4688,0.0,0.0,0.0,0.0,0.0,0.0,0.0,0.0,0.0,0.0,0.0,0.0,5.4367,5.4503,5.4747,5.5573,5.5747,5.6115,5.7325,5.7651,5.8085,5.9182,5.9426,6.0277,6.2538,6.2945,6.3243,6.3858,6.4346,6.4853,6.5341,6.5919,6.6272,6.6272,6.689,6.747,6.7885,6.8418,6.9033,6.969,6.9784,6.997,7.0304,7.0304,7.0304,7.0304,7.0304,7.0304,7.0304,7.0304,7.0304,7.0304,7.0304,7.0304,7.0304,7.0304,7.0388,7.0538,7.1156,7.1793,7.244,7.3058,7.363,7.4169,3.6312,3.6653,3.704,3.7648,0.0,0.0,0.0,0.0,0.0,4.182,4.3373,4.4759,0.0,0.0,0.0,4.6429,4.6456,4.6456,0.0,0.0,4.6198,4.5614,4.56,4.5316,0.0,0.0,0.0,0.0,0.0,0.0,0.0,0.0,0.0,0.0,0.0,0.0,0.0,0.0,5.3387,5.4514,5.484,0.0,5.6387,5.7298,5.7841,5.8194,5.8774,5.8875,5.855,5.7564,5.6628,0.0,0.0,5.4239,5.3356,0.0,5.2478,5.1933,0.0,0.0,0.0,5.2857,0.0,0.0,0.0,5.4068,5.4231,5.4813,5.4948,5.522,5.6142,5.6305,5.6604,5.7499,5.7662,5.8286,6.005,6.082,6.1525,6.2393,6.2773,6.3197,6.3776,6.44,6.4997,6.5594,6.6218,6.6637,6.6844,6.7623,6.8253,6.862,6.9336,6.9802,7.0007,7.0193,7.0304,7.0304,7.0304,7.0304,7.0304,7.0304,7.0304,7.0304,7.0304,7.0304,7.0304,7.0304,7.0304,7.036,7.096,7.1625,7.229,7.2889,7.346,7.4033,3.6276,3.6754,3.7359,3.7954,0.0,0.0,0.0,0.0,4.2136,4.3426,4.4867,4.6034,0.0,0.0,0.0,0.0,0.0,4.8558,0.0,0.0,0.0,0.0,4.6903,4.6374,0.0,0.0,0.0,0.0,0.0,0.0,0.0,0.0,0.0,0.0,0.0,0.0,0.0,0.0,0.0,5.5474,0.0,5.6323,5.7461,5.8319,5.8877,5.9254,5.9413,5.9196,5.8795,5.8345,0.0,5.6786,5.619,5.5332,0.0,0.0,0.0,0.0,0.0,0.0,0.0,0.0,0.0,5.3516,0.0,0.0,0.0,5.4231,5.434,5.453,5.5138,5.5231,5.5421,5.6034,5.6142,5.6468,5.7434,5.8411,5.9534,6.0945,6.1189,6.1443,6.1941,6.2637,6.3505,6.4609,6.535,6.5757,6.5757,6.6753,6.7396,6.758,6.8779,6.9495,6.9709,7.01,7.0304,7.0304,7.0304,7.0304,7.0304,7.0304,7.0304,7.0304,7.0304,7.0304,7.0304,7.0304,7.0304,7.036,7.0847,7.1512,7.2262,7.2749,7.3395,7.3994,3.577,3.627,3.6868,3.7472,0.0,0.0,0.0,0.0,4.3547,4.5803,4.6264,4.6821,0.0,0.0,0.0,0.0,0.0,0.0,4.9806,0.0,0.0,0.0,0.0,0.0,4.7799,0.0,0.0,0.0,0.0,0.0,0.0,0.0,0.0,0.0,4.9697,0.0,0.0,0.0,5.4395,0.0,5.6257,5.7087,0.0,5.9867,6.0306,6.0177,6.0873,6.0864,6.0444,0.0,5.9034,5.8183,0.0,5.6666,0.0,0.0,0.0,0.0,0.0,0.0,0.0,0.0,5.3524,0.0,0.0,0.0,5.3619,5.3673,0.0,5.389,5.4503,0.0,0.0,5.5394,5.5503,5.5557,5.5692,5.5828,5.675,5.9019,5.9751,6.0121,6.0202,6.1162,6.2067,6.2755,6.3858,6.4509,6.4509,6.5631,6.666,6.7553,6.8084,6.8799,6.9709,7.01,7.0304,7.0304,7.0304,7.0304,7.0304,7.0304,7.0304,7.0304,7.0304,7.0304,7.0304,7.0304,7.0304,7.0304,7.0388,7.1147,7.2206,7.229,7.303,7.3994,3.6296,3.6703,3.7317,3.7913,0.0,0.0,0.0,0.0,4.5368,4.6373,4.769,0.0,0.0,0.0,0.0,0.0,0.0,0.0,0.0,0.0,0.0,0.0,0.0,0.0,0.0,0.0,0.0,0.0,4.7082,0.0,0.0,0.0,0.0,0.0,5.0102,0.0,5.2339,0.0,5.4787,0.0,0.0,0.0,0.0,5.9805,6.0425,6.0927,6.1013,6.0938,6.0722,0.0,5.9807,0.0,0.0,0.0,0.0,0.0,0.0,0.0,0.0,0.0,0.0,0.0,0.0,0.0,0.0,0.0,5.3592,0.0,0.0,0.0,0.0,0.0,0.0,0.0,5.329,5.3426,5.3794,5.3821,5.4716,5.7146,5.7977,5.8628,5.9317,6.0131,6.0864,6.1461,6.2275,6.3044,6.3749,6.459,6.5415,6.618,6.7147,6.805,6.8826,6.9457,6.9939,7.0304,7.0304,7.0304,7.0304,7.0304,7.0304,7.0304,7.0304,7.0304,7.0304,7.0304,7.0304,7.0332,7.0679,7.14,7.2206,7.2206,7.2973,7.3994,3.6948,0.0,0.0,0.0,0.0,0.0,0.0,0.0,0.0,0.0,0.0,0.0,5.0443,5.1534,0.0,0.0,0.0,5.3141,0.0,0.0,5.2133,0.0,0.0,0.0,0.0,0.0,0.0,0.0,0.0,0.0,0.0,0.0,0.0,0.0,0.0,5.1842,5.2702,0.0,0.0,5.6322,5.8075,5.9359,6.027,6.0359,6.1049,6.1916,6.169,6.1595,6.1558,6.1255,6.0953,0.0,5.9725,0.0,0.0,0.0,0.0,0.0,5.5647,0.0,0.0,0.0,0.0,0.0,0.0,0.0,0.0,0.0,0.0,0.0,0.0,0.0,0.0,0.0,0.0,5.1934,5.2383,5.2464,5.3278,5.5545,5.6332,5.7135,5.815,5.8818,5.9415,6.0029,6.0881,6.1759,6.2655,6.3559,6.4337,6.4934,6.6331,6.7424,6.8197,6.8992,6.9686,7.0304,7.0304,7.0304,7.0304,7.0304,7.0304,7.0304,7.0304,7.0304,7.0304,7.0304,7.0304,7.036,7.096,7.1625,7.2234,7.2383,7.3114,7.3994,3.7552,3.8059,0.0,0.0,0.0,0.0,0.0,0.0,0.0,0.0,0.0,0.0,0.0,0.0,0.0,0.0,0.0,5.424,5.424,0.0,5.3325,0.0,0.0,0.0,0.0,0.0,0.0,0.0,0.0,0.0,0.0,0.0,0.0,0.0,0.0,5.2569,5.2755,5.5076,5.6193,5.6556,5.827,6.0173,6.1962,0.0,6.279,6.3351,6.3531,0.0,0.0,6.3587,6.2854,0.0,0.0,0.0,0.0,0.0,0.0,0.0,0.0,0.0,0.0,5.5452,0.0,0.0,0.0,0.0,5.382,0.0,0.0,0.0,0.0,0.0,0.0,0.0,0.0,0.0,0.0,5.1826,5.2519,5.434,5.5084,5.5692,5.6332,5.6929,5.7543,5.8129,5.9839,6.0844,6.0898,6.2492,6.3722,6.431,6.57,6.7009,6.8197,6.8992,6.9686,7.0304,7.0304,7.0304,7.0304,7.0304,7.0304,7.0304,7.0304,7.0304,7.0304,7.0304,7.0304,7.036,7.096,7.1625,7.229,7.2861,7.346,7.3994,0.0,0.0,0.0,0.0,0.0,0.0,0.0,4.6904,0.0,0.0,0.0,0.0,0.0,0.0,5.4895,0.0,0.0,5.6099,5.6099,5.5689,0.0,0.0,0.0,5.3196,0.0,0.0,0.0,0.0,0.0,0.0,0.0,0.0,0.0,0.0,0.0,5.2397,0.0,0.0,0.0,0.0,0.0,6.1614,6.2548,0.0,0.0,6.3621,6.3697,6.3691,0.0,6.3691,6.343,6.2985,6.2227,6.1704,6.1163,5.9968,5.908,0.0,0.0,0.0,5.6178,5.5861,0.0,0.0,0.0,0.0,0.0,0.0,0.0,0.0,0.0,0.0,0.0,0.0,0.0,0.0,0.0,5.0945,5.1448,5.2045,5.3347,5.446,5.5045,5.5654,5.6414,5.7434,5.8058,5.9117,6.0708,6.137,6.2302,6.3668,6.4675,6.5784,6.7009,6.8182,6.9114,6.9714,7.0107,7.0304,7.0304,7.0304,7.0304,7.0304,7.0304,7.0304,7.0332,7.0735,7.0904,7.0988,7.2055,7.2608,7.2833,7.303,7.346,7.3994,3.9456,0.0,0.0,0.0,0.0,0.0,0.0,0.0,0.0,0.0,5.2055,0.0,5.4471,0.0,5.6381,0.0,5.7412,5.7545,5.7545,5.733,0.0,5.6369,5.5556,0.0,0.0,0.0,0.0,0.0,0.0,5.0707,0.0,0.0,0.0,0.0,0.0,5.3086,5.4079,5.5229,5.6588,0.0,0.0,6.2548,0.0,0.0,6.3959,6.4319,0.0,6.4737,6.4894,6.4685,6.4475,6.4136,6.3194,6.2776,6.2358,6.1189,6.0326,5.9647,5.921,5.827,0.0,5.6911,5.6402,0.0,5.5004,0.0,0.0,0.0,0.0,0.0,0.0,0.0,0.0,0.0,0.0,0.0,0.0,5.0335,5.058,5.058,5.1991,5.3103,5.351,5.4297,5.5084,5.5844,5.6701,5.7868,5.9459,6.0328,6.1315,6.2438,6.3868,6.5084,6.6061,6.7697,6.8805,6.9423,7.0023,7.0304,7.0304,7.0304,7.0304,7.0304,7.0304,7.0416,7.0651,7.1044,7.1353,7.1681,7.2692,7.3114,7.3142,7.3339,7.3657,7.3994,3.9718,0.0,0.0,0.0,4.4171,0.0,0.0,0.0,5.0108,0.0,5.3217,5.455,5.5203,5.6789,5.7826,5.7852,5.834,0.0,5.8662,5.8636,0.0,0.0,5.7242,5.6667,5.6023,0.0,0.0,0.0,0.0,0.0,0.0,0.0,0.0,0.0,5.3739,0.0,5.5177,5.6379,5.7564,5.8871,6.1155,6.3071,6.4619,6.5214,6.5495,6.56,6.6149,6.6672,6.7038,6.6515,6.5966,6.5391,6.475,6.4175,6.356,6.241,6.2044,6.1756,6.0614,5.9446,5.8583,5.8531,0.0,0.0,0.0,0.0,5.5238,0.0,0.0,0.0,0.0,0.0,0.0,0.0,0.0,0.0,0.0,0.0,0.0,0.0,5.1012,5.1717,5.1744,5.2817,5.3537,5.3592,5.5724,5.7081,0.0,5.9361,6.0681,6.0817,6.3226,6.4825,6.5461,6.7463,6.8749,6.9367,6.9967,7.0276,7.0304,7.0304,7.0304,7.0304,7.0332,7.0651,7.1213,7.1269,7.1662,7.2318,7.2917,7.3142,7.3226,7.3797,7.3994,7.3994,4.1532,4.2801,4.42,0.0,4.5871,4.6789,0.0,0.0,0.0,0.0,5.4654,5.604,5.746,5.8766,5.9751,6.0195,6.0744,0.0,0.0,0.0,0.0,6.0248,5.9272,5.8462,5.7852,5.6719,0.0,5.4654,0.0,0.0,5.2929,0.0,0.0,0.0,0.0,0.0,5.5229,5.7225,5.9228,6.1233,6.2671,6.4031,0.0,0.0,6.6593,6.7279,6.6997,6.6971,6.707,6.6959,6.6802,6.6489,6.5475,6.5057,6.4737,6.3587,6.2645,6.1913,6.1626,6.0666,5.9655,5.9272,5.8601,5.7878,0.0,0.0,0.0,0.0,0.0,0.0,0.0,0.0,0.0,0.0,0.0,0.0,0.0,0.0,0.0,4.9996,0.0,5.0647,5.1095,5.1813,5.2627,5.3537,5.4162,5.5317,5.7108,5.7787,5.8943,6.0735,6.2385,6.3774,6.4825,6.6774,6.8084,6.8749,6.9339,6.9854,7.0304,7.0304,7.0304,7.0332,7.0763,7.1072,7.1269,7.2224,7.2721,7.2917,7.3516,7.3769,7.3797,7.3937,7.3994,7.3994,4.2944,4.4357,0.0,4.7036,0.0,0.0,4.9703,0.0,0.0,5.4733,5.617,0.0,5.908,6.03,6.1215,6.1797,6.2626,0.0,0.0,0.0,0.0,6.1876,6.098,6.0266,5.9655,5.8523,0.0,5.6588,0.0,0.0,5.4889,0.0,0.0,0.0,0.0,5.6118,5.6745,5.9045,6.0927,6.2469,6.3874,0.0,0.0,6.6724,6.7436,6.7985,6.7886,6.7839,6.7828,6.7566,6.7488,6.7352,6.6436,6.5992,6.5626,6.4711,6.3803,6.3045,6.2802,6.1887,6.0901,6.0606,5.9882,5.9028,5.8227,5.7294,5.6458,0.0,0.0,0.0,0.0,0.0,0.0,0.0,0.0,0.0,0.0,0.0,0.0,0.0,4.9996,5.0131,5.0471,5.1054,5.1813,5.2736,5.3293,5.4406,0.0,5.6918,5.8058,5.9958,6.1561,6.3,6.4189,6.6131,6.7596,6.8496,6.9114,6.9714,7.0304,7.0304,7.0445,7.0707,7.1044,7.1522,7.2083,7.2805,7.3254,7.3516,7.3881,7.3994,7.3994,7.3994,7.3994,7.3994,4.4301,0.0,0.0,0.0,0.0,0.0,0.0,5.2682,0.0,5.604,0.0,5.9237,6.0308,6.1652,6.2645,6.3104,0.0,6.4645,6.4188,6.4534,6.4306,6.3313,6.2652,6.2044,6.1458,6.0318,0.0,0.0,0.0,0.0,0.0,0.0,0.0,0.0,0.0,0.0,0.0,6.1129,6.241,6.3156,6.4743,6.5809,6.6515,6.7592,6.8037,6.8168,6.8722,6.8858,6.8727,6.8272,6.8089,6.7985,6.743,6.6907,6.641,6.5809,6.5162,6.4515,6.4057,6.309,6.2201,6.2122,6.1267,6.0151,5.908,5.8662,5.8217,5.7225,5.6118,5.5365,0.0,0.0,0.0,0.0,0.0,0.0,0.0,0.0,0.0,0.0,0.0,0.0,4.9996,5.0471,5.1027,5.1636,5.2736,0.0,0.0,0.0,5.7553,5.8829,6.0764,6.2392,6.3692,0.0,6.7175,6.8496,6.903,6.963,7.0304,7.0304,7.0623,7.1213,7.1297,7.1999,7.3114,7.3198,7.3516,7.3994,7.3994,7.3994,7.3994,7.3994,7.3994,7.3994,0.0,0.0,0.0,0.0,0.0,5.2446,5.3892,5.4879,5.6092,5.7826,5.955,6.0909,6.1599,6.356,6.4842,6.4946,6.5972,0.0,0.0,0.0,0.0,6.5704,6.4645,6.3829,6.3273,6.2122,6.1024,0.0,0.0,0.0,0.0,0.0,0.0,5.7564,5.8,5.9385,6.1416,6.1827,0.0,6.426,6.5083,6.6044,6.7038,6.7744,6.8272,6.8727,6.9323,6.9218,6.8779,6.8675,6.8649,6.8544,6.8011,6.7796,6.7566,6.6985,6.605,6.5214,6.5129,6.4266,6.3273,6.2764,6.2156,6.1495,6.0804,5.9524,5.8453,5.8244,5.7294,5.624,5.5365,0.0,0.0,0.0,0.0,0.0,0.0,0.0,0.0,0.0,0.0,4.9996,0.0,5.0104,5.0417,5.1014,0.0,0.0,0.0,0.0,5.6495,0.0,6.0149,0.0,0.0,0.0,6.6753,6.8496,6.8608,6.9226,7.0304,7.0304,7.0623,7.1241,7.1793,7.244,7.3142,7.3628,7.3909,7.3994,7.3994,7.3994,7.3994,7.3994,7.3994,7.3994,0.0,0.0,0.0,0.0,0.0,0.0,0.0,5.6954,0.0,5.9071,6.0415,6.1759,6.2962,6.4333,6.5373,6.5968,6.6816,6.7307,6.7261,6.7049,6.679,6.648,6.5327,0.0,6.3919,0.0,6.2037,6.0881,0.0,0.0,0.0,0.0,0.0,5.8435,5.9526,6.0761,0.0,0.0,0.0,6.5057,6.594,6.6802,6.7645,6.8554,6.9056,6.9349,6.9945,6.9997,6.9689,6.9375,6.927,6.9166,6.8591,6.822,6.7932,6.7665,6.6959,6.6227,6.594,6.5234,6.4449,6.3835,6.328,6.2645,6.1782,6.0901,6.0143,5.9498,5.8479,5.7215,5.5647,5.4853,0.0,0.0,0.0,0.0,0.0,0.0,0.0,0.0,0.0,0.0,0.0,0.0,0.0,0.0,0.0,0.0,0.0,0.0,5.6224,0.0,0.0,0.0,0.0,0.0,0.0,6.8496,6.8496,6.9142,7.0304,7.0304,7.0838,7.1737,7.2046,7.2721,7.3572,7.3881,7.3994,7.3994,7.3994,7.3994,7.3994,7.3994,7.3994,7.3994,0.0,5.0946,0.0,0.0,5.4031,0.0,5.6785,5.8646,5.9978,6.0148,6.1268,6.2676,6.4284,6.5032,6.5851,6.6871,6.7485,6.7818,6.775,6.7818,6.7613,6.7152,6.6056,6.5237,6.4842,6.4002,6.306,0.0,0.0,0.0,0.0,0.0,0.0,0.0,0.0,0.0,0.0,0.0,6.4813,6.5582,6.6577,6.7357,6.8029,6.9149,6.9614,6.9818,7.0503,7.0755,7.0703,7.0206,6.9971,6.9788,6.9192,6.8696,6.8324,6.822,6.7749,6.7221,6.6776,6.6149,6.5443,6.4828,6.4273,6.3613,6.2593,6.2148,6.173,6.0771,5.9472,5.8035,5.6602,5.6187,0.0,0.0,0.0,0.0,0.0,0.0,0.0,0.0,0.0,0.0,0.0,0.0,0.0,0.0,0.0,0.0,5.3347,0.0,0.0,0.0,0.0,6.1131,6.3692,0.0,6.5953,6.8496,6.8496,6.9142,7.0304,7.0445,7.1119,7.2206,7.2327,7.3002,7.3994,7.3994,7.3994,7.3994,7.3994,7.3994,7.3994,7.3994,7.3994,7.3994,0.0,0.0,0.0,0.0,0.0,0.0,5.8259,5.9498,6.0512,6.1249,6.2804,6.4289,6.5426,6.6568,6.7485,6.8079,6.8638,6.8945,6.8924,6.8945,6.892,6.8868,6.7818,6.725,6.7199,6.557,6.4443,0.0,0.0,0.0,0.0,0.0,0.0,0.0,0.0,0.0,0.0,6.4071,6.4759,6.5806,6.6427,6.6997,6.765,6.8666,6.9406,7.0015,7.097,7.133,7.133,7.1252,7.0912,7.0415,6.9814,6.9579,6.9422,6.8905,6.833,6.788,6.7854,6.7064,6.607,6.5469,6.4874,6.428,6.3691,6.2724,6.1965,6.1861,6.0039,5.8533,5.8648,5.7257,5.615,0.0,0.0,0.0,0.0,0.0,0.0,0.0,0.0,0.0,0.0,5.0824,0.0,0.0,5.1461,0.0,0.0,0.0,0.0,5.7244,0.0,6.088,6.3664,6.4055,6.5674,6.8496,6.8496,6.9142,7.0332,7.0875,7.1493,7.2234,7.2777,7.3395,7.3994,7.3994,7.3994,7.3994,7.3994,7.3994,7.3994,7.3994,7.3994,7.3994,0.0,0.0,0.0,0.0,0.0,0.0,0.0,6.1115,6.227,6.3604,6.4399,6.5108,6.5871,6.698,6.7913,6.8426,6.8957,6.9286,6.9286,6.9286,6.9134,6.8827,6.8068,6.7533,6.7226,6.6145,6.5361,0.0,0.0,0.0,0.0,0.0,0.0,0.0,0.0,6.3628,6.4597,6.497,6.5765,6.6841,6.7045,6.7665,6.8531,6.9316,6.9762,7.0067,7.0827,7.11,7.1144,7.1429,7.1301,7.099,7.0415,6.9971,6.9657,6.9401,6.8931,6.8408,6.8089,6.7665,6.7116,6.6175,6.5763,6.5345,6.4384,6.3809,6.3306,6.2626,6.117,5.9769,5.8883,5.8444,5.7773,0.0,0.0,0.0,0.0,0.0,0.0,0.0,0.0,0.0,0.0,0.0,0.0,0.0,0.0,0.0,0.0,0.0,0.0,5.7694,0.0,6.0746,6.3299,6.3899,6.5534,6.8152,6.8387,6.9142,7.0332,7.0932,7.1746,7.2777,7.3395,7.3769,7.3994,7.3994,7.3994,7.3994,7.3994,7.3994,7.3994,7.3994,7.3994,7.3994,5.5157,0.0,5.6595,0.0,5.8956,5.996,6.1441,6.2727,6.4007,6.5358,6.5961,6.6413,6.6793,6.7671,6.8475,6.9049,6.9579,6.9905,6.9905,6.9905,6.973,6.9351,6.865,0.0,6.7719,6.699,6.6262,6.5534,6.4781,0.0,0.0,0.0,0.0,0.0,6.3594,6.4265,6.5071,6.5652,6.6462,6.7379,6.7511,6.8147,6.8991,6.96,6.9899,7.0122,7.0709,7.0882,7.0948,7.1259,7.1331,7.1196,7.093,7.0546,7.0128,6.9788,6.9401,6.8957,6.8403,6.8115,6.7822,6.7012,6.6672,6.628,6.5246,6.4881,6.4384,6.3078,6.2032,6.0909,5.9524,5.936,5.8916,5.7387,0.0,0.0,0.0,0.0,0.0,0.0,0.0,5.2329,5.2329,5.2151,0.0,0.0,0.0,0.0,0.0,0.0,0.0,0.0,0.0,0.0,0.0,6.3605,6.5165,6.7734,6.8134,6.896,7.0147,7.1091,7.2187,7.3395,7.3825,7.3994,7.3994,7.3994,7.3994,7.3994,7.3994,7.3994,7.3994,7.3994,7.3994,7.3994,5.6778,5.7455,5.8202,5.9282,6.0431,6.1517,6.2626,6.4203,6.5459,6.6036,6.7521,6.855,6.8575,6.9055,6.9629,7.025,7.078,7.1081,7.1081,7.1081,7.1081,0.0,0.0,6.9381,6.9356,6.8324,6.7216,6.609,0.0,0.0,6.4496,0.0,6.4471,6.4471,6.4496,6.4798,6.5329,6.586,6.646,6.7059,6.759,6.812,6.8667,6.9134,6.9686,7.0257,7.0726,7.0882,7.0882,7.0904,7.0904,7.0956,7.1283,7.1382,7.1147,7.0023,6.9684,6.9553,6.8936,6.8408,6.8005,6.7958,6.7514,6.6959,6.641,6.5809,6.49,6.3156,6.2365,6.1809,6.117,5.9943,5.9131,5.949,0.0,0.0,0.0,0.0,0.0,0.0,5.4324,5.3565,5.3565,5.3034,0.0,0.0,0.0,0.0,0.0,0.0,0.0,5.8047,5.8682,0.0,6.3082,6.3099,6.4528,6.7331,6.7734,6.8529,6.9755,7.1427,7.2861,7.3994,7.3994,7.3994,7.3994,7.3994,7.3994,7.3994,7.3994,7.3994,7.3994,7.3994,7.3994,7.3994,5.8102,5.8738,5.9664,6.1457,6.2049,6.2797,6.4279,6.5283,6.6187,6.7141,6.8374,6.9303,6.9725,6.9926,7.0252,0.0,7.1357,7.1485,0.0,7.1435,7.1485,7.1131,7.0757,7.038,7.0026,6.9278,6.8525,6.7797,0.0,0.0,0.0,6.5785,6.581,6.6208,6.6208,6.651,6.7015,6.7191,6.7593,6.812,6.8274,6.8675,6.9152,6.931,6.9752,7.0226,6.9983,7.0129,7.0472,7.0429,7.0414,7.05,7.092,7.1003,7.0919,7.0878,7.0311,6.9657,6.9474,6.8983,6.846,6.8089,6.7874,6.7561,6.6985,6.6097,6.5129,6.4149,6.3208,6.2365,6.1835,6.1259,6.0478,5.9378,5.9272,0.0,0.0,0.0,0.0,0.0,5.5573,5.4824,0.0,5.4662,0.0,0.0,0.0,0.0,0.0,0.0,0.0,0.0,5.9714,0.0,6.2678,6.3779,6.518,6.6908,6.7727,6.8937,7.0543,7.1482,7.2548,7.3583,7.3583,7.374,7.3994,7.3994,7.3994,7.3994,7.3994,7.3994,7.3994,7.3994,7.3994,7.3994,5.9341,5.9974,6.0846,6.2348,6.3111,6.3858,6.49,6.5897,6.6909,6.7985,6.8907,6.9801,7.0782,7.0905,0.0,7.1359,7.1887,7.2062,7.1736,7.2012,7.2039,7.1711,7.151,7.1234,7.0905,0.0,0.0,6.8901,6.817,6.7618,6.7288,6.6915,6.694,6.7314,6.7314,6.7467,6.7819,6.802,6.8399,6.8926,6.915,6.9577,7.0031,7.0031,7.028,7.0554,7.0156,7.028,7.0549,7.0314,7.025,7.0267,7.0557,7.0584,7.0556,7.0787,7.0503,6.9977,6.956,6.9275,6.9009,6.8434,6.8304,6.8089,6.7279,6.641,6.5501,6.4672,6.3921,6.3208,6.2443,6.2022,6.143,6.0195,6.019,6.0013,5.9185,0.0,0.0,0.0,0.0,0.0,0.0,5.6224,5.617,0.0,0.0,0.0,0.0,0.0,0.0,5.9632,6.0392,0.0,6.2809,6.4055,6.5273,6.6482,6.7933,6.9426,7.0931,7.1512,7.2304,7.3122,7.3122,7.328,7.3496,7.3496,7.3496,7.3516,7.372,7.3759,7.3779,7.3935,7.3994,7.3994,6.0425,6.1108,6.1763,0.0,6.37,0.0,6.4806,6.6179,6.7565,6.8515,6.9154,7.0107,7.1623,7.182,7.1845,7.1845,0.0,0.0,0.0,7.2717,7.2717,7.2717,7.2215,7.1937,7.1912,7.141,7.0631,6.9506,6.8522,6.802,6.802,6.802,6.802,6.802,6.802,6.802,6.807,6.855,6.9077,6.9556,7.0127,7.0654,7.1106,7.1106,7.1131,7.1156,7.1131,7.1131,7.1081,7.0529,7.035,7.0293,7.0216,7.0196,7.0133,7.009,7.0324,7.0412,6.942,6.9376,6.9511,6.8988,6.8832,6.8492,6.741,6.675,6.6044,6.4855,6.4567,6.4182,6.3111,6.2443,6.1992,6.1759,6.1092,6.0518,6.0297,0.0,0.0,0.0,0.0,0.0,0.0,5.7651,5.7543,0.0,0.0,0.0,0.0,0.0,5.8465,6.0735,6.0925,6.1777,6.3451,6.4102,6.5051,6.6299,6.843,6.9936,7.0909,7.1497,7.2096,7.266,7.266,7.266,7.2699,7.2699,7.2699,7.2739,7.3162,7.3347,7.3406,7.3779,7.3916,7.3916,0.0,0.0,6.2583,6.3906,6.4462,6.4978,6.5791,6.6671,6.7404,6.7989,6.8969,6.9877,7.0687,7.1131,7.1353,7.1353,7.2167,7.2717,7.2717,7.2717,7.2717,7.2717,7.2591,7.2315,7.1912,7.1786,7.1384,7.0706,7.043,7.0328,7.0328,7.0328,7.0328,7.0328,7.0328,7.0328,7.0328,7.0455,7.0581,7.0706,7.0855,7.0981,7.1106,7.1106,7.1334,7.1661,7.1257,7.1359,7.1636,7.1106,7.0629,7.0298,7.0286,6.9959,6.9741,7.0461,7.0439,7.0182,7.0269,6.9738,6.9213,6.9442,6.914,6.8623,6.7932,6.7331,6.6704,6.6024,6.5142,6.4417,6.4156,6.3287,6.2462,6.2018,6.1643,6.1339,6.1149,6.0539,0.0,0.0,5.9442,5.8791,5.8791,5.8666,5.8639,0.0,0.0,0.0,0.0,6.0094,6.0219,6.079,6.2085,6.3207,6.4075,6.5133,6.6516,6.8182,6.9156,6.9988,7.0686,7.1305,7.182,7.2229,7.2229,7.2429,7.2699,7.2699,7.2699,7.2719,7.2818,7.2885,7.2885,7.2957,7.3024,7.3024,6.1528,6.2272,6.3135,6.4248,6.4827,6.5362,6.5946,6.6723,6.7521,6.8241,6.9095,6.9947,7.0677,7.102,7.129,7.1536,7.2066,7.2378,7.2378,7.2841,7.3111,7.3111,7.335,7.3219,7.269,7.2665,7.2288,7.146,7.1232,7.1106,7.1106,7.1106,7.1106,7.1106,7.1106,7.1106,7.1106,7.1106,7.1234,7.146,7.146,7.161,7.1836,7.1836,7.2012,7.2215,7.1937,7.2037,7.2164,7.1636,7.1259,7.0956,7.0428,7.0076,6.9843,7.0132,7.0165,7.0082,7.0069,6.9774,6.9438,6.939,6.9097,6.8649,6.8115,6.777,6.7299,6.6463,6.5789,6.5142,6.46,6.3973,6.3391,6.2854,6.2363,6.2019,6.1922,6.139,0.0,6.1291,6.0879,6.0603,6.0603,6.0603,6.0603,6.0603,6.0603,0.0,6.1542,6.1841,6.1976,6.1976,6.3153,6.4102,6.4717,6.5911,6.7295,6.8807,6.9411,7.0036,7.0605,7.1222,7.1615,7.1836,7.1836,7.1957,7.2149,7.2149,7.2149,7.2169,7.2349,7.2429,7.2449,7.262,7.2699,7.2699,6.26,6.3083,6.3636,6.4237,6.5079,6.5751,6.5919,6.6713,6.7695,6.8772,6.9281,6.9934,7.0879,7.1049,7.127,7.1736,7.1932,7.2054,7.2126,7.2959,7.3499,7.3499,7.3913,7.3955,7.348,7.3576,7.3073,7.2045,7.1662,7.1433,7.1334,7.1334,7.1334,7.1334,7.1334,7.1334,7.1334,7.1334,7.161,7.2037,7.2037,7.229,7.2717,7.2717,7.2717,7.2717,7.2717,7.2717,7.2641,7.2164,7.1987,7.1736,7.083,7.0451,7.0202,6.9679,6.9794,6.9977,6.9565,6.9643,6.9742,6.9136,6.8845,6.8591,6.8199,6.8063,6.7744,6.675,6.641,6.5972,6.4959,6.46,6.4358,6.3881,6.318,6.267,6.2647,0.0,6.2006,6.2033,6.2255,6.244,6.2493,6.2511,6.2511,6.2511,6.2511,6.2592,6.2755,6.3261,6.3614,6.3804,6.421,6.4771,6.545,6.6671,6.7838,6.8942,6.9547,7.0144,7.0741,7.1277,7.1494,7.1494,7.1494,7.1494,7.1494,7.1494,7.1494,7.1534,7.1876,7.2017,7.2057,7.2409,7.2501,7.2501,6.3107,6.3612,6.4285,6.5294,6.5582,6.6015,6.6905,6.7193,6.7698,6.8756,6.8973,6.9238,6.9865,7.0348,7.0638,7.071,7.1579,7.2242,7.2667,7.2814,7.2912,7.2912,7.2986,7.301,7.2936,7.3375,7.3295,7.2672,7.3028,7.2941,7.2441,7.2441,7.2441,7.2441,7.2441,7.2441,7.2441,7.2441,7.2491,7.2566,7.2566,7.2641,7.2717,7.2717,7.2717,7.2717,7.2717,7.2717,7.2692,7.2616,7.2265,7.1887,7.1711,7.1031,7.03,7.0177,6.9848,6.9606,6.9954,6.9687,6.9276,6.9033,6.8634,6.8366,6.8618,6.833,6.7953,6.7749,6.6985,6.6253,6.607,6.5194,6.4469,6.4384,6.3867,6.3438,6.328,0.0,6.2457,6.2641,6.2283,6.213,6.2476,6.2511,6.2511,6.2511,6.2511,6.2945,6.3966,6.4102,6.4617,6.5648,6.5287,6.5585,6.6725,6.7938,6.8869,6.9574,7.0171,7.0768,7.1358,7.1467,7.1494,7.1494,7.1494,7.1494,7.1494,7.1494,7.1494,7.1514,7.1575,7.1595,7.1595,7.1655,7.1695,7.1695,6.3708,6.4405,6.5125,6.5606,6.6183,6.6713,6.7241,6.7794,6.8324,6.8829,6.9142,6.9526,7.0055,7.0369,7.0729,7.1307,7.1788,7.2302,7.2777,7.3077,7.3227,7.3227,7.3525,7.3551,7.3232,7.3183,7.3058,7.2811,7.3054,7.3027,7.273,7.273,7.273,7.273,7.273,7.2899,7.3188,7.3188,7.3332,7.3595,7.3294,7.3168,7.3167,7.2817,7.2717,7.2717,7.2717,7.2717,7.2717,7.2717,7.2541,7.2265,7.1987,7.1359,7.0679,7.0378,6.9878,6.9451,6.9699,6.9517,6.9152,6.8829,6.8673,6.8608,6.8486,6.843,6.8356,6.8063,6.7587,6.7116,6.6802,6.605,6.5475,6.5475,6.4717,0.0,0.0,6.3693,6.3578,6.3883,6.3893,6.4008,6.44,6.4436,6.4436,6.4436,6.4436,6.468,6.5241,6.5268,6.5675,6.6571,6.6318,6.6752,6.7946,6.8535,6.9268,7.0198,7.047,7.0904,7.1494,7.1494,7.1494,7.1494,7.1494,7.1494,7.1494,7.1494,7.1494,7.1494,7.1494,7.1494,7.1494,7.1494,7.1494,7.1548,6.4429,6.5127,6.5751,6.5871,6.6664,6.7337,6.7482,6.83,6.8949,6.9069,6.943,6.9887,7.0441,7.0609,7.1066,7.203,7.2197,7.2413,7.2797,7.3202,7.3404,7.3404,7.3859,7.3889,7.3423,7.3132,7.2912,7.2814,7.2912,7.2913,7.279,7.279,7.279,7.279,7.279,7.3035,7.3426,7.3426,7.3645,7.4009,7.3705,7.3602,7.3552,7.3094,7.2917,7.2892,7.2767,7.2717,7.2717,7.2717,7.2717,7.2641,7.2238,7.1711,7.1182,7.0629,6.9978,6.9406,6.9406,6.9273,6.9077,6.8757,6.8687,6.8625,6.8424,6.8533,6.855,6.8251,6.8089,6.7874,6.7383,6.6855,6.6489,6.6489,0.0,0.0,0.0,6.4499,6.4445,6.4733,6.5124,6.552,6.5914,6.6053,6.6109,6.6109,6.6109,6.6164,6.6299,6.6326,6.6652,6.7403,6.7431,6.7865,6.878,6.9078,6.9675,7.0605,7.0741,7.106,7.1494,7.1494,7.1494,7.1494,7.1494,7.1494,7.1494,7.1494,7.1494,7.1494,7.1494,7.1575,7.1711,7.1711,7.1792,7.1982,6.539,6.5654,6.5871,6.6352,6.6928,6.7482,6.7987,6.854,6.9069,6.9574,6.9671,6.9887,7.0441,7.0946,7.1475,7.2054,7.2484,7.2773,7.2821,7.2846,7.2872,7.2872,7.2899,7.2899,7.285,7.3307,7.3292,7.2805,7.3303,7.3281,7.279,7.279,7.279,7.279,7.279,7.2814,7.2839,7.2839,7.2863,7.2961,7.3425,7.3595,7.3594,7.3528,7.3519,7.3468,7.2892,7.2717,7.2717,7.2717,7.2717,7.2692,7.2666,7.2265,7.1736,7.1207,7.0257,6.9406,6.9406,6.9027,6.8756,6.915,6.8467,6.791,6.8762,6.8587,6.8324,6.867,6.835,6.8005,6.7932,6.7436,6.7038,6.7038,0.0,0.0,6.5417,6.4842,6.4448,6.4346,6.4687,6.5105,6.552,6.5877,6.6109,6.6109,6.6109,6.6354,6.6896,6.6923,6.7458,6.8617,6.8671,6.8698,6.8807,6.992,7.0497,7.0605,7.1168,7.1467,7.1494,7.1494,7.1494,7.1494,7.1494,7.1494,7.1494,7.1494,7.1494,7.1494,7.1494,7.1847,7.2329,7.2329,7.2688,7.3183,6.5102,6.5529,6.6028,6.6834,6.7434,6.7987,6.8516,6.9045,6.9478,6.9671,6.9983,7.0417,7.0946,7.1475,7.2004,7.2484,7.2701,7.2821,7.2821,7.2821,7.2821,7.2821,7.2821,7.2821,7.2821,7.2999,7.3004,7.2786,7.2988,7.2992,7.2798,7.2798,7.2798,7.2798,7.2798,7.2974,7.3323,7.3323,7.3523,7.3847,7.3676,7.3799,7.4043,7.374,7.3582,7.3569,7.3343,7.3018,7.2717,7.2717,7.2717,7.2717,7.2717,7.2315,7.1736,7.0855,7.0302,6.9878,6.9481,6.9255,6.9049,6.8899,6.8761,6.8663,6.8677,6.8682,6.8737,6.8906,6.8717,6.8513,6.8513,6.8037,6.7665,6.7665,0.0,6.6724,6.6489,6.6259,6.619,6.6378,6.6252,6.6405,6.7037,6.6953,6.709,6.7737,6.7756,6.8055,6.8632,6.8659,6.8876,6.933,6.971,6.992,6.992,7.0361,7.0795,7.1168,7.1385,7.1494,7.1494,7.1494,7.1494,7.1494,7.1494,7.1494,7.1521,7.1901,7.2037,7.2111,7.2471,7.277,7.296,7.296,7.3102,7.3346,6.4879,6.5422,6.6084,6.6912,6.7654,6.8301,6.8829,6.9358,6.9695,6.9695,7.0176,7.0705,7.1235,7.1764,7.2293,7.2773,7.2821,7.2821,7.2821,7.2821,7.2821,7.2821,7.2821,7.2821,7.2821,7.2821,7.2821,7.2821,7.2821,7.2821,7.2821,7.2821,7.2821,7.2821,7.2821,7.2999,7.3354,7.3354,7.3581,7.3935,7.3694,7.3821,7.412,7.3921,7.3865,7.3829,7.3672,7.3343,7.2943,7.2767,7.2717,7.2717,7.2717,7.2315,7.1761,7.1031,7.0554,7.0202,6.9803,6.9554,6.9306,6.8929,6.8971,6.9033,6.8807,6.8797,6.8948,6.9226,6.9057,6.892,6.9046,6.8617,6.8246,6.8246,6.7749,6.7378,6.7378,6.7221,6.7197,6.7481,6.73,6.7383,6.7912,6.7879,6.8119,6.8817,6.8981,6.9249,6.9663,6.99,6.9981,6.9981,7.0578,7.0877,7.0877,7.0877,7.1087,7.1494,7.1494,7.1494,7.1494,7.1494,7.1494,7.1494,7.1494,7.1602,7.1792,7.2247,7.2519,7.2715,7.3129,7.3427,7.3563,7.3563,7.3699,7.3889,6.4883,6.5424,6.5966,6.6512,6.7415,6.8274,6.8805,6.9358,6.9695,6.9695,7.0152,7.0705,7.1235,7.1764,7.2293,7.2773,7.2821,7.2821,7.2821,7.2821,7.2821,7.2821,7.2821,7.2821,7.2821,7.2821,7.2821,7.2821,7.2821,7.2821,7.2821,7.2821,7.2821,7.2821,7.2821,7.2821,7.2821,7.2821,7.2821,7.2846,7.3379,7.3606,7.3659,7.4194,7.4391,7.4341,7.3803,7.3594,7.3519,7.2892,7.2717,7.2717,7.2717,7.2315,7.1912,7.1912,7.1156,7.0325,7.03,6.9853,6.9406,6.9406,6.8979,6.8734,6.9201,6.888,6.8758,6.9717,6.942,6.9154,6.9625,6.9218,6.8805,6.8805,6.8377,6.8031,6.8031,6.7488,6.7096,6.7096,6.7467,6.7709,6.7709,6.8493,6.8991,6.9011,6.9454,6.969,6.969,7.028,7.0605,7.0605,7.1195,7.1494,7.1494,7.1494,7.1494,7.1494,7.1494,7.1494,7.1494,7.1494,7.1494,7.1521,7.1521,7.1847,7.241,7.241,7.277,7.3319,7.3319,7.3672,7.4208,7.4208,7.454,7.5007,6.4388,6.4902,6.5512,6.6438,6.7122,6.7713,6.8263,6.8795,6.9278,6.9659,7.0482,7.1259,7.1788,7.2317,7.2653,7.2797,7.2821,7.2821,7.2821,7.2821,7.2821,7.2821,7.2821,7.2821,7.2821,7.2821,7.2821,7.2821,7.2821,7.2821,7.2821,7.2821,7.2821,7.2821,7.2821,7.2821,7.2821,7.2821,7.2821,7.2797,7.2973,7.3278,7.3607,7.3788,7.4069,7.4341,7.3791,7.3608,7.3519,7.2892,7.2717,7.2717,7.2717,7.2591,7.239,7.2012,7.1686,7.1282,7.0503,7.0177,6.9928,6.9506,6.928,6.92,6.9335,6.9219,6.9234,6.9849,6.9777,6.9755,7.0252,6.984,6.9448,6.9448,6.8931,6.8565,6.8565,6.8408,6.8304,6.8304,6.8061,6.803,6.829,6.8163,6.8512,6.9535,7.0474,7.0978,7.0978,7.1141,7.1222,7.1222,7.1412,7.1494,7.1494,7.1494,7.1494,7.1494,7.1494,7.1494,7.1494,7.1494,7.1738,7.2138,7.2138,7.2471,7.3068,7.3502,7.3774,7.3964,7.435,7.4621,7.4757,7.4757,7.4844,7.5007,6.4191,6.4678,6.5355,6.6424,6.6987,6.7481,6.8007,6.8374,6.876,6.9306,7.0324,7.12,7.1677,7.2382,7.2821,7.2821,7.2821,7.2821,7.2821,7.2821,7.2821,7.2821,7.2821,7.2821,7.2821,7.2821,7.2821,7.2821,7.2821,7.2821,7.2821,7.2821,7.2821,7.2821,7.2821,7.2821,7.2821,7.2821,7.2821,7.2821,7.2821,7.2999,7.3303,7.3531,7.3814,7.407,7.3946,7.3791,7.3532,7.3196,7.2892,7.2717,7.2717,7.2717,7.2641,7.2315,7.2087,7.1761,7.1106,7.0604,7.0202,6.9853,6.9579,6.9406,6.9406,6.9355,6.9485,6.9996,6.9999,7.007,7.0546,7.0313,7.0049,7.0049,6.9741,6.9506,6.9506,6.9506,6.9427,6.9192,6.8873,6.8663,6.8675,6.8518,6.8934,7.0153,7.0853,7.1312,7.1474,7.1494,7.1494,7.1494,7.1494,7.1494,7.1494,7.1494,7.1494,7.1494,7.1494,7.163,7.1847,7.1847,7.2172,7.277,7.277,7.3095,7.3672,7.4045,7.4344,7.454,7.4872,7.5007,7.5007,7.5007,7.5007,7.5007,6.4199,6.468,6.5331,6.633,6.6938,6.7387,6.7882,6.8027,6.8288,6.883,6.9823,7.0671,7.1144,7.2103,7.2745,7.2745,7.2746,7.2821,7.2821,7.2821,7.2821,7.2821,7.2869,7.2868,7.2868,7.2821,7.2821,7.2821,7.2821,7.2821,7.2821,7.2821,7.2821,7.2821,7.2821,7.2821,7.2821,7.2821,7.2821,7.2821,7.2821,7.2821,7.2872,7.3354,7.3556,7.366,7.4095,7.3995,7.3669,7.3627,7.3217,7.2717,7.2717,7.2717,7.2717,7.2717,7.234,7.1962,7.1912,7.1207,7.0426,7.0325,6.9878,6.9456,6.9406,6.9406,6.9564,7.0078,7.0143,7.02,7.0678,7.0715,7.0677,7.0677,7.0624,7.0598,7.0598,7.0598,7.0389,6.984,6.9788,6.9579,6.9014,6.9374,6.9995,7.0776,7.0919,7.1143,7.1576,7.1636,7.1657,7.1657,7.1657,7.1657,7.1657,7.1657,7.163,7.1575,7.1575,7.1901,7.2491,7.2491,7.2797,7.3373,7.3373,7.3699,7.429,7.429,7.4567,7.5007,7.5007,7.5007,7.5007,7.5007,7.5007,7.5007,6.4199,6.468,6.5209,6.5862,6.6368,6.6714,6.6838,6.7561,6.8303,6.8816,6.9785,7.0607,7.1126,7.1778,7.2182,7.2182,7.2567,7.2821,7.2821,7.2821,7.2821,7.2821,7.3204,7.3445,7.3445,7.3012,7.2821,7.2821,7.2821,7.2821,7.2821,7.2821,7.2821,7.2821,7.2821,7.2821,7.2821,7.2821,7.2821,7.2821,7.2821,7.2821,7.2797,7.2948,7.3227,7.3559,7.3249,7.3601,7.4142,7.3752,7.3217,7.2717,7.2717,7.2717,7.2717,7.2717,7.2616,7.2441,7.2012,7.1736,7.1334,7.0526,7.0202,6.9978,6.9506,6.9406,6.9564,7.0078,7.0471,7.0835,7.1321,7.1314,7.1226,7.1226,7.086,7.0598,7.0598,7.0598,7.0546,7.0415,7.0389,7.0337,7.0232,7.0588,7.09,7.1089,7.178,7.2238,7.2368,7.2699,7.2912,7.2912,7.2912,7.2912,7.2912,7.2912,7.2661,7.222,7.222,7.2525,7.3102,7.3102,7.3427,7.4018,7.4018,7.4323,7.4838,7.4838,7.492,7.5007,7.5007,7.5007,7.5007,7.5007,7.5007,7.5007,6.4543,6.5048,6.5529,6.6034,6.633,6.6514,6.6514,6.7178,6.7887,6.8421,6.9364,7.0233,7.0773,7.131,7.1721,7.1977,7.2259,7.2516,7.2772,7.2821,7.2892,7.318,7.3469,7.3707,7.3972,7.3709,7.3565,7.3565,7.33,7.318,7.318,7.2916,7.2821,7.2821,7.2821,7.2821,7.2821,7.2821,7.2821,7.2821,7.2821,7.2821,7.2821,7.2821,7.2973,7.3228,7.319,7.3697,7.4341,7.3802,7.3393,7.3068,7.2792,7.2717,7.2717,7.2717,7.2717,7.2641,7.2365,7.2089,7.1761,7.1184,7.088,7.0478,6.9604,6.9406,6.9496,6.9741,7.0212,7.0704,7.117,7.1401,7.1565,7.1783,7.1592,7.1409,7.1409,7.1409,7.1304,7.1017,7.099,7.0886,7.0624,7.0812,7.0977,7.119,7.1655,7.2139,7.2579,7.2829,7.3084,7.3292,7.3292,7.3292,7.3292,7.3292,7.3285,7.3279,7.296,7.315,7.3726,7.3726,7.4024,7.4567,7.4567,7.4757,7.5007,7.5007,7.5007,7.5007,7.5007,7.5007,7.5007,7.5007,7.5007,7.5007,6.5024,6.5483,6.5944,6.6422,6.6514,6.6514,6.6514,6.7021,6.7549,6.7963,6.8922,6.976,7.0203,7.0742,7.1284,7.1824,7.1849,7.2054,7.2516,7.2689,7.3004,7.3435,7.3728,7.4068,7.4527,7.4623,7.4599,7.4406,7.3948,7.3731,7.3731,7.318,7.294,7.2916,7.282,7.2821,7.2821,7.2821,7.2821,7.2821,7.2821,7.2821,7.2821,7.2821,7.2821,7.2872,7.3303,7.3818,7.4218,7.3858,7.3673,7.3519,7.3018,7.2792,7.2717,7.2717,7.2717,7.2717,7.2717,7.2365,7.2012,7.1937,7.156,7.0958,6.993,6.9607,6.9506,6.9406,6.9834,7.0324,7.0793,7.1259,7.1748,7.221,7.2297,7.2297,7.2297,7.2297,7.2114,7.1618,7.1565,7.1382,7.0938,7.0886,7.1036,7.1352,7.1459,7.1863,7.2623,7.2812,7.309,7.3492,7.3549,7.359,7.359,7.359,7.3834,7.4323,7.3834,7.3834,7.4344,7.4344,7.4567,7.5007,7.5007,7.5007,7.5007,7.5007,7.5007,7.5007,7.5007,7.5007,7.5007,7.5007,7.5007,7.5007,6.5507,6.5737,6.5944,6.6422,6.6514,6.6514,6.6514,6.7294,6.794,6.7985,6.8887,6.9559,6.9628,7.0172,7.0716,7.1258,7.131,7.1336,7.1413,7.2302,7.2845,7.2917,7.4242,7.5007,7.5079,7.5536,7.532,7.4406,7.4334,7.431,7.4286,7.3731,7.3491,7.3467,7.2988,7.2821,7.2821,7.2821,7.2821,7.2821,7.2821,7.2821,7.2821,7.2821,7.2821,7.2797,7.2897,7.3241,7.3774,7.4169,7.3985,7.3569,7.3494,7.3118,7.2717,7.2717,7.2717,7.2717,7.2717,7.2641,7.2491,7.2037,7.1861,7.1636,7.1008,7.0503,7.0026,6.9506,6.9834,7.0324,7.0793,7.1259,7.1748,7.221,7.2297,7.2297,7.2297,7.2297,7.2271,7.2193,7.2167,7.214,7.2088,7.2062,7.2084,7.2149,7.2541,7.2796,7.2926,7.3705,7.4181,7.4244,7.46,7.4763,7.4763,7.4763,7.4817,7.4872,7.4817,7.4817,7.4872,7.4872,7.4926,7.5007,7.5007,7.5007,7.5007,7.5007,7.5007,7.5007,7.5007,7.5007,7.5007,7.5007,7.5007,7.5007,6.5645,6.5988,6.6263,6.6468,6.6514,6.6606,6.6906,6.7549,6.8123,6.8422,6.9065,6.9498,6.9498,6.9732,7.0123,7.069,7.0742,7.0871,7.1181,7.1934,7.2621,7.3215,7.4215,7.503,7.5632,7.5873,7.5753,7.5296,7.4983,7.4839,7.4839,7.431,7.3876,7.3587,7.3373,7.3084,7.2821,7.2821,7.2821,7.2821,7.2821,7.2821,7.2821,7.2821,7.2821,7.2846,7.3151,7.341,7.3669,7.4219,7.424,7.401,7.3699,7.3418,7.3118,7.2792,7.2717,7.2717,7.2717,7.2717,7.2641,7.2415,7.234,7.2213,7.1661,7.1359,7.1033,7.048,7.0538,7.0824,7.1263,7.1525,7.1801,7.224,7.2297,7.2297,7.2297,7.2297,7.2297,7.2297,7.2297,7.2297,7.2297,7.2297,7.2297,7.2297,7.2494,7.2708,7.2991,7.338,7.3731,7.3989,7.4438,7.4673,7.4673,7.488,7.5007,7.5007,7.5007,7.5007,7.5007,7.5007,7.5007,7.5007,7.5007,7.5007,7.5007,7.5007,7.5007,7.5007,7.5007,7.5007,7.5007,7.5007,7.5007,7.5007]},{"header":{"parameterUnit":"m.s-1","parameterCategory":1,"la1":30.6,"la2":28.766,"lo1":-90.7593,"lo2":-88.6598,"dy":0.0162,"dx":0.0183,"nx":116,"ny":114,"refTime":"2024-02-26T18:00:00:Z","depth":0,"parameterNumber":3,"parameterNumberName":"V-component_of_WINDS"},"data":[0.0,0.0,0.0,0.0,0.0,0.0,0.0,0.0,0.0,0.0,0.0,0.0,0.0,0.0,0.0,0.0,0.0,0.0,0.0,0.0,0.0,0.0,0.0,0.0,0.0,0.0,0.0,0.0,0.0,0.0,0.0,0.0,0.0,0.0,0.0,0.0,0.0,0.0,0.0,0.0,0.0,0.0,0.0,0.0,0.0,0.0,0.0,0.0,0.0,0.0,0.0,0.0,0.0,0.0,0.0,0.0,0.0,0.0,0.0,0.0,0.0,0.0,0.0,0.0,0.0,0.0,0.0,0.0,0.0,0.0,0.0,0.0,0.0,0.0,0.0,0.0,0.0,0.0,0.0,0.0,0.0,0.0,0.0,0.0,0.0,0.0,0.0,0.0,0.0,0.0,0.0,0.0,0.0,0.0,0.0,0.0,0.0,0.0,0.0,0.0,0.0,0.0,0.0,0.0,0.0,0.0,0.0,0.0,0.0,0.0,0.0,0.0,0.0,0.0,0.0,0.0,0.0,0.0,0.0,0.0,0.0,0.0,0.0,0.0,0.0,0.0,0.0,0.0,0.0,0.0,0.0,0.0,0.0,0.0,0.0,0.0,0.0,0.0,0.0,0.0,0.0,0.0,0.0,0.0,0.0,0.0,0.0,0.0,0.0,0.0,0.0,0.0,0.0,0.0,0.0,0.0,0.0,0.0,0.0,0.0,0.0,0.0,0.0,0.0,0.0,0.0,0.0,0.0,0.0,0.0,0.0,0.0,0.0,0.0,0.0,0.0,0.0,0.0,0.0,0.0,0.0,0.0,0.0,0.0,0.0,0.0,0.0,0.0,0.0,0.0,0.0,0.0,0.0,0.0,0.0,0.0,0.0,0.0,0.0,0.0,0.0,0.0,0.0,0.0,0.0,0.0,0.0,0.0,0.0,0.0,0.0,0.0,0.0,0.0,0.0,0.0,0.0,0.0,0.0,0.0,0.0,0.0,0.0,0.0,0.0,0.0,0.0,0.0,0.0,0.0,0.0,0.0,0.0,0.0,0.0,0.0,0.0,0.0,0.0,0.0,0.0,0.0,0.0,0.0,0.0,0.0,0.0,0.0,0.0,0.0,0.0,0.0,0.0,0.0,0.0,0.0,0.0,0.0,0.0,0.0,0.0,0.0,0.0,0.0,0.0,0.0,0.0,0.0,0.0,0.0,0.0,0.0,0.0,0.0,0.0,0.0,0.0,0.0,0.0,0.0,0.0,0.0,0.0,0.0,0.0,0.0,0.0,0.0,0.0,0.0,0.0,0.0,0.0,0.0,0.0,0.0,0.0,0.0,0.0,0.0,0.0,0.0,0.0,0.0,0.0,0.0,0.0,0.0,0.0,0.0,0.0,0.0,0.0,0.0,0.0,0.0,0.0,0.0,0.0,0.0,0.0,0.0,0.0,0.0,0.0,0.0,0.0,0.0,0.0,0.0,0.0,0.0,0.0,0.0,0.0,0.0,0.0,0.0,0.0,0.0,0.0,0.0,0.0,0.0,0.0,0.0,0.0,0.0,0.0,0.0,0.0,0.0,0.0,0.0,0.0,0.0,0.0,0.0,0.0,0.0,0.0,0.0,0.0,0.0,0.0,0.0,0.0,0.0,0.0,0.0,0.0,0.0,0.0,0.0,0.0,0.0,0.0,0.0,0.0,0.0,0.0,0.0,0.0,0.0,0.0,0.0,0.0,0.0,0.0,0.0,0.0,0.0,0.0,0.0,0.0,0.0,0.0,0.0,0.0,0.0,0.0,0.0,0.0,0.0,0.0,0.0,0.0,0.0,0.0,0.0,0.0,0.0,0.0,0.0,0.0,0.0,0.0,0.0,0.0,0.0,0.0,0.0,0.0,0.0,0.0,0.0,0.0,0.0,0.0,0.0,0.0,0.0,0.0,0.0,0.0,0.0,0.0,0.0,0.0,0.0,0.0,0.0,0.0,0.0,0.0,0.0,0.0,0.0,0.0,0.0,0.0,0.0,0.0,0.0,0.0,0.0,0.0,0.0,0.0,0.0,0.0,0.0,0.0,0.0,0.0,0.0,0.0,0.0,0.0,0.0,0.0,0.0,0.0,0.0,0.0,0.0,0.0,0.0,0.0,0.0,0.0,0.0,0.0,0.0,0.0,0.0,0.0,0.0,0.0,0.0,0.0,0.0,0.0,0.0,0.0,0.0,0.0,0.0,0.0,0.0,0.0,0.0,0.0,0.0,0.0,0.0,0.0,0.0,0.0,0.0,0.0,0.0,0.0,0.0,0.0,0.0,0.0,0.0,0.0,0.0,0.0,0.0,0.0,0.0,0.0,0.0,0.0,0.0,0.0,0.0,0.0,0.0,0.0,0.0,0.0,0.0,0.0,0.0,0.0,0.0,0.0,0.0,0.0,0.0,0.0,0.0,0.0,0.0,0.0,0.0,0.0,0.0,0.0,0.0,0.0,0.0,0.0,0.0,0.0,0.0,0.0,0.0,0.0,0.0,0.0,0.0,0.0,0.0,0.0,0.0,0.0,0.0,0.0,0.0,0.0,0.0,0.0,0.0,0.0,0.0,0.0,0.0,0.0,0.0,0.0,0.0,0.0,0.0,0.0,0.0,0.0,0.0,0.0,0.0,0.0,0.0,0.0,0.0,0.0,0.0,0.0,0.0,0.0,0.0,0.0,0.0,0.0,0.0,0.0,0.0,0.0,0.0,0.0,0.0,0.0,0.0,0.0,0.0,0.0,0.0,0.0,0.0,0.0,0.0,0.0,0.0,0.0,0.0,0.0,0.0,0.0,0.0,0.0,0.0,0.0,0.0,0.0,0.0,0.0,0.0,0.0,0.0,0.0,0.0,0.0,0.0,0.0,0.0,0.0,0.0,0.0,0.0,0.0,0.0,0.0,0.0,0.0,0.0,0.0,0.0,0.0,0.0,0.0,0.0,0.0,0.0,0.0,0.0,0.0,0.0,0.0,0.0,0.0,0.0,0.0,0.0,0.0,0.0,0.0,0.0,0.0,0.0,0.0,0.0,0.0,0.0,0.0,0.0,0.0,0.0,0.0,0.0,0.0,0.0,0.0,0.0,0.0,0.0,0.0,0.0,0.0,0.0,0.0,0.0,0.0,0.0,0.0,0.0,0.0,0.0,0.0,0.0,0.0,0.0,0.0,0.0,0.0,0.0,0.0,0.0,0.0,0.0,0.0,0.0,0.0,0.0,0.0,0.0,0.0,0.0,0.0,0.0,0.0,0.0,0.0,0.0,0.0,0.0,0.0,0.0,0.0,0.0,0.0,0.0,0.0,0.0,0.0,0.0,0.0,0.0,0.0,0.0,0.0,0.0,0.0,0.0,0.0,0.0,0.0,0.0,0.0,0.0,0.0,0.0,0.0,0.0,0.0,0.0,0.0,0.0,0.0,0.0,0.0,0.0,0.0,0.0,0.0,0.0,0.0,0.0,0.0,0.0,0.0,0.0,0.0,0.0,0.0,0.0,0.0,0.0,0.0,0.0,0.0,0.0,0.0,0.0,0.0,0.0,0.0,0.0,0.0,0.0,0.0,0.0,0.0,0.0,0.0,0.0,0.0,0.0,0.0,0.0,0.0,0.0,0.0,0.0,0.0,0.0,0.0,0.0,0.0,0.0,0.0,0.0,0.0,0.0,0.0,0.0,0.0,0.0,0.0,0.0,0.0,0.0,0.0,0.0,0.0,0.0,0.0,0.0,0.0,0.0,0.0,0.0,0.0,0.0,0.0,0.0,0.0,0.0,0.0,0.0,0.0,0.0,0.0,0.0,0.0,0.0,0.0,0.0,0.0,0.0,0.0,0.0,0.0,0.0,0.0,0.0,0.0,0.0,0.0,0.0,0.0,0.0,0.0,0.0,0.0,0.0,0.0,0.0,0.0,0.0,0.0,0.0,0.0,0.0,0.0,0.0,0.0,0.0,0.0,0.0,0.0,0.0,0.0,0.0,0.0,0.0,0.0,0.0,0.0,0.0,0.0,0.0,0.0,0.0,0.0,0.0,0.0,0.0,0.0,0.0,0.0,0.0,0.0,0.0,0.0,0.0,0.0,0.0,0.0,0.0,0.0,0.0,0.0,0.0,0.0,0.0,0.0,0.0,0.0,0.0,0.0,0.0,0.0,0.0,0.0,0.0,0.0,0.0,0.0,0.0,0.0,0.0,0.0,0.0,0.0,0.0,0.0,0.0,0.0,0.0,0.0,0.0,0.0,0.0,0.0,0.0,0.0,0.0,0.0,0.0,0.0,0.0,0.0,0.0,0.0,0.0,0.0,0.0,0.0,0.0,0.0,0.0,0.0,0.0,0.0,0.0,0.0,0.0,0.0,0.0,0.0,0.0,0.0,0.0,0.0,0.0,0.0,0.0,0.0,0.0,0.0,0.0,0.0,0.0,0.0,0.0,0.0,0.0,0.0,0.0,0.0,0.0,0.0,0.0,0.0,0.0,0.0,0.0,0.0,0.0,0.0,0.0,0.0,0.0,0.0,0.0,0.0,0.0,0.0,0.0,0.0,0.0,0.0,0.0,0.0,0.0,0.0,0.0,0.0,0.0,0.0,0.0,0.0,0.0,0.0,0.0,0.0,0.0,0.0,0.0,0.0,0.0,0.0,0.0,0.0,0.0,0.0,0.0,0.0,0.0,0.0,0.0,0.0,0.0,0.0,0.0,0.0,0.0,0.0,0.0,0.0,0.0,0.0,0.0,0.0,0.0,0.0,0.0,0.0,0.0,0.0,0.0,0.0,0.0,0.0,0.0,0.0,0.0,0.0,0.0,0.0,0.0,0.0,0.0,0.0,0.0,0.0,0.0,0.0,0.0,0.0,0.0,0.0,0.0,0.0,0.0,0.0,0.0,0.0,0.0,0.0,0.0,0.0,0.0,0.0,0.0,0.0,0.0,0.0,0.0,0.0,0.0,0.0,0.0,0.0,0.0,0.0,0.0,0.0,0.0,0.0,0.0,0.0,0.0,0.0,0.0,0.0,0.0,0.0,0.0,0.0,0.0,0.0,0.0,0.0,0.0,0.0,0.0,0.0,0.0,0.0,0.0,0.0,0.0,0.0,0.0,0.0,0.0,0.0,0.0,0.0,0.0,0.0,0.0,0.0,0.0,0.0,0.0,0.0,0.0,0.0,0.0,0.0,0.0,0.0,0.0,0.0,0.0,0.0,0.0,0.0,0.0,0.0,0.0,0.0,0.0,0.0,0.0,0.0,0.0,0.0,0.0,0.0,0.0,0.0,0.0,0.0,0.0,0.0,0.0,0.0,0.0,0.0,0.0,0.0,0.0,0.0,0.0,0.0,0.0,0.0,0.0,0.0,0.0,0.0,0.0,0.0,0.0,0.0,0.0,0.0,0.0,0.0,0.0,0.0,0.0,0.0,0.0,0.0,0.0,0.0,0.0,0.0,0.0,0.0,0.0,0.0,0.0,0.0,0.0,0.0,0.0,0.0,0.0,0.0,0.0,0.0,0.0,0.0,0.0,0.0,0.0,0.0,0.0,0.0,0.0,0.0,0.0,0.0,0.0,0.0,0.0,0.0,0.0,0.0,0.0,0.0,0.0,0.0,0.0,0.0,0.0,0.0,0.0,0.0,0.0,0.0,0.0,0.0,0.0,0.0,0.0,0.0,0.0,0.0,0.0,0.0,0.0,0.0,0.0,0.0,0.0,0.0,0.0,0.0,0.0,0.0,0.0,0.0,0.0,0.0,0.0,0.0,0.0,0.0,0.0,0.0,0.0,0.0,0.0,0.0,0.0,0.0,0.0,0.0,0.0,0.0,0.0,0.0,0.0,0.0,0.0,0.0,0.0,0.0,0.0,0.0,0.0,0.0,0.0,0.0,0.0,0.0,0.0,0.0,0.0,0.0,0.0,0.0,0.0,0.0,0.0,0.0,0.0,0.0,0.0,0.0,0.0,0.0,0.0,0.0,0.0,0.0,0.0,0.0,0.0,0.0,0.0,0.0,0.0,0.0,0.0,0.0,0.0,0.0,0.0,0.0,0.0,0.0,0.0,0.0,0.0,0.0,0.0,0.0,0.0,0.0,0.0,0.0,0.0,0.0,0.0,0.0,0.0,0.0,0.0,0.0,0.0,3.0784,0.0,0.0,0.0,0.0,0.0,0.0,0.0,0.0,0.0,0.0,0.0,0.0,0.0,0.0,0.0,0.0,0.0,0.0,0.0,0.0,0.0,0.0,0.0,0.0,0.0,0.0,0.0,2.8454,2.8591,2.9056,2.8998,2.8929,2.8929,2.8821,2.8762,2.8762,2.8762,2.903,2.9565,2.9565,2.9857,3.0354,2.922,2.7611,2.5634,0.0,0.0,0.0,0.0,0.0,0.0,0.0,0.0,0.0,0.0,0.0,0.0,0.0,0.0,0.0,0.0,0.0,0.0,0.0,0.0,0.0,0.0,0.0,0.0,0.0,0.0,0.0,0.0,0.0,0.0,0.0,0.0,0.0,0.0,0.0,0.0,0.0,0.0,0.0,0.0,0.0,0.0,0.0,0.0,0.0,0.0,0.0,0.0,0.0,0.0,0.0,0.0,0.0,0.0,0.0,0.0,0.0,0.0,0.0,0.0,0.0,0.0,0.0,0.0,0.0,0.0,0.0,0.0,0.0,0.0,0.0,3.1657,0.0,0.0,0.0,0.0,0.0,0.0,0.0,0.0,0.0,0.0,0.0,0.0,0.0,0.0,0.0,0.0,0.0,0.0,0.0,0.0,0.0,0.0,0.0,2.8473,2.8866,2.9676,2.9756,3.0129,3.0978,3.1011,3.104,3.1138,3.1107,3.1086,3.1086,3.1086,3.1382,3.2033,3.2219,3.2539,3.2972,3.2873,3.1157,2.812,2.7284,0.0,0.0,0.0,0.0,0.0,0.0,0.0,0.0,0.0,0.0,0.0,0.0,0.0,0.0,0.0,0.0,0.0,0.0,0.0,0.0,0.0,0.0,0.0,0.0,0.0,0.0,0.0,0.0,0.0,0.0,0.0,0.0,0.0,0.0,0.0,0.0,0.0,0.0,0.0,0.0,0.0,0.0,0.0,0.0,0.0,0.0,0.0,0.0,0.0,0.0,0.0,0.0,0.0,0.0,0.0,0.0,0.0,0.0,0.0,0.0,0.0,0.0,0.0,3.7458,3.7693,3.7693,3.7403,3.7276,3.7155,3.4858,3.3595,3.3174,3.3174,0.0,0.0,0.0,0.0,0.0,0.0,0.0,0.0,0.0,0.0,0.0,0.0,0.0,0.0,0.0,0.0,0.0,0.0,0.0,0.0,0.0,2.9995,3.0512,3.1079,3.1155,3.1385,3.1981,3.1842,3.1981,3.25,3.2316,3.2184,3.2184,3.2184,3.2712,3.378,3.4706,3.5187,3.5261,3.4804,3.4055,3.3064,3.1062,0.0,0.0,0.0,0.0,0.0,0.0,0.0,0.0,0.0,0.0,0.0,0.0,0.0,0.0,0.0,0.0,0.0,0.0,0.0,0.0,0.0,0.0,0.0,0.0,0.0,0.0,0.0,0.0,0.0,0.0,0.0,0.0,0.0,0.0,0.0,0.0,0.0,0.0,0.0,0.0,0.0,0.0,0.0,2.9736,3.0327,0.0,0.0,0.0,0.0,0.0,0.0,0.0,0.0,0.0,0.0,0.0,0.0,0.0,3.8657,3.9347,3.9369,3.9222,3.8946,3.9415,3.9633,3.9633,3.96,3.9545,3.9524,3.8768,0.0,3.5035,3.5035,0.0,0.0,0.0,0.0,0.0,0.0,0.0,0.0,0.0,0.0,0.0,0.0,0.0,0.0,0.0,0.0,0.0,0.0,0.0,0.0,0.0,3.1175,3.1727,3.2311,3.2627,3.3043,3.3585,3.3801,3.4031,3.4317,3.4524,3.4651,3.4651,3.4651,3.5188,3.6284,3.7406,3.7954,3.7954,3.7705,3.7318,3.6757,3.5424,3.3411,3.0938,2.984,0.0,0.0,0.0,0.0,0.0,0.0,0.0,0.0,0.0,0.0,0.0,0.0,0.0,0.0,0.0,0.0,0.0,0.0,0.0,0.0,0.0,0.0,0.0,0.0,0.0,0.0,0.0,0.0,0.0,0.0,0.0,0.0,0.0,0.0,0.0,0.0,0.0,0.0,0.0,3.0627,3.1878,3.2637,3.3198,3.391,0.0,0.0,0.0,0.0,0.0,0.0,0.0,0.0,0.0,4.0394,4.0416,4.0847,4.1709,4.1709,4.1641,4.1488,4.1981,4.2198,4.218,4.1955,4.1851,4.1812,4.1152,4.0236,3.9071,3.8034,3.7592,3.7592,0.0,0.0,0.0,0.0,3.5846,3.5183,0.0,0.0,0.0,0.0,0.0,0.0,0.0,0.0,0.0,0.0,0.0,0.0,3.1698,3.219,3.2767,3.3646,3.4073,3.4589,3.5292,3.5707,3.6083,3.6359,3.6796,3.7097,3.7235,3.7512,3.8052,3.8831,3.9998,4.0539,4.0539,4.0539,4.0276,3.9736,3.912,3.6905,3.3556,3.2318,3.1798,0.0,0.0,0.0,0.0,0.0,0.0,0.0,0.0,0.0,0.0,0.0,0.0,0.0,0.0,0.0,0.0,0.0,0.0,0.0,0.0,0.0,0.0,0.0,0.0,0.0,0.0,0.0,0.0,0.0,0.0,0.0,0.0,0.0,0.0,0.0,0.0,0.0,0.0,3.2706,3.3834,3.5022,3.5283,3.5899,0.0,0.0,0.0,0.0,0.0,0.0,4.029,4.0793,4.1476,4.2398,4.2437,4.2918,4.3901,4.3923,4.3923,4.3923,4.4382,4.4622,4.4622,4.4315,4.4171,4.4127,4.3422,4.31,4.2932,4.0853,4.0017,4.0017,4.0017,3.9804,3.9439,3.9026,3.8458,3.7825,0.0,0.0,0.0,0.0,0.0,0.0,0.0,0.0,0.0,0.0,0.0,3.1185,3.2839,3.304,3.3671,3.5232,3.5408,3.5907,3.6997,3.7098,3.7612,3.8693,3.8743,3.9019,3.9534,4.0524,4.1088,4.1138,4.2283,4.2838,4.2838,4.2838,4.2537,4.1998,4.1391,3.9596,3.6848,3.5207,3.4494,3.4304,0.0,0.0,0.0,0.0,0.0,0.0,0.0,0.0,0.0,0.0,0.0,0.0,0.0,0.0,0.0,0.0,0.0,0.0,0.0,0.0,0.0,0.0,0.0,0.0,0.0,0.0,0.0,0.0,0.0,0.0,0.0,0.0,0.0,0.0,0.0,0.0,0.0,0.0,0.0,3.7036,3.7258,0.0,0.0,0.0,0.0,4.1241,4.1822,4.2157,4.2245,4.2748,4.3486,4.4408,4.4469,4.4928,4.5849,4.5849,4.5849,4.5871,4.6333,4.6573,4.6573,4.6535,4.6535,4.6492,4.6012,4.5794,4.5607,4.3014,4.1943,4.1943,4.1943,4.1943,4.1858,4.1411,4.1202,4.1031,0.0,0.0,0.0,0.0,0.0,0.0,0.0,0.0,2.978,3.0872,3.1719,3.2577,3.3506,3.4572,3.5452,3.6043,3.7073,3.7851,3.8266,3.8956,3.9521,3.9923,4.0627,4.1255,4.182,4.2872,4.3435,4.3435,4.4568,4.5121,4.5121,4.5121,4.5152,4.5117,4.4178,4.3328,4.2351,3.8465,3.6823,3.6622,3.4413,3.2993,0.0,0.0,0.0,0.0,0.0,0.0,0.0,0.0,0.0,0.0,0.0,0.0,0.0,0.0,0.0,0.0,0.0,0.0,0.0,0.0,0.0,0.0,0.0,0.0,0.0,0.0,0.0,0.0,0.0,0.0,0.0,0.0,0.0,0.0,0.0,0.0,0.0,3.8953,3.9404,0.0,4.192,4.2092,4.2689,4.4174,4.443,4.4846,4.5524,4.5746,4.6152,4.6826,4.6851,4.7182,4.7859,4.7859,4.7859,4.7859,4.8034,4.8121,4.8121,4.8121,4.8121,4.8121,4.7946,4.7859,4.7796,4.6871,4.5738,4.4615,4.4615,4.4615,4.4575,4.4165,4.3662,4.3042,0.0,0.0,0.0,0.0,0.0,0.0,0.0,0.0,3.0671,3.194,3.2817,3.3756,3.4894,3.6008,3.6956,3.7715,3.8791,3.9702,4.0272,4.098,4.1561,4.1916,4.3045,4.3906,4.4448,4.533,4.5872,4.6064,4.7025,4.7582,4.7784,4.7784,4.7795,4.7779,4.6836,4.6444,4.6198,4.2232,4.0107,3.9234,3.6925,3.5337,3.4216,0.0,0.0,0.0,0.0,0.0,0.0,0.0,0.0,0.0,0.0,0.0,0.0,0.0,0.0,0.0,0.0,0.0,0.0,0.0,0.0,0.0,0.0,0.0,0.0,0.0,0.0,0.0,0.0,0.0,0.0,0.0,0.0,0.0,0.0,0.0,3.9377,4.0923,4.1535,4.2518,4.4339,4.4504,4.5192,4.6852,4.6974,4.7347,4.8228,4.8272,4.8499,4.9034,4.9235,4.9567,5.0089,5.0243,5.0351,5.0351,5.0351,5.0351,5.0351,5.0155,5.0089,5.0069,4.9753,4.9607,4.9607,4.9448,4.8623,4.74,4.692,4.6655,4.6486,4.6263,4.5775,4.5171,0.0,0.0,0.0,0.0,0.0,0.0,0.0,2.9851,3.1058,3.2705,3.3486,3.4717,3.695,3.7257,3.8169,4.0312,4.0568,4.1324,4.3017,4.3171,4.3698,4.4841,4.5959,4.6832,4.7367,4.7927,4.8492,4.9076,4.9625,5.0174,5.0754,5.0754,5.0446,4.9882,4.9333,4.8768,4.8137,4.6447,4.4444,4.2183,3.965,3.7935,3.6769,0.0,0.0,0.0,0.0,0.0,0.0,0.0,0.0,0.0,0.0,0.0,0.0,0.0,0.0,0.0,0.0,0.0,0.0,0.0,0.0,0.0,0.0,0.0,0.0,0.0,0.0,0.0,0.0,0.0,0.0,0.0,0.0,0.0,3.87,3.9936,4.1451,4.2998,4.3602,4.4704,4.6788,4.6994,4.766,4.9257,4.9401,4.968,5.0263,5.0311,5.0535,5.0987,5.1523,5.1996,5.2471,5.2983,5.3251,5.3251,5.3251,5.3251,5.3228,5.2691,5.2469,5.2428,5.151,5.1107,5.1087,5.0618,5.0434,5.028,4.8818,4.7988,4.7594,4.7594,4.7575,4.7488,0.0,0.0,0.0,0.0,0.0,0.0,0.0,3.1247,3.231,3.3602,3.4855,3.6015,3.7078,3.8619,3.9825,4.0465,4.2016,4.3171,4.3633,4.4454,4.5429,4.6572,4.769,4.8563,4.9097,5.0081,5.0646,5.0799,5.1338,5.1697,5.1851,5.1851,5.1904,5.1949,5.1413,5.1219,5.119,4.9462,4.8135,4.6843,4.2816,4.0517,3.9416,0.0,0.0,0.0,0.0,0.0,0.0,0.0,0.0,0.0,0.0,0.0,0.0,0.0,0.0,0.0,0.0,0.0,0.0,0.0,0.0,0.0,0.0,0.0,0.0,0.0,0.0,0.0,0.0,0.0,0.0,0.0,0.0,4.0826,4.0279,4.1512,4.3044,4.4576,4.5541,4.6857,4.8882,4.9089,4.9718,5.1296,5.1711,5.2133,5.2696,5.3042,5.3333,5.3483,5.3641,5.3812,5.3973,5.4151,5.4239,5.4239,5.4239,5.4239,5.4196,5.4061,5.3994,5.3973,5.3713,5.3604,5.3583,5.3478,5.3214,5.2707,5.0569,4.965,4.9541,4.9541,4.9303,4.8953,0.0,0.0,0.0,0.0,0.0,0.0,0.0,3.1879,3.3024,3.4428,3.5763,3.6994,3.8103,3.9773,4.1027,4.1505,4.3198,4.4453,4.4958,4.6303,4.7674,4.9045,4.9743,5.0468,5.128,5.2185,5.2763,5.2996,5.3555,5.3943,5.4202,5.4202,5.4147,5.4079,5.354,5.3264,5.3112,5.1622,5.0655,4.9856,4.6446,4.3766,4.1699,4.067,3.8886,3.6833,3.6106,3.4773,3.3107,3.1504,0.0,0.0,0.0,0.0,0.0,0.0,0.0,0.0,0.0,0.0,0.0,0.0,0.0,0.0,0.0,0.0,0.0,0.0,0.0,0.0,0.0,0.0,0.0,0.0,4.1764,4.3106,4.3475,4.4153,4.5186,4.671,4.7653,4.8947,5.0972,5.1156,5.1798,5.3337,5.3704,5.4094,5.4579,5.5082,5.537,5.5416,5.5826,5.6063,5.6123,5.635,5.644,5.644,5.6236,5.6123,5.6079,5.5671,5.5467,5.5467,5.5073,5.4898,5.4876,5.4663,5.4442,0.0,0.0,0.0,0.0,0.0,5.1337,5.103,0.0,0.0,0.0,0.0,0.0,0.0,0.0,3.2055,3.3362,3.5155,3.6384,3.7743,3.943,4.0737,4.1939,4.301,4.4212,4.544,4.6696,4.8422,5.0043,5.1544,5.1779,5.2433,5.3556,5.4131,5.468,5.5282,5.5778,5.6275,5.6798,5.6798,5.6493,5.597,5.5517,5.4968,5.4314,5.3243,5.238,5.157,5.0017,4.7206,4.3823,4.2871,4.1196,3.9254,3.851,3.7187,3.5535,3.3581,0.0,0.0,0.0,0.0,0.0,0.0,0.0,0.0,0.0,0.0,0.0,0.0,0.0,0.0,0.0,0.0,0.0,0.0,0.0,0.0,0.0,0.0,0.0,0.0,4.388,4.5553,4.7349,4.7449,4.7848,4.9163,4.9947,5.1148,5.3036,5.3227,5.3854,5.5348,5.5447,5.5658,5.614,0.0,0.0,0.0,0.0,5.8296,5.8296,5.8755,5.9008,5.8985,5.8526,5.8296,5.825,5.7376,5.6963,5.6919,5.6079,5.5683,5.5593,5.5188,5.4973,5.4862,5.4238,5.3702,5.3363,5.3363,5.3363,5.33,0.0,0.0,0.0,0.0,0.0,0.0,0.0,3.2551,3.3493,3.5652,3.6985,3.8202,3.9456,4.1442,4.2958,4.3663,4.5206,4.6853,4.85,5.0174,5.1256,5.1586,5.2955,5.4027,5.4759,5.5308,5.5883,5.6484,5.6588,5.6693,5.6798,5.6798,5.6745,5.6641,5.6536,5.6144,5.5543,5.4863,5.3713,5.225,5.1439,4.9277,4.6401,4.4887,4.3426,4.1994,4.0298,3.8891,3.7537,3.5597,3.4124,3.2863,3.1635,0.0,0.0,0.0,0.0,0.0,0.0,0.0,0.0,0.0,0.0,0.0,0.0,0.0,0.0,0.0,0.0,0.0,0.0,0.0,0.0,4.3575,4.5606,4.7501,4.917,5.0502,5.1324,5.1352,5.2549,5.3869,5.5135,5.5279,5.5775,5.6891,5.7038,5.724,5.7722,5.825,5.8549,5.8549,5.8732,5.8847,5.8847,5.8939,5.9008,5.9008,0.0,0.0,5.8847,5.8641,5.8549,5.8549,5.8369,5.8027,5.7638,5.7528,5.7301,5.6779,5.51,5.442,5.433,5.433,5.433,5.433,0.0,0.0,0.0,0.0,0.0,0.0,0.0,3.2708,3.3519,3.5809,3.7168,3.8333,3.9482,4.1625,4.3114,4.3415,4.5558,4.7649,4.9389,5.0812,5.1858,5.2459,5.3583,5.4602,5.5491,5.6066,5.6641,5.7259,5.7529,5.7643,5.766,5.7852,5.7939,5.7956,5.7857,5.7627,5.7284,5.6439,5.5383,5.4222,5.2844,5.1283,4.9508,4.7329,4.5401,4.3637,4.2098,4.081,3.9499,3.7252,3.6035,3.5183,3.3677,3.2651,3.1837,0.0,0.0,0.0,0.0,0.0,0.0,0.0,0.0,0.0,0.0,0.0,0.0,0.0,0.0,3.7768,3.9657,0.0,4.3087,4.5173,4.7088,4.8957,5.0834,5.2718,5.3776,5.3394,5.4339,5.5611,5.7208,5.7376,5.7815,5.8824,5.8913,5.9039,5.9295,5.9806,5.9974,5.9708,5.9962,5.9989,5.9765,5.9765,5.9765,5.9765,5.9467,5.9352,5.9352,5.91,5.9008,5.9008,5.9008,5.8847,5.8595,5.8595,5.8457,5.8138,5.7176,5.6503,5.6049,5.6049,5.6049,5.6006,0.0,0.0,0.0,0.0,0.0,0.0,0.0,3.2708,3.3519,3.5809,3.7063,3.8202,3.9456,4.1547,4.3062,4.3637,4.6015,4.8187,4.9898,5.1061,5.2271,5.3557,5.4118,5.4984,5.6269,5.6768,5.7345,5.8062,5.8499,5.8717,5.8735,5.9052,5.9193,5.9193,5.9047,5.8839,5.8546,5.7587,5.6734,5.5855,5.4023,5.2827,5.187,4.9582,4.7267,4.5034,4.3794,4.254,4.113,3.8978,3.7923,3.7232,3.5657,3.4542,3.3689,3.3098,3.2166,0.0,0.0,0.0,0.0,0.0,0.0,0.0,0.0,0.0,3.5381,3.6904,3.8262,3.9692,4.1283,4.2955,4.4739,4.6824,4.8524,5.028,5.2301,5.4303,5.549,5.5393,5.6123,5.7314,5.8992,5.9262,5.9717,6.0593,6.06,6.0626,6.0838,6.126,6.1342,6.1011,6.1314,6.1296,6.0933,6.0818,6.0772,6.0749,6.0334,6.0127,6.0127,5.9735,5.9572,5.9572,5.9457,5.939,5.9256,5.9164,5.9074,5.9008,5.9008,5.8503,5.779,5.779,5.779,5.7725,0.0,0.0,0.0,0.0,0.0,0.0,0.0,0.0,3.3519,3.5809,3.6686,3.7743,3.943,4.1206,4.331,4.5886,4.7324,4.8749,5.0266,5.1426,5.2727,5.4209,5.4788,5.5904,5.7638,5.7745,5.8312,5.9385,5.9464,5.9491,5.9491,5.9526,5.9543,5.9543,5.9516,5.8965,5.7996,5.7863,5.6867,5.5328,5.4544,5.3276,5.1759,5.0904,4.9089,4.6811,4.518,4.352,4.1964,4.1156,3.9379,3.7462,3.7232,3.6298,3.5113,3.4346,0.0,3.3738,3.3018,3.2788,3.2878,3.3437,3.3859,3.4413,0.0,0.0,3.7293,3.8436,3.9691,4.1064,4.2685,4.4444,4.6327,4.8476,5.0184,5.1778,5.3413,5.5053,5.6452,5.7369,5.8794,5.9802,6.0021,6.0546,6.1072,6.1599,6.1316,6.1495,6.2391,6.2485,6.2721,6.3145,6.2746,6.2512,6.2444,6.1976,6.1742,6.1742,6.1695,6.1648,6.1648,6.1601,6.1577,6.1554,6.113,6.0675,6.0207,5.9788,5.9383,5.9008,5.9008,5.8916,5.8824,5.8824,5.8824,5.8824,0.0,0.0,0.0,0.0,0.0,0.0,0.0,0.0,0.0,3.6014,3.6966,3.8062,3.9806,4.1891,4.4044,4.6304,4.7547,4.8914,5.0598,5.1762,5.2977,5.4336,5.4901,5.5886,5.733,5.773,5.8272,5.9081,5.9427,5.9613,5.9613,5.9857,5.9935,5.9952,5.9837,5.951,5.9015,5.8315,5.7388,5.6294,5.5145,5.3817,5.2421,5.1334,4.9619,4.7624,4.6087,4.432,0.0,0.0,4.0362,3.9064,3.8413,3.7482,3.6538,3.5884,3.5377,0.0,3.4385,3.4374,3.4639,3.5214,3.5697,3.6391,3.7829,3.8315,3.8943,4.065,4.1784,4.2993,4.4593,4.6294,4.8068,0.0,5.136,5.2823,5.4377,5.6075,5.7409,5.8175,5.9955,6.113,6.113,6.1634,6.2292,6.3083,6.2977,6.3222,6.3938,6.3986,6.3967,6.3907,6.3694,6.344,6.3166,6.2626,6.2368,6.2345,6.204,6.1899,6.1899,6.1899,6.1899,6.1899,6.1686,6.148,6.1257,6.1045,6.0864,6.0686,6.0686,6.0686,6.0549,5.9437,5.9008,5.9008,0.0,0.0,0.0,0.0,0.0,0.0,0.0,0.0,0.0,0.0,3.7097,3.8249,4.0325,4.2493,4.445,4.6101,4.7314,4.8715,5.0432,5.1631,5.2822,5.4123,5.4868,5.5832,5.7016,5.7658,5.8231,5.8776,5.9231,5.9428,5.9445,5.9737,5.9874,5.9864,5.9731,5.9551,5.9334,5.8292,5.7488,5.6805,5.5186,5.3917,5.282,5.1239,4.9581,4.7943,4.6745,4.4967,0.0,4.2069,4.1155,4.0266,3.943,3.8671,3.7996,3.7537,3.6928,3.6354,3.6068,3.6152,3.6391,3.6745,3.7361,3.8203,3.9421,4.0018,4.0747,4.2315,4.3515,4.4669,4.5986,4.7664,4.9338,5.097,5.2328,5.376,5.5351,5.7071,5.831,5.872,6.0674,6.1912,6.1828,6.2408,6.3177,6.4045,6.4093,6.4405,6.5079,6.5103,6.5038,6.4862,6.4696,6.4441,6.4121,6.3578,6.3246,6.3082,6.2703,6.2421,6.2279,6.2279,6.2279,6.2279,6.2279,6.2212,6.21,6.21,6.2011,6.1899,6.1899,6.1899,6.1715,6.0322,5.971,5.9577,0.0,0.0,0.0,0.0,0.0,0.0,0.0,0.0,0.0,0.0,0.0,0.0,0.0,4.2745,4.429,4.5529,4.6741,4.804,4.9556,5.0754,5.2098,5.3546,5.4766,5.5975,5.7157,5.7798,5.8378,5.8985,5.9012,5.9012,5.9012,5.9012,5.9029,5.9029,5.9046,5.8693,5.8129,5.7488,5.6891,5.617,5.4363,5.3278,5.2504,5.0699,4.9122,4.7739,4.7104,0.0,4.3439,4.3075,4.1795,4.0397,4.0371,3.9967,0.0,3.922,3.8915,3.8649,3.8368,3.8308,3.8247,3.8014,3.8793,3.9635,3.9697,4.1354,4.29,4.2961,4.4442,4.5911,4.6492,4.8113,4.9887,5.1508,5.3123,5.4727,5.6336,5.8001,5.9089,5.9163,6.1091,6.2232,0.0,6.2698,6.3494,6.4069,6.4093,6.455,6.563,6.5678,6.5919,6.6401,6.592,6.5655,6.5633,6.5104,6.4577,6.4048,6.4048,6.376,6.3257,6.3257,6.3257,6.3257,6.3257,6.299,6.259,6.259,6.23,6.1899,6.1899,6.1899,6.1899,6.183,6.1515,6.1065,0.0,0.0,0.0,0.0,0.0,0.0,0.0,0.0,0.0,0.0,0.0,0.0,0.0,0.0,0.0,0.0,4.6341,4.7676,4.9719,5.0233,5.1427,5.351,5.3999,5.4786,5.598,5.7,5.7597,5.7814,5.8612,5.8992,5.8992,5.8992,5.8992,5.8964,5.815,5.7678,5.7434,5.6441,5.5437,5.446,5.3836,5.2533,5.0837,5.024,4.8734,4.6893,0.0,0.0,4.3425,4.2913,4.196,4.0946,4.0528,4.0292,4.0033,3.9595,3.9286,3.9043,3.8958,3.9351,3.9726,3.9474,4.0246,4.1129,4.1334,4.221,4.3201,4.3915,4.5444,4.6845,4.737,4.9207,5.1063,5.2326,5.3988,5.5559,5.6827,5.8517,5.9627,5.9662,6.1572,0.0,0.0,0.0,0.0,6.455,6.4622,6.5079,6.6159,6.6232,6.6304,6.6472,6.6328,6.6232,6.6232,6.5702,6.5342,6.5151,6.4453,6.4021,6.3828,6.3446,6.3301,6.3301,6.3301,6.3189,6.3056,6.3056,6.2969,6.286,6.3218,6.3146,6.2815,6.2882,6.2585,6.2054,0.0,0.0,0.0,0.0,0.0,0.0,0.0,0.0,0.0,0.0,0.0,0.0,0.0,0.0,0.0,0.0,0.0,4.7228,4.8965,4.9643,5.0674,5.2262,5.294,5.3754,5.4758,5.5724,5.6348,5.6549,5.7336,5.77,5.77,5.77,5.77,5.7689,5.6902,5.643,5.6158,5.5193,5.4065,5.2925,5.2479,5.1258,4.9616,4.8979,4.7825,0.0,4.5516,4.4453,4.3389,4.2789,4.2072,4.1358,4.0866,4.0737,4.0658,4.0318,4.0247,4.0255,4.0157,4.0679,4.1196,4.0913,4.1469,4.2174,4.2542,4.3109,4.384,4.4744,4.6235,4.749,4.7842,4.9766,5.1649,5.2737,5.4381,5.5965,5.7287,5.8947,6.0068,6.0101,6.2051,6.3295,0.0,0.0,0.0,6.5061,6.5158,6.5548,6.6447,6.6496,6.6496,6.6496,6.6496,6.6496,6.6496,6.6159,6.5895,6.5702,6.479,6.4381,6.4381,6.4045,6.3876,6.3876,6.3876,6.3876,6.3876,6.3876,6.3876,6.3925,6.4261,6.4189,6.388,6.3924,6.3716,6.3268,0.0,0.0,0.0,0.0,0.0,0.0,0.0,0.0,0.0,0.0,0.0,0.0,0.0,0.0,0.0,0.0,0.0,0.0,4.7309,4.8938,4.9887,4.9941,5.1623,5.2844,5.3456,5.4095,5.4677,5.5258,5.5286,5.5313,5.5313,5.5313,5.5313,5.5313,5.5286,5.4921,5.4313,5.3715,5.2763,5.1555,5.0376,4.9535,4.8788,4.7093,4.6427,4.6128,4.4364,4.3579,4.3241,4.2756,4.2197,4.1647,4.1386,4.1311,4.1311,4.1338,4.1755,4.2161,4.1918,4.2268,4.2604,4.2327,4.2495,4.2813,4.3307,4.4042,4.4784,4.5351,4.6743,4.7883,0.0,0.0,5.1599,5.2686,5.4285,5.5968,5.7625,5.9238,6.033,0.0,0.0,0.0,0.0,0.0,0.0,6.5575,6.5652,6.5912,6.654,6.6589,6.6589,6.6589,6.6566,6.6543,6.6543,6.6519,6.6232,6.5727,6.5197,6.4934,6.4934,6.491,6.4886,6.4886,6.4886,6.4886,6.4886,6.4886,6.4886,6.4886,6.4934,6.491,6.4886,6.4934,6.491,6.4629,0.0,0.0,0.0,0.0,0.0,0.0,0.0,0.0,0.0,0.0,0.0,0.0,0.0,0.0,0.0,0.0,0.0,0.0,4.6644,4.7567,4.845,4.9276,5.0213,5.0972,5.1584,5.2615,5.3224,5.3387,5.3836,5.4053,5.4053,5.4053,5.4053,5.4053,5.3577,5.3061,5.2464,5.1855,5.0891,4.971,4.8964,4.807,4.7065,4.617,4.5287,4.4364,4.3468,4.2795,4.2364,4.2494,4.2151,4.1647,4.1386,4.1311,4.139,4.1833,4.2081,4.2278,4.2593,4.3127,4.3491,4.316,4.349,4.3845,4.3779,4.4393,4.5016,4.5168,4.6325,4.744,0.0,4.9414,5.0996,5.2109,5.4059,0.0,5.7054,5.866,0.0,6.0926,0.0,6.3348,6.4065,6.4743,0.0,0.0,6.615,6.6613,6.7554,6.7627,6.7627,6.7627,6.7212,6.7027,6.7027,6.6658,6.6424,6.628,6.5751,6.551,6.5486,6.5079,6.4886,6.4886,6.4886,6.4886,6.4886,6.4886,6.4886,6.4934,6.5342,6.5247,6.4934,6.5366,6.5223,6.4839,0.0,0.0,0.0,0.0,0.0,0.0,0.0,0.0,0.0,0.0,0.0,0.0,0.0,0.0,0.0,0.0,0.0,0.0,0.0,4.6509,4.7296,4.792,4.8775,4.9507,5.0104,5.0782,5.1244,5.1515,5.184,5.2018,5.2018,5.2018,5.2018,5.2018,5.1665,5.1189,5.0578,4.9954,4.9046,0.0,0.0,4.6374,4.526,4.465,4.3835,4.294,4.2331,4.1896,4.1605,4.1681,4.1542,4.1304,4.1431,4.1399,4.1416,4.2029,4.2369,4.2657,4.3232,4.3807,4.4211,4.4037,4.4135,4.4322,4.4415,4.4689,4.5064,4.5562,4.6351,4.7172,4.7958,4.9183,5.0519,5.1875,5.3532,5.5114,5.6451,5.8102,5.9578,0.0,6.1974,0.0,6.4375,6.5003,6.5653,0.0,6.6653,6.6989,6.7601,6.7871,6.8017,6.8017,6.7695,6.7534,6.7534,6.7281,6.7167,6.7143,6.6851,6.6706,6.6706,6.639,6.6268,6.6268,0.0,6.6268,6.6268,6.6268,6.6132,6.5951,6.6241,6.6055,6.563,6.5943,6.5871,6.5582,0.0,0.0,0.0,0.0,0.0,0.0,0.0,0.0,0.0,0.0,0.0,0.0,0.0,0.0,0.0,0.0,0.0,0.0,0.0,0.0,4.6264,4.6264,4.7364,4.8219,4.8734,4.8897,4.9249,4.9752,4.9752,4.9752,4.9752,4.9752,4.9724,4.9643,4.9643,4.9263,4.8598,4.8083,4.7202,4.6101,4.5491,4.4568,4.3495,0.0,0.0,4.1803,4.1206,4.0924,4.0846,4.0692,4.0725,4.0956,4.1445,4.1457,4.1442,4.2095,4.2644,4.3141,4.382,4.4356,4.4695,4.4695,4.4544,4.4469,4.4948,4.4892,4.5016,4.6004,4.6458,4.6973,4.8044,4.9002,5.0122,5.159,5.2872,5.4213,5.5767,5.7424,5.895,6.0141,6.1647,6.3099,6.4396,6.4927,6.5656,6.6811,6.7019,6.7171,6.7363,6.7881,6.8154,6.8086,6.8086,6.8063,6.8017,6.8017,6.8017,6.8017,6.8017,6.8017,6.8017,6.8017,6.8017,6.8017,6.8017,0.0,6.8017,6.8017,6.7742,6.7304,6.7304,6.7051,6.6705,6.6705,6.6658,6.6517,0.0,0.0,0.0,0.0,0.0,0.0,0.0,0.0,0.0,0.0,3.9237,3.9769,0.0,0.0,0.0,0.0,0.0,0.0,0.0,0.0,0.0,4.5017,4.617,4.6848,4.6957,4.7866,4.8422,4.8503,4.8503,4.8503,4.8503,4.8503,4.8287,4.7839,4.7839,4.7242,4.6184,4.6102,4.5355,4.4201,4.3618,4.294,4.2249,0.0,0.0,0.0,4.0567,4.0035,3.9687,4.0142,4.0648,4.1119,4.0994,4.1117,4.152,4.2566,4.2931,4.3245,4.429,4.4616,4.4695,4.4695,4.4668,4.4639,4.4744,4.4887,0.0,4.5285,4.5922,4.6641,4.7276,4.8692,4.9894,5.0369,5.2143,5.3786,5.4758,5.6269,5.8058,0.0,6.0989,6.2265,6.43,6.4576,0.0,0.0,6.6724,6.7414,6.8304,6.888,6.8999,6.859,6.859,6.8383,6.8017,6.8017,6.8017,6.8017,6.8017,6.8017,6.8017,6.8017,6.8017,6.8017,6.8017,0.0,6.8017,6.8017,6.7948,6.7855,6.7855,6.7811,6.7742,6.7742,6.7442,6.7074,0.0,0.0,0.0,0.0,0.0,0.0,0.0,3.8684,3.9063,3.9671,3.9764,4.0106,4.1005,4.1396,0.0,0.0,0.0,0.0,0.0,0.0,0.0,0.0,0.0,0.0,4.5573,4.6089,4.6375,4.6375,0.0,4.6375,4.6375,4.6375,4.6225,4.598,4.598,4.5491,4.4623,4.4324,4.3673,4.2804,4.2222,4.1598,0.0,0.0,0.0,0.0,0.0,3.9063,3.8928,3.9536,4.0071,4.0543,4.0894,4.1234,4.1709,4.2709,4.2997,4.3258,4.4381,4.4695,4.4695,4.4695,4.4695,4.4695,4.4695,0.0,0.0,4.5309,4.5551,4.6074,4.7258,4.7998,4.8871,5.0155,5.1745,5.319,5.4249,5.6063,5.7856,5.932,6.0487,6.1838,6.345,6.4149,6.4827,6.5609,6.651,6.7364,6.8123,6.8977,6.9293,6.9067,6.9067,6.8976,6.8724,6.8724,6.8724,6.8724,6.8724,6.8724,6.8724,6.8724,6.8724,6.8724,6.8724,0.0,6.8724,6.8724,6.8565,6.836,6.836,6.8223,6.8017,6.8017,6.7857,6.7603,0.0,0.0,0.0,0.0,0.0,0.0,0.0,3.9102,3.9644,4.0144,4.0415,4.0757,4.1234,4.1722,4.2249,0.0,0.0,0.0,0.0,0.0,0.0,0.0,0.0,0.0,0.0,0.0,0.0,4.4719,4.4719,0.0,0.0,0.0,0.0,0.0,4.4366,4.3998,4.3386,4.2777,4.2168,0.0,0.0,4.0338,0.0,0.0,0.0,0.0,0.0,3.8293,3.8456,3.8955,3.9456,3.9995,4.0689,4.1174,4.1687,4.2564,4.2905,4.3206,4.4264,4.4616,4.4695,4.4695,4.4616,4.4525,4.4525,4.4434,4.4512,4.5126,4.5129,4.5468,4.6985,4.7324,4.8007,4.9846,5.1335,5.264,5.3809,5.5926,5.7696,5.8656,6.018,0.0,6.2799,6.3889,0.0,6.5279,6.6359,6.7267,6.7945,6.8876,6.9406,6.9406,6.9406,6.9406,6.9406,6.9406,6.9406,6.9406,6.9406,6.9406,6.9406,6.9406,6.9406,6.9406,6.9406,0.0,0.0,6.9406,6.918,6.884,6.884,6.861,6.8314,6.8314,6.8246,6.8154,0.0,0.0,0.0,0.0,0.0,0.0,0.0,3.9737,4.0144,4.0198,4.1137,4.1869,4.1924,4.1978,4.2249,0.0,0.0,0.0,0.0,0.0,0.0,0.0,0.0,0.0,0.0,0.0,0.0,4.4719,4.4719,0.0,0.0,0.0,0.0,0.0,0.0,4.2738,4.2141,4.1532,0.0,0.0,0.0,0.0,0.0,0.0,0.0,0.0,0.0,3.794,3.8401,3.8456,3.9215,4.0146,3.998,4.0363,4.1069,4.1988,4.2618,4.3141,4.3794,4.433,4.4695,4.4695,4.433,4.3964,4.3964,4.3546,4.3323,4.3925,4.4434,4.4967,4.5672,4.7055,4.8257,4.8631,5.0566,5.2297,5.3101,5.5166,5.7187,5.8776,6.0138,6.1574,6.3189,6.405,6.4726,6.5279,6.6359,6.7464,6.8475,6.908,6.9406,6.9406,6.9406,6.9406,6.9406,6.9406,6.9406,6.9406,6.9406,6.9406,6.9406,6.9406,6.9406,6.9406,6.9406,0.0,0.0,6.9406,6.9383,6.9338,6.9338,6.9316,6.927,6.927,6.8999,6.8635,0.0,0.0,0.0,0.0,0.0,0.0,3.9183,3.9818,4.0334,4.0691,4.1489,4.2141,4.2493,4.2548,4.2641,0.0,0.0,0.0,0.0,0.0,0.0,0.0,0.0,0.0,0.0,0.0,4.3606,4.3606,4.3606,0.0,0.0,0.0,0.0,0.0,0.0,4.1815,4.0904,4.0648,0.0,0.0,0.0,0.0,0.0,0.0,0.0,0.0,0.0,0.0,3.7446,3.8168,3.8711,3.9193,3.9664,4.0134,4.068,4.1622,4.2196,4.2644,4.3206,4.3506,4.3676,4.3676,4.3532,4.3363,4.3363,4.3167,4.3062,4.331,4.3807,4.4382,4.4956,4.6212,4.7542,4.8674,5.0221,5.1771,5.3209,5.5083,5.6867,5.8335,6.0182,6.172,6.2689,6.4307,6.5545,6.6157,6.6686,6.7339,6.8095,6.8625,6.9077,6.9381,6.9406,6.9406,6.9406,6.9406,6.9406,6.9406,6.9406,6.9406,6.9406,6.9406,6.9406,6.9406,6.9406,0.0,0.0,6.9406,6.9406,6.9406,6.9406,6.9406,6.9406,6.9406,6.9293,6.9112,0.0,0.0,0.0,0.0,0.0,3.8504,3.9099,3.9898,4.0621,4.1032,4.1776,4.2439,4.2858,4.2913,4.2913,4.2913,0.0,0.0,0.0,0.0,0.0,0.0,0.0,0.0,0.0,0.0,4.2913,4.2913,4.2913,4.2913,0.0,0.0,4.2587,4.2005,0.0,0.0,0.0,0.0,0.0,0.0,0.0,0.0,0.0,0.0,0.0,0.0,0.0,0.0,0.0,0.0,0.0,3.8515,3.9177,3.9757,4.0319,4.1175,4.1812,4.2264,4.2657,4.2879,4.2997,4.2997,4.2879,4.2762,4.2762,4.2618,4.2566,4.2722,4.3232,4.3794,4.4356,4.5584,4.6958,4.8329,4.9819,5.1372,5.3027,5.4914,5.6642,5.8107,6.0193,6.1788,6.2527,6.4539,6.6147,6.6955,6.7091,6.7475,6.8186,6.8436,6.8809,6.9381,6.9406,6.9406,6.9406,6.9406,6.9406,6.9406,6.9406,6.9406,6.9406,6.9406,6.9406,6.9406,6.9406,0.0,0.0,6.9406,6.9406,6.9406,6.9406,6.9406,6.9406,6.9406,6.9406,6.9406,0.0,0.0,0.0,0.0,0.0,0.0,3.8827,4.0163,4.1086,4.1086,4.2141,4.2885,4.2913,4.2913,4.2913,4.2913,0.0,0.0,0.0,0.0,0.0,0.0,0.0,0.0,0.0,0.0,4.2913,4.2913,4.2913,4.2913,4.2913,4.2913,4.2587,4.1978,0.0,0.0,0.0,0.0,0.0,0.0,0.0,0.0,0.0,0.0,0.0,0.0,0.0,0.0,0.0,0.0,0.0,0.0,0.0,3.9037,3.9926,4.0617,4.1471,4.2199,4.2225,4.2591,4.2997,4.2997,4.2605,4.2225,4.2225,4.1755,4.1507,4.2081,4.2644,4.3193,4.3807,4.5324,4.667,4.7229,4.9281,5.1204,5.2354,5.4471,5.6545,5.8296,6.0157,6.1753,6.2865,6.47,6.6272,6.7421,6.7477,0.0,6.9121,6.8737,6.8786,6.9378,6.9406,6.9406,6.9406,6.9406,6.9406,6.9406,6.9406,6.9406,6.9406,6.9406,6.9406,6.9406,0.0,0.0,0.0,6.9406,6.9406,6.9406,6.9406,6.9406,6.9406,6.9406,6.9406,6.9406,0.0,0.0,0.0,0.0,0.0,0.0,0.0,3.9911,4.0815,4.0815,4.2033,4.2913,4.2913,4.2913,4.2913,4.2913,0.0,0.0,0.0,0.0,0.0,0.0,0.0,0.0,0.0,0.0,4.2913,4.2913,4.2913,4.2913,4.2913,4.2913,4.2358,4.1396,4.1195,4.0528,0.0,0.0,0.0,0.0,0.0,0.0,0.0,0.0,0.0,0.0,0.0,0.0,0.0,0.0,0.0,0.0,0.0,0.0,0.0,4.0047,4.0663,4.1195,4.1034,4.139,4.1834,4.1834,4.1703,4.1585,4.1585,4.1442,4.1338,4.1559,4.233,4.3062,4.3245,4.5049,4.667,4.7202,4.8915,5.0723,5.2276,5.4158,5.6144,5.8244,6.113,6.3687,6.5616,6.6044,6.6708,6.7889,6.7667,6.801,6.9142,6.9063,6.9268,6.9918,6.9609,6.9406,6.9406,6.9406,6.9406,6.9406,6.9406,6.9406,6.9406,6.9406,6.9406,0.0,0.0,0.0,0.0,6.9406,6.9406,6.9406,6.9406,6.9406,6.9406,6.9406,6.9406,6.9406,0.0,0.0,0.0,0.0,0.0,0.0,0.0,3.9482,4.0328,4.0519,4.1627,4.2497,4.2728,4.2852,4.2913,4.2913,0.0,0.0,0.0,0.0,0.0,0.0,0.0,0.0,0.0,4.2913,4.2913,4.2913,4.2913,4.2913,4.2913,4.2913,4.2385,4.1423,4.1195,4.0555,0.0,0.0,0.0,0.0,0.0,0.0,3.569,0.0,0.0,0.0,0.0,0.0,0.0,0.0,0.0,0.0,0.0,0.0,0.0,0.0,3.9917,4.0386,4.0261,4.0575,4.0972,4.0972,4.1129,4.1311,4.1311,4.1311,4.1311,4.1311,4.22,4.2997,4.2997,4.4905,4.667,4.7202,4.8941,5.0775,5.2276,5.4184,5.651,5.9464,6.2122,6.4606,6.6881,6.6852,6.7136,6.833,6.8156,6.85,6.9661,6.9562,6.9837,7.07,7.0212,6.9969,6.9969,6.9969,6.9969,6.9969,6.9969,6.9879,6.9699,6.9699,6.9609,0.0,0.0,0.0,0.0,6.9406,6.9406,6.9406,6.9406,6.9406,6.9406,6.9406,6.9406,6.9406,0.0,0.0,0.0,0.0,0.0,0.0,0.0,0.0,3.9656,4.0195,4.1031,4.18,4.2418,4.2731,4.2888,4.2913,0.0,0.0,0.0,0.0,0.0,0.0,0.0,0.0,0.0,4.294,4.2967,4.2967,4.3021,4.3021,4.3021,4.2994,4.2641,4.2032,4.1423,4.0811,4.0117,0.0,0.0,0.0,3.6839,3.6242,0.0,0.0,0.0,0.0,0.0,0.0,0.0,0.0,0.0,0.0,0.0,0.0,0.0,0.0,0.0,0.0,0.0,4.013,4.0409,4.0397,4.0841,4.1311,4.1311,4.1311,0.0,4.1364,4.2252,4.3023,4.3101,4.4957,4.6696,4.7255,4.9281,5.1204,5.2406,5.4628,5.7608,6.1521,6.303,6.4606,6.6881,6.7116,6.7566,6.8701,6.8805,6.9302,7.0468,7.0165,7.0447,7.1556,7.1189,7.0948,7.0882,7.0882,7.0882,7.0882,7.0882,7.0659,7.0235,7.0235,6.9991,0.0,0.0,0.0,0.0,6.9474,6.9474,6.9451,6.9406,6.9406,6.9406,6.9406,6.9406,6.9406,0.0,0.0,0.0,0.0,0.0,0.0,0.0,0.0,0.0,0.0,4.0768,4.1595,4.2406,4.256,4.2694,0.0,0.0,0.0,0.0,0.0,0.0,0.0,0.0,0.0,0.0,4.3359,4.3603,4.3603,4.4053,4.4284,4.4257,4.3808,4.3278,4.2668,4.2059,4.1191,4.0117,3.8901,0.0,0.0,3.6839,3.6242,0.0,0.0,0.0,0.0,3.569,3.569,0.0,0.0,0.0,0.0,0.0,0.0,0.0,0.0,3.915,3.9116,3.9126,0.0,4.0655,4.0446,4.0841,4.1311,0.0,4.1311,4.1416,4.1886,0.0,4.3258,4.4146,4.5506,4.6827,4.7847,4.9557,5.1376,5.2955,5.6292,5.9429,6.1749,6.303,6.4606,6.6881,6.7116,6.7566,6.8701,6.8805,6.914,6.9866,7.023,7.0762,7.144,7.18,7.1638,7.0904,7.0882,7.0882,7.0882,7.0882,7.0837,7.0726,7.0726,7.0659,0.0,0.0,0.0,7.0503,7.0145,7.0011,6.9966,6.9564,6.9406,6.9406,6.9406,6.9406,6.9406,0.0,0.0,0.0,0.0,0.0,0.0,0.0,0.0,0.0,0.0,0.0,0.0,0.0,0.0,0.0,0.0,0.0,0.0,0.0,0.0,0.0,0.0,0.0,4.3305,4.3305,4.389,4.4215,4.4215,4.4529,4.4719,4.4691,4.4378,4.389,4.3278,4.2385,4.1327,4.0171,3.9509,3.8711,3.7848,3.7262,0.0,0.0,0.0,0.0,0.0,3.569,3.569,0.0,3.569,3.5917,3.6296,0.0,0.0,0.0,0.0,3.8975,3.9053,3.893,3.9726,4.0538,4.0394,4.1026,4.1622,4.1498,4.1683,4.1946,4.2159,0.0,4.3676,4.4591,4.5898,4.7257,4.8422,5.0278,5.2475,5.5011,5.7695,6.0135,6.213,6.3168,6.4606,6.6881,6.7116,6.7566,6.8701,6.8805,6.9061,6.9657,7.0259,7.0834,7.1382,7.1984,7.2056,7.155,7.155,7.155,7.155,7.155,7.1439,7.1214,7.1214,7.1081,0.0,0.0,0.0,7.0859,7.0614,7.0503,7.0458,6.9944,6.9789,6.9744,6.9496,6.9406,6.9406,0.0,0.0,0.0,0.0,0.0,0.0,0.0,0.0,0.0,0.0,0.0,0.0,0.0,0.0,0.0,0.0,0.0,0.0,0.0,0.0,0.0,0.0,0.0,4.3848,4.3929,4.4529,4.4854,4.4854,4.4936,4.4963,4.4963,4.4881,4.446,4.3739,4.2641,4.1517,4.047,4.028,3.9563,3.8483,3.7876,0.0,0.0,0.0,0.0,0.0,0.0,0.0,0.0,3.569,3.569,3.5835,3.6513,0.0,0.0,0.0,0.0,0.0,3.9128,3.9761,4.0393,4.031,4.1201,4.2055,4.1926,4.2287,4.2673,4.2706,4.3494,4.4411,4.5236,4.657,4.7954,4.9259,5.1465,5.4148,5.7381,5.888,6.0449,6.2555,6.3489,6.4789,6.6907,6.7195,6.7671,6.8727,6.8805,6.9014,6.9553,7.0128,7.0677,7.1121,7.1801,7.2167,7.2167,7.2245,7.2297,7.2297,7.2297,7.21,7.1704,7.1704,7.1506,7.1104,0.0,0.0,7.1104,7.1037,7.1018,7.0948,7.0481,7.0302,7.0235,6.9722,6.9541,6.9519,0.0,0.0,0.0,0.0,0.0,0.0,0.0,0.0,0.0,0.0,0.0,0.0,0.0,0.0,0.0,0.0,0.0,0.0,0.0,0.0,0.0,4.3631,4.3739,4.4025,4.4556,4.5153,4.5464,4.5464,4.598,4.6237,4.621,4.5708,4.4867,4.3766,4.3075,4.2397,4.1652,4.0633,3.9791,3.9102,3.8494,0.0,0.0,0.0,0.0,0.0,0.0,0.0,0.0,3.569,3.569,3.5879,3.7008,0.0,0.0,0.0,0.0,0.0,3.9882,4.0487,4.0865,4.0404,4.1201,4.2238,4.2681,4.2855,4.336,4.4784,4.5223,4.5912,4.7766,4.8304,4.9097,5.091,5.3556,5.6092,5.8104,5.9803,6.1327,6.2633,6.4168,6.5652,6.6965,6.7561,6.8115,6.8753,6.8805,6.8832,6.8936,6.9506,6.9866,6.9945,7.099,7.1539,7.1539,7.2036,7.2297,7.2297,7.2297,7.2254,7.2188,7.2188,7.2144,7.21,0.0,7.21,7.2056,7.166,7.1506,7.1461,7.097,7.0793,7.0726,7.0235,7.0078,7.0011,0.0,0.0,0.0,0.0,0.0,0.0,0.0,0.0,0.0,0.0,0.0,0.0,0.0,0.0,0.0,0.0,0.0,0.0,0.0,0.0,4.332,4.4243,4.4297,4.4568,4.518,4.579,4.6264,4.6563,4.6834,4.6983,4.6983,4.6034,4.5301,4.4744,4.3781,4.3048,4.2412,4.1191,4.035,3.9699,0.0,0.0,0.0,0.0,0.0,0.0,0.0,0.0,0.0,0.0,3.569,3.5852,3.673,0.0,0.0,0.0,0.0,0.0,4.0117,4.0865,4.1609,4.1681,4.2372,4.3034,4.3181,4.3947,4.4805,4.5449,4.6368,4.7433,4.8701,4.9722,5.119,5.3684,5.5821,5.7641,5.906,6.0611,6.1999,6.3149,6.4534,6.5861,6.6991,6.7665,6.822,6.8753,6.8805,6.8805,6.8805,6.9375,6.9684,6.9684,7.052,7.0964,7.0964,7.1252,7.1696,7.2297,7.2297,7.2297,7.2297,7.2297,7.2297,7.2297,0.0,7.2297,7.2275,7.2078,7.199,7.1924,7.1461,7.1284,7.1214,7.0748,7.0414,7.0145,0.0,0.0,0.0,0.0,0.0,0.0,0.0,0.0,0.0,0.0,0.0,0.0,0.0,0.0,0.0,0.0,0.0,0.0,0.0,0.0,4.3455,4.4664,4.4719,4.5044,4.579,4.64,4.6956,4.7391,4.754,4.7513,4.7391,4.6454,4.5871,4.5545,4.4499,4.3685,4.3021,4.1803,4.0962,4.0334,0.0,0.0,0.0,0.0,0.0,0.0,0.0,0.0,0.0,0.0,0.0,0.0,0.0,0.0,0.0,3.8429,3.9373,4.0225,4.0361,4.13,4.2358,4.2967,4.3468,4.3853,4.4073,4.5142,0.0,0.0,0.0,4.898,4.9883,5.156,5.3717,5.6378,5.7776,5.906,6.0471,6.1695,6.2903,6.4032,6.5221,6.6269,6.7159,6.7811,6.8356,6.8779,6.8805,6.8805,6.8805,6.9244,6.9501,6.9501,7.0076,7.0389,7.0389,7.052,7.1043,7.1905,7.1905,7.1905,7.1905,7.1905,7.1958,7.2088,7.2088,7.2167,7.2297,7.2297,7.2297,7.2254,7.1902,7.1704,7.1572,7.1218,7.077,7.0347,0.0,0.0,0.0,0.0,0.0,0.0,0.0,0.0,0.0,0.0,0.0,0.0,0.0,0.0,0.0,0.0,0.0,0.0,0.0,0.0,4.3455,4.4664,4.4719,4.5234,4.64,4.7038,4.7364,4.7391,4.7907,4.788,4.7391,4.7309,4.6671,4.5573,4.4908,4.4297,4.3658,4.2439,4.1586,4.0989,4.0323,0.0,0.0,0.0,0.0,0.0,0.0,0.0,0.0,0.0,0.0,0.0,0.0,0.0,3.8456,3.9063,3.9671,4.0334,4.0881,4.1924,4.2967,4.3576,4.3766,4.4228,4.5912,4.6374,0.0,4.9249,0.0,0.0,0.0,5.4488,5.6484,5.8323,5.9159,6.0385,6.2658,6.3474,6.4288,6.5505,6.6741,6.7564,6.7643,6.8301,6.8753,6.8805,6.8805,6.8805,6.8805,6.8832,6.8858,6.8858,6.9448,6.9762,6.9762,7.0311,7.0651,7.0729,7.0729,7.0729,7.0729,7.0729,7.099,7.1461,7.1461,7.1775,7.2297,7.2297,7.2297,7.2297,7.2254,7.199,7.1616,7.1572,7.1262,7.0837,0.0,0.0,0.0,0.0,0.0,0.0,0.0,0.0,0.0,0.0,0.0,0.0,0.0,0.0,0.0,0.0,0.0,0.0,0.0,4.2913,4.3455,4.4664,4.4719,4.5261,4.6481,4.7092,4.7567,4.7907,4.8463,4.8666,4.8436,4.773,4.7173,4.6671,4.5708,4.4908,4.4297,4.3063,4.2222,4.1559,4.0605,3.9927,0.0,0.0,0.0,0.0,0.0,0.0,0.0,0.0,3.6964,3.7262,3.7859,3.8212,3.8602,3.9563,4.0296,4.0962,4.1951,4.2831,4.3794,4.5151,4.5477,0.0,0.0,4.7635,4.9033,5.0308,5.1448,0.0,0.0,5.7222,5.884,5.9891,6.1244,6.2488,6.3399,6.4453,6.5441,6.624,6.7422,6.8265,6.8657,6.9303,6.9677,6.9677,6.9677,6.9677,6.9677,6.9677,6.9677,6.9677,6.9909,6.987,6.9573,6.9789,6.9774,6.9506,7.0232,7.0598,7.0598,7.0598,7.0703,7.0886,7.0886,7.1226,7.1748,7.1748,7.1958,7.2297,7.2297,7.2188,7.2034,7.2034,7.1748,7.1351,0.0,0.0,0.0,0.0,0.0,0.0,0.0,0.0,0.0,0.0,0.0,0.0,0.0,0.0,0.0,0.0,0.0,0.0,4.2587,4.2804,4.3455,4.4664,4.4719,4.5261,4.6481,4.7092,4.7663,4.8205,4.9005,4.9276,4.9087,4.83,4.773,4.7364,4.6346,4.5545,4.4908,4.37,4.2831,4.2195,4.1175,4.0551,0.0,0.0,0.0,0.0,0.0,0.0,0.0,0.0,3.7631,3.7848,3.8266,3.8548,3.8874,3.99,4.0621,4.1369,4.2587,4.3631,4.4717,4.6128,4.7079,4.7663,4.7853,4.9114,5.058,5.1557,5.3347,0.0,0.0,0.0,0.0,6.1722,6.3019,6.4107,6.4673,6.5732,6.668,6.7289,6.8257,6.902,6.9441,6.9927,7.0212,7.0212,7.0212,7.0212,7.0212,7.0212,7.0212,7.0212,7.0212,7.0042,6.9713,6.9713,6.9547,6.9242,7.0078,7.0325,7.0028,7.0028,7.0128,7.0311,7.0311,7.0624,7.1147,7.133,7.1748,7.2297,7.2297,7.2297,7.2297,7.2297,7.21,7.1836,0.0,0.0,0.0,0.0,0.0,0.0,0.0,0.0,0.0,0.0,0.0,0.0,0.0,0.0,0.0,0.0,0.0,0.0,4.2005,4.256,4.3455,4.4625,4.4719,4.5261,4.6481,4.7092,4.7663,4.8205,4.9412,4.9697,4.9114,4.9087,4.849,4.7391,4.678,4.6183,4.5518,4.4309,4.3468,4.2858,4.2249,4.1272,4.0225,0.0,0.0,0.0,0.0,0.0,0.0,0.0,3.7913,3.8401,3.8401,3.8819,3.9427,4.0035,4.0648,4.1396,4.2587,4.4243,4.5763,4.6373,4.8287,5.0158,5.077,5.0932,5.1448,5.3266,5.5545,5.7787,5.9578,6.042,0.0,6.393,6.4292,6.4943,6.6779,6.7539,6.8128,6.8752,6.947,6.9918,6.9918,7.011,7.0212,7.0212,7.0212,7.0212,7.0212,7.0212,7.0212,7.0212,7.0212,7.0212,7.0212,7.0212,7.0212,7.0212,7.0212,6.9692,6.8805,6.8805,6.914,6.9684,6.9684,7.0023,7.0624,7.1173,7.1748,7.2297,7.2297,7.2297,7.2297,7.2297,7.2297,7.2297,0.0,0.0,0.0,0.0,0.0,0.0,0.0,0.0,0.0,0.0,0.0,0.0,0.0,0.0,0.0,0.0,0.0,0.0,4.1978,4.256,4.3238,4.4025,4.4474,4.5071,4.5844,4.7229,4.8246,4.8843,4.9616,4.9914,4.9724,4.9304,4.868,4.7934,4.7377,4.6563,4.5545,4.4785,4.408,4.3441,4.2412,4.1788,4.1381,0.0,0.0,0.0,0.0,0.0,0.0,0.0,0.0,0.0,3.9036,3.9454,4.0063,4.0675,4.1559,4.2629,4.385,4.5193,4.6577,4.7975,4.9155,5.0484,5.2371,5.2805,0.0,0.0,5.8058,5.9894,6.042,6.2048,0.0,6.4201,6.5368,6.6535,6.7512,6.8155,6.8915,6.9927,7.0242,7.0561,7.0994,7.1082,7.1109,7.1109,7.1109,7.1109,7.1109,7.1109,7.1109,7.1109,7.1109,7.0967,7.0615,7.0615,7.0472,7.0212,7.0212,6.9877,6.9299,6.9299,6.9217,6.9088,6.9088,6.9401,7.0023,7.099,7.1513,7.1696,7.214,7.2297,7.2297,7.2297,7.2297,7.2297,0.0,0.0,0.0,0.0,0.0,0.0,0.0,0.0,0.0,0.0,3.8684,3.8997,0.0,0.0,0.0,0.0,0.0,0.0,0.0,4.2222,4.2913,4.3766,4.4378,4.5098,4.5925,4.7215,4.8056,4.8436,4.948,4.9996,4.9996,4.9643,4.9005,4.8178,4.7853,4.7065,4.5925,4.5316,4.4719,4.408,4.309,4.2484,4.2077,0.0,0.0,0.0,0.0,0.0,0.0,0.0,0.0,0.0,3.9852,4.018,4.0645,4.152,4.2461,4.3527,4.4991,4.6171,4.7429,4.9199,5.0379,5.1774,5.4433,5.503,5.5724,5.814,5.9785,6.1071,6.2021,6.3333,0.0,6.526,6.6291,6.7295,6.8155,6.878,6.954,7.047,7.0795,7.1114,7.1467,7.1494,7.1494,7.1494,7.1494,7.1494,7.1494,7.1494,7.1494,7.1494,7.1494,7.1352,7.1062,7.1062,7.0967,7.0723,7.0723,7.0472,7.0021,6.9857,6.9527,6.905,6.8889,6.914,6.9736,7.0442,7.099,7.1435,7.1801,7.2088,7.2297,7.2297,7.2297,7.2297,0.0,0.0,3.4439,3.4439,0.0,0.0,0.0,0.0,0.0,0.0,3.8581,3.902,0.0,0.0,0.0,0.0,0.0,0.0,0.0,0.0,4.2493,4.3658,4.4351,4.5234,4.64,4.7065,4.7391,4.7391,4.9087,4.9914,4.9914,4.9969,4.9385,4.8287,4.8232,4.7609,4.6536,4.5871,4.5314,4.4756,4.409,4.3336,4.2579,4.2469,0.0,0.0,0.0,0.0,0.0,0.0,0.0,0.0,4.0824,4.1018,4.1305,4.2528,4.3357,4.4258,4.6002,4.7189,4.835,5.0173,5.1887,5.3873,5.6727,5.7472,5.8189,6.0355,6.098,6.1777,6.3903,6.4427,6.5097,6.6733,6.7105,6.7566,6.8725,6.9384,7.0008,7.0605,7.1168,7.1494,7.1494,7.1494,7.1494,7.1494,7.1494,7.1494,7.1494,7.1494,7.1494,7.1494,7.1494,7.1494,7.1494,7.1494,7.1494,7.1494,7.1494,7.1292,7.0839,7.0431,7.0001,6.9547,6.9076,6.9176,6.9668,6.9705,7.0311,7.1252,7.1304,7.1696,7.2219,7.2219,7.2245,7.2297,0.0,0.0,3.4714,3.4714,0.0,0.0,0.0,0.0,0.0,0.0,0.0,0.0,0.0,0.0,0.0,0.0,0.0,0.0,0.0,0.0,4.2331,4.3048,4.4122,4.5044,4.579,4.6834,4.7391,4.7391,4.868,4.9276,4.9304,4.9779,4.9616,4.8897,4.8422,4.7826,4.7146,4.6061,4.5647,4.5634,4.4541,4.4111,4.402,4.3082,4.2675,0.0,0.0,0.0,0.0,0.0,0.0,0.0,4.1632,4.1991,4.2544,4.3274,4.4273,4.5382,4.6735,4.7939,4.9251,5.1057,5.3935,5.6725,5.8322,5.9578,6.0487,6.076,6.2265,6.3713,6.4201,6.5477,6.6562,6.6942,6.7783,6.8671,6.9411,7.0036,7.0632,7.1222,7.1412,7.1494,7.1494,7.1494,7.1494,7.1494,7.1494,7.1494,7.1494,7.1494,7.1494,7.1494,7.1494,7.1494,7.1494,7.1494,7.1494,7.1494,7.1494,7.1433,7.1332,7.0859,7.0431,7.0021,6.9547,6.9414,6.9551,6.9648,6.984,7.0102,7.0598,7.1095,7.1592,7.1592,7.1905,7.2297,0.0,0.0,0.0,0.0,0.0,0.0,0.0,0.0,0.0,0.0,0.0,0.0,0.0,0.0,0.0,0.0,0.0,0.0,0.0,0.0,4.2114,4.3278,4.3944,4.4677,4.5573,4.6237,4.6671,4.6983,4.7853,4.8572,4.9114,4.9412,4.9385,4.906,4.8476,4.7907,4.735,4.6571,4.6155,4.5968,4.5451,4.5234,4.5132,4.4188,4.3899,4.3882,4.3001,0.0,0.0,0.0,0.0,0.0,0.0,0.0,4.3308,4.4188,4.5135,4.6209,4.7701,4.8904,5.0352,5.2925,5.5451,5.7701,5.9192,6.0827,6.2045,6.213,6.3283,6.4482,6.5051,6.6164,6.7105,6.7376,6.821,6.9024,6.9628,7.0225,7.0822,7.144,7.1494,7.1494,7.1494,7.1494,7.1494,7.1494,7.1494,7.1494,7.1494,7.1494,7.1494,7.1494,7.1494,7.1494,7.1494,7.1494,7.1494,7.1494,7.1494,7.1494,7.1474,7.1001,7.0696,7.0452,7.0021,6.9713,6.9512,6.9573,6.9658,6.9736,7.0049,7.052,7.1043,7.1304,7.1592,7.1905,0.0,0.0,0.0,0.0,0.0,0.0,0.0,0.0,0.0,0.0,0.0,0.0,0.0,0.0,0.0,0.0,0.0,0.0,0.0,0.0,0.0,4.3576,4.3739,4.4255,4.5274,4.5491,4.5844,4.6346,4.6956,4.7771,4.8802,4.8897,4.9005,4.9087,4.8545,4.8042,4.7593,4.7285,4.6785,4.63,4.6406,4.6326,4.6073,4.5459,4.5328,4.534,4.434,4.3919,4.3722,4.3228,0.0,0.0,0.0,0.0,4.4031,4.5143,4.593,4.6841,4.867,5.0042,5.1711,5.486,5.6642,5.8068,5.9785,6.168,6.3169,6.3605,6.4311,6.5136,6.6124,6.683,6.7417,6.7925,6.8547,6.9113,6.9628,7.0307,7.0951,7.144,7.1494,7.1494,7.1494,7.1494,7.1494,7.1494,7.1494,7.1494,7.1494,7.1494,7.1494,7.1494,7.1494,7.1494,7.1494,7.1494,7.1494,7.1494,7.1494,7.1494,7.1474,7.1083,7.092,7.09,7.0472,7.0083,6.9733,6.9651,6.9651,6.9679,6.9679,6.9982,7.0494,7.0938,7.1173,7.1356,0.0,0.0,0.0,0.0,0.0,0.0,0.0,0.0,0.0,0.0,3.8022,3.8629,0.0,3.9292,3.9292,3.9292,3.9292,3.9563,4.0171,0.0,0.0,4.2994,4.3522,4.3875,4.4038,4.5057,4.5654,4.5708,4.6318,4.6983,0.0,0.0,4.8585,4.9101,4.8777,4.8585,4.8502,4.8166,4.7808,4.7444,4.6954,4.6851,4.6948,4.6343,4.6143,4.6139,4.597,4.5537,4.5047,4.4963,4.4582,0.0,0.0,0.0,4.52,4.5942,4.6616,4.7488,4.9368,5.1534,5.3753,5.5771,5.7635,5.9289,6.065,6.2532,6.404,6.4124,6.5605,6.6946,6.7093,6.7777,6.8345,6.8399,6.9074,6.9628,6.969,7.066,7.1412,7.1494,7.1494,7.1494,7.1494,7.1494,7.1494,7.1494,7.1494,7.1494,7.1494,7.1494,7.1494,7.1494,7.1494,7.1494,7.1494,7.1494,7.1494,7.1494,7.1494,7.1494,7.1494,7.1433,7.1413,7.1373,7.09,7.0676,7.0594,7.0247,6.9889,6.9529,6.9529,6.9647,6.9814,6.9893,7.0259,7.0781,0.0,0.0,0.0,0.0,0.0,0.0,0.0,0.0,0.0,0.0,0.0,3.8239,3.921,3.9292,3.9292,3.9292,3.9292,3.9563,4.0171,4.1017,4.1776,4.2358,4.2967,4.3441,4.3794,4.4309,4.4921,4.56,4.5871,0.0,0.0,4.7373,4.815,0.0,0.0,4.8966,4.9404,4.9079,4.8849,4.8702,4.8632,4.8425,4.8137,4.7531,4.7082,4.6757,0.0,0.0,0.0,0.0,0.0,4.5464,4.5464,0.0,0.0,0.0,4.7222,4.8262,5.0817,5.2573,5.4218,5.6395,5.7856,5.9121,6.0722,6.2333,6.3672,6.4406,6.5806,6.699,6.7248,6.8131,6.8844,6.8844,6.9708,7.029,7.0083,7.11,7.1756,7.1534,7.1494,7.1494,7.1494,7.1494,7.1494,7.1494,7.1494,7.1494,7.1494,7.1494,7.1494,7.1494,7.1494,7.1494,7.1494,7.1494,7.1494,7.1494,7.1494,7.1494,7.1494,7.1494,7.1494,7.1474,7.1292,7.1042,7.0798,7.0615,7.0267,6.9857,6.9609,6.954,6.9595,6.9684,6.9866,7.018,0.0,0.0,0.0,0.0,0.0,0.0,0.0,0.0,0.0,0.0,0.0,3.813,3.9183,0.0,0.0,0.0,3.9292,3.9563,4.0171,4.0772,4.1369,4.1978,4.2587,4.3103,4.3549,4.3801,4.4436,4.5471,4.5685,0.0,4.699,4.699,4.7826,0.0,4.9047,4.9265,0.0,0.0,0.0,0.0,4.9908,4.9692,4.9217,4.8739,0.0,4.7853,4.7388,0.0,0.0,0.0,0.0,0.0,0.0,4.642,0.0,0.0,0.0,4.9132,5.1759,5.3065,5.426,5.6578,5.7716,5.8783,6.0666,6.2027,6.3263,6.455,6.5769,6.6756,6.7271,6.8281,6.9065,6.9231,7.005,7.0567,7.0266,7.1269,7.187,7.1478,7.1573,7.1615,7.1514,7.1494,7.1494,7.1494,7.1494,7.1494,7.1494,7.1494,7.1494,7.1494,7.1494,7.1494,7.1494,7.1358,7.1195,7.106,7.106,7.106,7.106,7.106,7.106,7.106,7.1385,7.1312,7.0981,7.0981,7.0717,7.0308,6.998,6.9713,6.9517,6.9611,6.958,6.9553,0.0,0.0,0.0,0.0,0.0,0.0,0.0,0.0,0.0,0.0,0.0,3.8602,3.9237,3.9292,3.9292,3.9292,3.9292,3.9563,4.0171,4.0772,4.1369,4.1978,4.2587,0.0,4.294,4.377,4.4479,4.5119,4.5949,0.0,4.7262,4.7262,4.7764,4.8664,4.9221,4.9471,4.9594,0.0,0.0,0.0,0.0,4.9972,4.9943,0.0,0.0,0.0,0.0,0.0,0.0,0.0,0.0,0.0,0.0,0.0,0.0,0.0,0.0,0.0,5.1491,5.2756,5.4133,5.5987,5.7363,5.8783,6.0666,6.2027,6.3263,6.455,6.5769,6.6774,6.7385,6.8228,6.9003,6.9588,6.988,7.0029,7.0009,7.1058,7.1674,7.1268,7.1721,7.1916,7.1534,7.1494,7.1494,7.1494,7.1494,7.1494,7.1494,7.1494,7.1494,7.1494,7.1494,7.1494,7.1494,7.0951,7.0361,6.9772,6.9772,6.9772,6.9772,6.9772,6.9772,6.9873,7.1005,7.1474,7.1453,7.1453,7.1191,7.0778,7.0737,7.0226,6.9506,6.9512,6.9227,6.8936,0.0,0.0,0.0,0.0,0.0,0.0,0.0,0.0,0.0,0.0,0.0,0.0,0.0,3.9292,3.9292,3.9292,3.9644,3.9981,4.0198,4.1137,4.1859,4.2226,4.2839,4.3223,4.334,4.3655,4.4104,4.4698,4.547,4.6216,4.6989,4.7378,4.7825,4.832,4.9144,4.9812,5.0445,5.117,0.0,0.0,0.0,0.0,0.0,0.0,0.0,0.0,0.0,0.0,0.0,0.0,0.0,0.0,0.0,0.0,0.0,0.0,5.0043,5.083,5.2053,5.3037,5.4035,5.5468,5.6788,5.8109,5.957,6.0847,6.2083,6.3335,6.4561,6.5741,6.6735,6.8173,6.926,6.9484,7.0222,7.0676,7.0411,7.1095,7.1468,7.1049,7.1183,7.1164,7.077,7.073,7.0612,7.0354,7.0334,7.0334,7.0334,7.0334,7.0334,7.0334,7.0334,7.0334,7.0334,7.0144,6.9927,6.969,6.969,6.969,6.969,6.969,6.969,6.9717,7.0171,7.0551,7.0904,7.0904,7.1041,7.1231,7.092,7.0615,7.0267,6.9713,6.9403,6.9242,0.0,0.0,0.0,0.0,0.0,3.589,0.0,0.0,0.0,0.0,0.0,0.0,0.0,0.0,3.9671,3.9877,4.0348,4.0622,4.0622,4.1657,4.2359,4.2536,4.3085,4.3459,4.3586,4.3697,4.4026,4.4678,4.5397,4.6185,4.696,4.7547,4.7943,4.8165,4.919,5.0013,0.0,0.0,0.0,5.2096,0.0,0.0,5.1842,0.0,0.0,0.0,0.0,0.0,0.0,0.0,0.0,0.0,0.0,0.0,0.0,0.0,0.0,5.1111,5.2124,5.3037,5.3951,5.4948,5.6142,5.7435,5.888,5.9835,6.0947,6.2544,6.3588,6.4533,6.5769,6.7343,6.859,6.903,6.9939,7.0501,7.024,7.0901,7.1233,7.0839,7.0995,7.0931,7.0552,7.0513,7.0396,7.0122,6.9985,0.0,6.9906,6.9769,6.969,6.969,6.969,6.9601,6.9411,6.9384,6.9303,6.9113,6.9113,6.9113,6.9113,6.9113,6.9113,6.9113,6.9113,6.9547,7.0307,7.0307,7.0632,7.1155,7.0873,7.0779,7.0737,7.0165,6.9754,6.9465,0.0,3.531,3.569,3.569,3.5717,3.5944,3.6513,0.0,0.0,0.0,0.0,0.0,0.0,0.0,0.0,4.1055,4.1392,4.1541,4.1541,4.2361,4.2844,4.2844,4.3334,4.3626,4.361,4.3891,4.4315,4.4992,4.5861,4.6588,4.7194,4.78,4.8108,4.8193,4.9452,5.0,5.0112,0.0,5.2152,5.2714,0.0,5.3121,5.3698,0.0,0.0,0.0,5.3754,5.3754,0.0,0.0,0.0,0.0,0.0,0.0,0.0,0.0,0.0,0.0,0.0,0.0,0.0,5.4414,5.5496,5.6886,5.874,5.9161,5.9892,6.2336,6.2853,6.3263,6.4521,6.5713,6.6922,6.8186,6.8945,6.9367,6.9367,7.0388,7.0978,7.0601,7.1074,7.1292,7.0896,7.0865,7.0865,7.0865,7.0497,7.0263,7.0263,6.9891,6.9656,6.9656,6.9656,6.9357,6.878,6.878,6.8481,6.7892,6.7892,6.7892,6.7892,6.7892,6.7892,6.7892,6.7892,6.857,6.9636,6.9683,7.0036,7.0578,7.0578,7.067,7.0792,7.0798,7.0267,6.9547,3.5256,3.5581,3.569,3.569,3.6052,3.6541,3.7154,0.0,0.0,0.0,0.0,0.0,0.0,4.105,4.1494,4.1675,4.2157,4.2451,4.2451,4.3022,4.3488,4.3653,4.3819,4.3985,4.4174,4.4244,4.4392,4.4572,4.5737,4.6392,4.656,4.7616,4.8333,4.8783,4.9636,5.0253,5.0718,5.1941,0.0,0.0,5.3234,5.3529,0.0,0.0,0.0,0.0,0.0,5.499,0.0,0.0,5.3965,5.3712,0.0,0.0,0.0,0.0,0.0,0.0,5.1744,0.0,0.0,0.0,0.0,0.0,5.7659,5.8587,5.9526,6.0634,6.1605,6.2504,6.3263,6.4066,6.4842,6.5702,6.7473,6.8749,6.8749,6.903,6.9368,6.9707,6.9885,6.9998,7.0032,7.0022,6.9909,0.0,6.9492,6.9435,6.9435,6.9053,6.8689,6.8427,6.8407,6.8326,6.8155,6.8155,6.8055,6.7892,6.7892,6.7892,6.7892,6.7892,6.7892,6.7892,6.7892,6.8082,6.8435,6.8869,6.9384,7.0008,7.0415,7.0607,7.0676,7.0759,7.0656,7.0349,3.55,3.569,3.5781,3.6025,3.6361,3.6935,0.0,0.0,0.0,0.0,0.0,0.0,0.0,0.0,4.3136,4.3385,4.384,4.4081,4.4081,4.4498,4.4662,4.4542,4.4542,4.4501,4.4413,4.4413,4.4413,0.0,4.5689,4.6307,4.6335,0.0,0.0,0.0,4.9692,5.0478,0.0,0.0,0.0,0.0,5.4105,0.0,0.0,5.5539,5.5763,0.0,0.0,0.0,5.6226,5.5876,5.5514,0.0,0.0,0.0,0.0,0.0,0.0,0.0,0.0,0.0,0.0,0.0,0.0,0.0,5.6845,5.7547,5.8347,5.9483,6.0313,6.11,6.1998,6.2645,6.3251,6.3914,6.5432,6.6809,6.7596,6.7934,6.8327,6.8945,6.903,6.9079,6.9177,6.942,6.9467,6.9226,6.928,6.9297,6.9127,6.8731,6.8389,6.816,6.7988,6.7892,6.7892,6.7892,6.7892,6.7892,6.7892,6.7892,6.7892,6.7892,6.7892,6.7892,6.7892,6.7892,6.7919,6.8291,6.878,6.9384,6.9981,7.0388,7.064,7.0974,7.0961,7.0737,0.0,3.577,3.596,3.6569,3.6732,3.724,0.0,0.0,0.0,0.0,4.1627,4.2602,4.382,4.4453,4.4991,4.5533,4.5814,4.5924,4.5924,4.6157,4.6026,4.544,4.5412,4.516,4.461,0.0,0.0,0.0,0.0,0.0,0.0,0.0,0.0,0.0,4.972,5.0718,5.1969,0.0,0.0,5.4007,5.5131,5.5973,0.0,0.0,5.759,0.0,5.7759,5.7815,5.7787,5.7692,5.7072,0.0,0.0,0.0,0.0,0.0,5.4498,0.0,0.0,0.0,0.0,0.0,0.0,0.0,5.6268,5.6408,5.6886,5.8627,5.8993,5.9386,6.0666,6.134,6.1914,6.2588,6.315,6.4195,6.6135,6.6848,6.7438,6.8102,6.8243,6.8327,6.8383,6.8945,6.9311,6.9311,6.9523,6.9485,6.9092,6.877,6.8598,6.8503,6.816,6.7949,6.7892,6.7892,6.7892,6.7892,6.7892,6.7892,6.7892,6.7892,6.7892,6.7892,6.7892,6.7892,6.7892,6.7892,6.8237,6.8752,6.9357,6.9981,7.0578,7.1195,7.1197,7.0859,3.6138,3.6248,3.6441,3.7056,3.7579,0.0,0.0,0.0,0.0,0.0,4.2507,4.4136,0.0,0.0,0.0,4.6133,4.6182,4.6206,4.6206,4.6283,4.6251,4.6111,4.6111,4.6055,4.5914,0.0,0.0,0.0,0.0,0.0,0.0,0.0,0.0,0.0,4.9943,5.0942,5.2574,0.0,0.0,5.5215,5.5931,0.0,5.7337,5.8446,5.8852,5.8965,6.002,6.0385,6.0264,0.0,5.8988,5.8549,0.0,0.0,0.0,0.0,0.0,0.0,0.0,0.0,0.0,0.0,0.0,0.0,5.6268,5.6408,5.6661,5.7547,5.7759,5.8109,5.933,5.9667,6.0116,6.1284,6.1537,6.2453,6.4831,6.5252,6.5562,6.6163,6.6669,6.7157,6.7663,6.8299,6.8664,6.8664,6.9153,6.9298,6.8892,6.9244,6.9184,6.8522,6.8427,6.8236,6.7892,6.7892,6.7892,6.7892,6.7892,6.7892,6.7892,6.7892,6.7892,6.7892,6.7892,6.7892,6.7892,6.7892,6.7973,6.8155,6.8752,6.933,6.9954,7.0551,7.1026,7.1312,3.6332,3.6653,3.704,3.7648,0.0,0.0,0.0,0.0,0.0,4.2533,4.4402,4.5996,0.0,0.0,0.0,4.8131,4.8159,4.8159,0.0,0.0,4.7865,4.7235,4.7194,4.6926,0.0,0.0,0.0,0.0,0.0,0.0,0.0,0.0,0.0,0.0,0.0,0.0,0.0,0.0,5.5314,5.6451,5.6788,0.0,5.839,5.9302,5.9864,6.0229,6.0863,6.12,6.1295,6.0992,6.0692,0.0,0.0,5.8965,5.8291,0.0,5.7082,5.615,0.0,0.0,0.0,5.5335,0.0,0.0,0.0,5.5959,5.6127,5.676,5.6901,5.7182,5.8137,5.8306,5.8615,5.9542,5.9711,6.0357,6.2183,6.3015,6.3746,6.4645,6.5039,6.5443,6.6078,6.6725,6.7343,6.7962,6.8608,6.8855,6.8654,6.904,6.9077,6.8658,6.8547,6.8408,6.8198,6.8007,6.7892,6.7892,6.7892,6.7892,6.7892,6.7892,6.7892,6.7892,6.7892,6.7892,6.7892,6.7892,6.7892,6.7946,6.8562,6.9167,6.9772,7.0388,7.0978,7.1453,3.6534,3.6995,3.7605,3.8225,0.0,0.0,0.0,0.0,4.3207,4.4895,4.6436,4.7644,0.0,0.0,0.0,0.0,0.0,5.0365,0.0,0.0,0.0,0.0,4.8543,4.8021,0.0,0.0,0.0,0.0,0.0,0.0,0.0,0.0,0.0,0.0,0.0,0.0,0.0,0.0,0.0,5.7696,0.0,5.8451,5.947,6.0325,6.1035,6.1594,6.1929,6.2244,6.2569,6.267,0.0,6.2141,6.1522,6.0982,0.0,0.0,0.0,0.0,0.0,0.0,0.0,0.0,0.0,5.5569,0.0,0.0,0.0,5.6127,5.624,5.6436,5.7097,5.7225,5.7422,5.8025,5.8137,5.8474,5.9442,6.0453,6.165,6.3111,6.3364,6.3661,6.4212,6.4898,6.5797,6.6904,6.7709,6.813,6.813,6.8524,6.877,6.8808,6.8554,6.8442,6.8503,6.8102,6.7892,6.7892,6.7892,6.7892,6.7892,6.7892,6.7892,6.7892,6.7892,6.7892,6.7892,6.7892,6.7892,6.7946,6.8454,6.9059,6.9744,7.0253,7.0877,7.1494,3.692,3.7415,3.8032,3.8698,0.0,0.0,0.0,0.0,4.4995,4.7378,4.7856,4.8458,0.0,0.0,0.0,0.0,0.0,0.0,5.1604,0.0,0.0,0.0,0.0,0.0,4.9578,0.0,0.0,0.0,0.0,0.0,0.0,0.0,0.0,0.0,5.1491,0.0,0.0,0.0,5.6729,0.0,5.9218,5.9667,0.0,6.1926,6.2859,6.3413,6.4851,6.5555,6.5783,0.0,6.4849,6.4513,0.0,6.2831,0.0,0.0,0.0,0.0,0.0,0.0,0.0,0.0,5.6372,0.0,0.0,0.0,5.5524,5.558,0.0,5.5805,5.6408,0.0,0.0,5.7394,5.7506,5.7562,5.7703,5.7843,5.8799,6.1116,6.1874,6.2223,6.2307,6.3335,6.4308,6.5056,6.6163,6.6837,6.6837,6.7926,6.8615,6.878,6.842,6.8313,6.8503,6.8102,6.7892,6.7892,6.7892,6.7892,6.7892,6.7892,6.7892,6.7892,6.7892,6.7892,6.7892,6.7892,6.7892,6.7892,6.7973,6.8706,6.969,6.9772,7.0524,7.1494,3.7607,3.8028,3.8685,3.9303,0.0,0.0,0.0,0.0,4.6929,4.7968,4.9357,0.0,0.0,0.0,0.0,0.0,0.0,0.0,0.0,0.0,0.0,0.0,0.0,0.0,0.0,0.0,0.0,0.0,4.9776,0.0,0.0,0.0,0.0,0.0,5.2941,0.0,5.5396,0.0,5.8081,0.0,0.0,0.0,0.0,6.3228,6.4093,6.5015,6.5896,6.6284,6.6376,0.0,6.6205,0.0,0.0,0.0,0.0,0.0,0.0,0.0,0.0,0.0,0.0,0.0,0.0,0.0,0.0,0.0,5.5496,0.0,0.0,0.0,0.0,0.0,0.0,0.0,5.5244,5.5384,5.5735,5.5763,5.6691,5.9177,6.0004,6.0678,6.1425,6.2268,6.3026,6.3645,6.4488,6.532,6.605,6.6922,6.7591,6.8047,6.7809,6.7902,6.834,6.7699,6.7539,6.7892,6.7892,6.7892,6.7892,6.7892,6.7892,6.7892,6.7892,6.7892,6.7892,6.7892,6.7892,6.7919,6.8291,6.895,6.969,6.969,7.047,7.1494,3.866,0.0,0.0,0.0,0.0,0.0,0.0,0.0,0.0,0.0,0.0,0.0,5.2779,5.3951,0.0,0.0,0.0,5.5603,0.0,0.0,5.5268,0.0,0.0,0.0,0.0,0.0,0.0,0.0,0.0,0.0,0.0,0.0,0.0,0.0,0.0,5.5594,5.6609,0.0,0.0,6.0763,6.2654,6.418,6.5306,6.5224,6.5862,6.687,6.7396,6.7589,6.7622,6.7844,6.7696,0.0,6.6331,0.0,0.0,0.0,0.0,0.0,6.1803,0.0,0.0,0.0,0.0,0.0,0.0,0.0,0.0,0.0,0.0,0.0,0.0,0.0,0.0,0.0,0.0,5.3838,5.4274,5.4358,5.5201,5.7519,5.8334,5.9133,6.0216,6.0875,6.1493,6.2094,6.301,6.3954,6.4881,6.5854,6.6623,6.7241,6.7132,6.7424,6.8197,6.7393,6.7295,6.7892,6.7892,6.7892,6.7892,6.7892,6.7892,6.7892,6.7892,6.7892,6.7892,6.7892,6.7892,6.7946,6.8562,6.9167,6.9717,6.99,7.0605,7.1494,4.0292,4.0083,0.0,0.0,0.0,0.0,0.0,0.0,0.0,0.0,0.0,0.0,0.0,0.0,0.0,0.0,0.0,5.8165,5.8165,0.0,5.7309,0.0,0.0,0.0,0.0,0.0,0.0,0.0,0.0,0.0,0.0,0.0,0.0,0.0,0.0,5.6466,5.6666,5.9095,6.0723,6.1822,6.3695,6.6137,6.8627,0.0,6.8561,6.9212,7.0211,0.0,0.0,7.0581,6.9769,0.0,0.0,0.0,0.0,0.0,0.0,0.0,0.0,0.0,0.0,6.0714,0.0,0.0,0.0,0.0,5.6683,0.0,0.0,0.0,0.0,0.0,0.0,0.0,0.0,0.0,0.0,5.3726,5.4414,5.624,5.7041,5.7703,5.8334,5.8952,5.9555,6.0129,6.1898,6.2937,6.2993,6.4712,6.6022,6.6595,6.6493,6.7009,6.8197,6.7393,6.7295,6.7892,6.7892,6.7892,6.7892,6.7892,6.7892,6.7892,6.7892,6.7892,6.7892,6.7892,6.7892,6.7946,6.8562,6.9167,6.9772,7.0361,7.0978,7.1494,0.0,0.0,0.0,0.0,0.0,0.0,0.0,5.0051,0.0,0.0,0.0,0.0,0.0,0.0,5.8997,0.0,0.0,6.0224,6.0224,6.0178,0.0,0.0,0.0,5.8436,0.0,0.0,0.0,0.0,0.0,0.0,0.0,0.0,0.0,0.0,0.0,5.7527,0.0,0.0,0.0,0.0,0.0,6.8205,6.9466,0.0,0.0,7.0234,7.0587,7.0697,0.0,7.0697,7.0407,6.9914,6.9072,6.8492,6.7928,6.6638,6.5651,0.0,0.0,0.0,6.2324,6.1768,0.0,0.0,0.0,0.0,0.0,0.0,0.0,0.0,0.0,0.0,0.0,0.0,0.0,0.0,0.0,5.2784,5.3276,5.3894,5.5243,5.6395,5.697,5.7631,5.8418,5.9442,6.0088,6.1184,6.2797,6.3515,6.4516,6.5966,6.542,6.5748,6.7009,6.6601,6.6706,6.7322,6.7702,6.7892,6.7892,6.7892,6.7892,6.7892,6.7892,6.7892,6.7919,6.8345,6.8508,6.859,6.9621,7.0117,7.0334,7.0524,7.0978,7.1494,4.2894,0.0,0.0,0.0,0.0,0.0,0.0,0.0,0.0,0.0,5.6622,0.0,5.9282,0.0,6.1294,0.0,6.2415,6.2559,6.2559,6.2702,0.0,6.1887,6.1465,0.0,0.0,0.0,0.0,0.0,0.0,5.6316,0.0,0.0,0.0,0.0,0.0,5.8958,6.0061,6.1338,6.2848,0.0,0.0,6.9466,0.0,0.0,7.1034,7.1394,0.0,7.1858,7.2032,7.18,7.1568,7.1191,7.0146,6.9682,6.9217,6.7957,6.6999,6.6244,6.5796,6.4751,0.0,6.3241,6.2332,0.0,6.0488,0.0,0.0,0.0,0.0,0.0,0.0,0.0,0.0,0.0,0.0,0.0,0.0,5.2124,5.2377,5.2377,5.3838,5.499,5.5412,5.6226,5.7041,5.7828,5.8684,5.9892,6.1505,6.2403,6.3459,6.4656,6.4569,6.5013,6.6025,6.6091,6.6408,6.7005,6.762,6.7892,6.7892,6.7892,6.7892,6.7892,6.7892,6.8,6.8264,6.8644,6.8942,6.9221,7.0198,7.0605,7.0632,7.0822,7.1168,7.1494,4.4135,0.0,0.0,0.0,4.7472,0.0,0.0,0.0,5.5014,0.0,5.9103,6.0584,6.1309,6.3036,6.4152,6.4181,6.4793,0.0,6.5186,6.5157,0.0,0.0,6.3574,6.2935,6.2254,0.0,0.0,0.0,0.0,0.0,0.0,0.0,0.0,0.0,5.9684,0.0,6.128,6.2616,6.3967,6.5418,6.7882,7.0047,7.1806,7.2427,7.27,7.2816,7.3425,7.4006,7.4412,7.3832,7.3222,7.2584,7.1952,7.1313,7.0552,6.9275,6.8869,6.855,6.7318,6.6057,6.5099,6.5041,0.0,0.0,0.0,0.0,6.0381,0.0,0.0,0.0,0.0,0.0,0.0,0.0,0.0,0.0,0.0,0.0,0.0,0.0,5.2882,5.3613,5.3641,5.4723,5.544,5.5496,5.7672,5.9077,0.0,6.1437,6.2769,6.2909,6.3885,6.4719,6.5354,6.5827,6.6354,6.695,6.7566,6.7865,6.7892,6.7892,6.7892,6.7892,6.7919,6.8264,6.8807,6.8861,6.9241,6.9799,7.0415,7.0632,7.0714,7.1304,7.1494,7.1494,4.6075,4.7509,4.8982,0.0,5.0473,5.1539,0.0,0.0,0.0,0.0,6.07,6.2238,6.3851,6.5302,6.636,6.6854,6.7463,0.0,0.0,0.0,0.0,6.6912,6.5793,6.4893,6.4286,6.2993,0.0,6.07,0.0,0.0,5.8784,0.0,0.0,0.0,0.0,0.0,6.1338,6.3589,6.578,6.7969,6.9565,7.1075,0.0,0.0,7.3919,7.4721,7.4449,7.442,7.4488,7.4325,7.4151,7.3803,7.2718,7.2253,7.1858,7.0581,6.9536,6.8724,6.8405,6.7376,6.629,6.5793,6.5083,6.4315,0.0,0.0,0.0,0.0,0.0,0.0,0.0,0.0,0.0,0.0,0.0,0.0,0.0,0.0,0.0,5.18,0.0,5.2475,5.2911,5.3684,5.4527,5.544,5.6086,5.7251,5.9105,5.9807,6.0971,6.2825,6.3069,6.367,6.4719,6.5191,6.5748,6.6354,6.6923,6.7458,6.7892,6.7892,6.7892,6.7919,6.8372,6.8671,6.8861,6.9784,7.0225,7.0415,7.1032,7.1277,7.1304,7.144,7.1494,7.1494,4.7642,4.9209,0.0,5.221,0.0,0.0,5.5171,0.0,0.0,6.0787,6.2383,0.0,6.5651,6.697,6.7986,6.8671,6.9554,0.0,0.0,0.0,0.0,6.8758,6.7725,6.6895,6.629,6.4996,0.0,6.2848,0.0,0.0,6.0961,0.0,0.0,0.0,0.0,6.2325,6.3022,6.5577,6.7667,6.9379,7.0901,0.0,0.0,7.4064,7.4895,7.5504,7.5436,7.5425,7.533,7.504,7.4953,7.476,7.3745,7.3251,7.2845,7.1829,7.086,7.0018,6.9711,6.8695,6.7638,6.7273,6.6506,6.5593,6.4632,6.3632,6.2703,0.0,0.0,0.0,0.0,0.0,0.0,0.0,0.0,0.0,0.0,0.0,0.0,0.0,5.18,5.1941,5.2264,5.2897,5.3684,5.4639,5.5187,5.6339,0.0,5.8908,6.0088,6.2055,6.2236,6.2897,6.4084,6.4563,6.5241,6.6109,6.6706,6.7322,6.7892,6.7892,6.8028,6.8318,6.8644,6.9105,6.9648,7.0307,7.0741,7.1032,7.1385,7.1494,7.1494,7.1494,7.1494,7.1494,4.9417,0.0,0.0,0.0,0.0,0.0,0.0,5.8638,0.0,6.2238,0.0,6.5825,6.7015,6.8434,6.9536,7.0122,0.0,7.1835,7.1249,7.1673,7.1458,7.0355,6.9583,6.8869,6.8293,6.6954,0.0,0.0,0.0,0.0,0.0,0.0,0.0,0.0,0.0,0.0,0.0,6.7853,6.9275,7.018,7.1905,7.3048,7.3832,7.5069,7.5563,7.5708,7.6365,7.6558,7.6413,7.5824,7.5621,7.5504,7.4847,7.4267,7.3716,7.3048,7.2369,7.169,7.1104,7.003,6.9043,6.8956,6.8044,6.6841,6.5651,6.5186,6.4693,6.3589,6.2325,6.1321,0.0,0.0,0.0,0.0,0.0,0.0,0.0,0.0,0.0,0.0,0.0,0.0,5.18,5.2264,5.2868,5.3529,5.4639,0.0,0.0,0.0,5.9598,6.0919,6.1431,6.229,6.3587,0.0,6.4834,6.6109,6.6625,6.7241,6.7892,6.7892,6.8237,6.8807,6.8888,6.9567,7.0605,7.0687,7.1032,7.1494,7.1494,7.1494,7.1494,7.1494,7.1494,7.1494,0.0,0.0,0.0,0.0,0.0,6.01,6.1689,6.1757,6.2296,6.4257,6.6173,6.7683,6.8376,7.0552,7.1974,7.209,7.3269,0.0,0.0,0.0,0.0,7.2932,7.1835,7.0889,7.0233,6.8956,6.7737,0.0,0.0,0.0,0.0,0.0,0.0,6.3861,6.4415,6.5954,6.8172,6.8591,0.0,7.1446,7.2282,7.3309,7.4412,7.5196,7.5824,7.6413,7.7033,7.6917,7.6471,7.6355,7.6326,7.621,7.5534,7.5254,7.504,7.4354,7.3356,7.2427,7.2294,7.1336,7.0233,6.9745,6.9031,6.826,6.7567,6.6144,6.4954,6.4722,6.3632,6.2426,6.1321,0.0,0.0,0.0,0.0,0.0,0.0,0.0,0.0,0.0,0.0,5.18,0.0,5.1913,5.2208,5.2826,0.0,0.0,0.0,0.0,5.8502,0.0,6.0775,0.0,0.0,0.0,6.4427,6.6109,6.6218,6.6815,6.7892,6.7892,6.8237,6.8834,6.933,6.9954,7.0632,7.1141,7.1412,7.1494,7.1494,7.1494,7.1494,7.1494,7.1494,7.1494,0.0,0.0,0.0,0.0,0.0,0.0,0.0,6.4979,0.0,6.6914,6.8437,6.996,7.1243,7.2795,7.4013,7.4686,7.5605,7.6161,7.615,7.5868,7.5575,7.5224,7.4001,0.0,7.2326,0.0,7.0236,6.8964,0.0,0.0,0.0,0.0,0.0,6.6121,6.6877,6.7816,0.0,0.0,0.0,7.2253,7.3193,7.4151,7.5127,7.6095,7.6695,7.7062,7.7682,7.774,7.7439,7.7091,7.6975,7.6859,7.622,7.5766,7.5446,7.5109,7.4325,7.3512,7.3193,7.241,7.1539,7.0935,7.0279,6.9536,6.8579,6.7638,6.6796,6.6115,6.4983,6.344,6.133,5.9568,0.0,0.0,0.0,0.0,0.0,0.0,0.0,0.0,0.0,0.0,0.0,0.0,0.0,0.0,0.0,0.0,0.0,0.0,5.8221,0.0,0.0,0.0,0.0,0.0,0.0,6.6109,6.6109,6.6733,6.7892,6.7892,6.8407,6.9276,6.9574,7.0225,7.1087,7.1385,7.1494,7.1494,7.1494,7.1494,7.1494,7.1494,7.1494,7.1494,0.0,5.9125,0.0,0.0,6.2706,0.0,6.5902,6.8062,6.9493,6.9345,7.0598,7.222,7.4032,7.4934,7.5878,7.7011,7.7719,7.8102,7.811,7.8102,7.7866,7.7335,7.6114,7.517,7.4634,7.3707,7.2663,0.0,0.0,0.0,0.0,0.0,0.0,0.0,0.0,0.0,0.0,0.0,7.2577,7.3357,7.4511,7.5385,7.6095,7.7136,7.7612,7.7796,7.8388,7.8582,7.8524,7.7972,7.7711,7.7507,7.6888,7.6336,7.5882,7.5766,7.5243,7.4615,7.4122,7.3425,7.2642,7.2039,7.1382,7.061,6.9478,6.8985,6.8521,6.7492,6.6086,6.4278,6.1939,6.0782,0.0,0.0,0.0,0.0,0.0,0.0,0.0,0.0,0.0,0.0,0.0,0.0,0.0,0.0,0.0,0.0,5.5243,0.0,0.0,0.0,0.0,6.1231,6.3587,0.0,6.3794,6.6109,6.6109,6.6733,6.7892,6.8028,6.8679,6.969,6.9846,7.0497,7.1494,7.1494,7.1494,7.1494,7.1494,7.1494,7.1494,7.1494,7.1494,7.1494,0.0,0.0,0.0,0.0,0.0,0.0,6.9162,7.0672,7.1401,7.077,7.2368,7.4079,7.5472,7.6704,7.7719,7.8445,7.9046,7.94,7.9419,7.94,7.937,7.9311,7.8102,7.7405,7.7346,7.5554,7.4256,0.0,0.0,0.0,0.0,0.0,0.0,0.0,0.0,0.0,0.0,7.3544,7.4292,7.5452,7.6206,7.6901,7.7523,7.7827,7.832,7.8877,7.9124,7.922,7.922,7.9133,7.8756,7.8204,7.7537,7.7275,7.7101,7.6568,7.593,7.5388,7.5359,7.4441,7.3338,7.2671,7.205,7.1429,7.0697,6.9624,6.8782,6.8666,6.668,6.4829,6.4249,6.1974,6.0016,0.0,0.0,0.0,0.0,0.0,0.0,0.0,0.0,0.0,0.0,5.263,0.0,0.0,5.3318,0.0,0.0,0.0,0.0,5.9245,0.0,6.1481,6.356,6.3222,6.4081,6.6109,6.6109,6.6733,6.7919,6.8481,6.9078,6.9717,7.028,7.0877,7.1494,7.1494,7.1494,7.1494,7.1494,7.1494,7.1494,7.1494,7.1494,7.1494,0.0,0.0,0.0,0.0,0.0,0.0,0.0,7.2834,7.4006,7.4925,7.5736,7.6569,7.7509,7.8771,7.9824,8.0516,8.1141,8.1528,8.1528,8.1528,8.1349,8.0943,8.0051,7.9377,7.8972,7.7789,7.6866,0.0,0.0,0.0,0.0,0.0,0.0,0.0,0.0,7.3722,7.4433,7.4781,7.5695,7.6934,7.7169,7.7925,7.888,7.9388,7.9724,8.0028,8.0453,8.0629,8.059,8.0337,7.9667,7.8843,7.8204,7.7711,7.7362,7.712,7.6597,7.6017,7.5621,7.5109,7.4499,7.3454,7.3037,7.2573,7.1545,7.0906,7.0308,6.9554,6.7974,6.6344,6.5039,6.3536,6.1921,0.0,0.0,0.0,0.0,0.0,0.0,0.0,0.0,0.0,0.0,0.0,0.0,0.0,0.0,0.0,0.0,0.0,0.0,5.9679,0.0,6.1613,6.3923,6.3379,6.4224,6.6463,6.6221,6.6733,6.7919,6.8535,6.9322,7.028,7.0877,7.1277,7.1494,7.1494,7.1494,7.1494,7.1494,7.1494,7.1494,7.1494,7.1494,7.1494,6.5697,0.0,6.7448,0.0,7.026,7.1457,7.3223,7.4796,7.6322,7.7891,7.8609,7.9148,7.9645,8.0692,8.165,8.229,8.2967,8.3356,8.3356,8.3356,8.3147,8.2649,8.186,0.0,8.0704,7.9836,7.8968,7.81,7.7203,0.0,0.0,0.0,0.0,0.0,7.483,7.5286,7.5727,7.6361,7.7261,7.8327,7.8523,7.9263,8.0289,8.0641,8.0899,8.1068,8.1386,8.1495,8.1437,8.1166,8.0581,7.9812,7.8949,7.8349,7.7885,7.7507,7.712,7.6626,7.5969,7.565,7.5283,7.4383,7.4006,7.3571,7.2503,7.2097,7.1545,7.0093,6.8932,6.7683,6.6144,6.4922,6.3526,6.1641,0.0,0.0,0.0,0.0,0.0,0.0,0.0,5.4218,5.4218,5.4063,0.0,0.0,0.0,0.0,0.0,0.0,0.0,0.0,0.0,0.0,0.0,6.3674,6.4599,6.689,6.6482,6.6922,6.8111,6.8764,6.971,7.0877,7.1331,7.1494,7.1494,7.1494,7.1494,7.1494,7.1494,7.1494,7.1494,7.1494,7.1494,7.1494,6.7703,6.8511,6.9363,7.0649,7.198,7.3313,7.4676,7.6514,7.8011,7.8699,8.0513,8.174,8.177,8.2387,8.3027,8.3628,8.4305,8.4664,8.4664,8.4664,8.4664,0.0,0.0,8.2776,8.2747,8.1471,8.0105,7.8807,0.0,0.0,7.6779,0.0,7.6749,7.6749,7.6779,7.7137,7.7813,7.8489,7.916,7.9829,8.0506,8.1183,8.1744,8.1349,8.1546,8.2034,8.163,8.1495,8.1495,8.1476,8.1476,8.1223,7.9735,7.9278,7.9017,7.7769,7.7391,7.7246,7.6645,7.6017,7.5486,7.5475,7.4982,7.4325,7.3716,7.3048,7.2079,7.018,6.9263,6.8608,6.7974,6.6029,6.439,6.4005,0.0,0.0,0.0,0.0,0.0,0.0,5.6254,5.5468,5.5468,5.4948,0.0,0.0,0.0,0.0,0.0,0.0,0.0,6.0044,6.0734,0.0,6.4192,6.4175,6.5235,6.7295,6.689,6.7307,6.8511,6.9316,7.0361,7.1494,7.1494,7.1494,7.1494,7.1494,7.1494,7.1494,7.1494,7.1494,7.1494,7.1494,7.1494,7.1494,7.0209,7.09,7.1857,7.3363,7.3988,7.4839,7.6604,7.7801,7.8878,8.0016,8.153,8.2638,8.3049,8.3288,8.3677,0.0,8.4993,8.5192,0.0,8.5132,8.5192,8.4724,8.4325,8.3876,8.3408,8.2608,8.171,8.0842,0.0,0.0,0.0,7.84,7.843,7.886,7.886,7.9219,7.9866,8.0075,8.0554,8.1183,8.1411,8.189,8.2458,8.2326,8.2668,8.3138,8.2576,8.2657,8.2878,8.2144,8.19,8.1774,8.1047,8.0298,7.9589,7.8891,7.8088,7.7362,7.7159,7.6655,7.6075,7.5621,7.5341,7.4993,7.4354,7.3367,7.2294,7.1284,7.0238,6.9263,6.8637,6.7367,6.5964,6.4587,6.3354,0.0,0.0,0.0,0.0,0.0,5.7547,5.6803,0.0,5.6635,0.0,0.0,0.0,0.0,0.0,0.0,0.0,0.0,6.1802,0.0,6.4587,6.515,6.6183,6.7716,6.7727,6.8562,7.0159,7.0822,7.141,7.1916,7.1916,7.1756,7.1494,7.1494,7.1494,7.1494,7.1494,7.1494,7.1494,7.1494,7.1494,7.1494,7.2629,7.3323,7.4224,7.5467,7.6306,7.7209,7.8425,7.9629,8.0718,8.1652,8.2714,8.3647,8.4354,8.4455,0.0,8.5043,8.5671,8.5881,8.5492,8.5821,8.59,8.5462,8.5222,8.4893,8.4455,0.0,0.0,8.2159,8.1242,8.0584,8.0147,7.9746,7.9776,8.0177,8.0177,8.0405,8.0823,8.1063,8.156,8.2189,8.2409,8.2918,8.3506,8.3506,8.3756,8.4036,8.3655,8.3756,8.3938,8.3012,8.2708,8.2591,8.1931,8.1288,8.0587,7.9967,7.9122,7.823,7.7765,7.7233,7.6684,7.6046,7.5901,7.5621,7.4721,7.3716,7.2747,7.1864,7.1069,7.0238,6.935,6.8468,6.737,6.5799,6.4688,6.3622,6.247,0.0,0.0,0.0,0.0,0.0,0.0,5.8221,5.8165,0.0,0.0,0.0,0.0,0.0,0.0,6.1718,6.2504,0.0,6.5112,6.5863,6.6858,6.8134,6.879,6.973,7.0931,7.1512,7.1989,7.2329,7.2329,7.2169,7.1949,7.1949,7.1949,7.1929,7.1776,7.1736,7.1715,7.1554,7.1494,7.1494,7.4869,7.5673,7.6399,0.0,7.8751,0.0,8.0118,8.177,8.3111,8.3393,8.4031,8.4764,8.5688,8.5829,8.5859,8.5859,0.0,0.0,0.0,8.6708,8.6708,8.6708,8.611,8.5731,8.5701,8.5103,8.4175,8.2926,8.1661,8.1063,8.1063,8.1063,8.1063,8.1063,8.1063,8.1063,8.1123,8.174,8.2368,8.2986,8.3527,8.4156,8.4694,8.4694,8.4724,8.4754,8.4724,8.4724,8.4664,8.4006,8.3748,8.3541,8.2531,8.2189,8.1934,8.0941,8.0322,7.9673,7.8465,7.7772,7.7284,7.6703,7.6529,7.6151,7.4866,7.4093,7.3309,7.2068,7.1748,7.1359,7.0169,6.935,6.8548,6.7545,6.6089,6.4756,6.3784,0.0,0.0,0.0,0.0,0.0,0.0,5.9667,5.9555,0.0,0.0,0.0,0.0,0.0,6.051,6.2825,6.3021,6.3937,6.5741,6.6416,6.7399,6.8692,7.0054,7.0819,7.1064,7.1692,7.2253,7.2739,7.2739,7.2739,7.2699,7.2699,7.2699,7.266,7.2289,7.2157,7.2097,7.1715,7.1575,7.1575,0.0,0.0,7.8196,7.9137,7.9692,8.033,8.1381,8.2377,8.3191,8.3772,8.4838,8.5812,8.6613,8.7108,8.738,8.738,8.6964,8.6708,8.6708,8.6708,8.6708,8.6708,8.6559,8.6229,8.5701,8.5551,8.5073,8.4265,8.3936,8.3767,8.3767,8.3767,8.3767,8.3767,8.3767,8.3767,8.3767,8.3965,8.4115,8.4265,8.4395,8.4545,8.4694,8.4694,8.5013,8.5402,8.4874,8.5043,8.5372,8.4694,8.4126,8.3639,8.3393,8.3005,8.2473,8.1549,8.0897,8.0291,7.9643,7.8652,7.776,7.7293,7.683,7.6297,7.5446,7.4779,7.4082,7.3327,7.2387,7.1621,7.133,7.0326,6.9333,6.8577,6.7493,6.6392,6.5396,6.4039,0.0,0.0,6.1521,6.0847,6.0847,6.075,6.0722,0.0,0.0,0.0,0.0,6.2195,6.2291,6.2881,6.4291,6.5488,6.6388,6.7484,6.8917,7.0566,7.1418,7.208,7.2601,7.3197,7.3404,7.3221,7.3221,7.3024,7.2699,7.2699,7.2699,7.2679,7.258,7.2568,7.2568,7.2441,7.2429,7.2429,7.8136,7.8992,7.9952,8.0816,8.1453,8.2125,8.2859,8.3788,8.4601,8.5075,8.6042,8.6861,8.7376,8.7702,8.8036,8.8389,8.8008,8.7752,8.7752,8.7825,8.7906,8.7906,8.7706,8.7307,8.6629,8.6599,8.615,8.5162,8.4844,8.4694,8.4694,8.4694,8.4694,8.4694,8.4694,8.4694,8.4694,8.4694,8.4893,8.5162,8.5162,8.5342,8.5611,8.5611,8.5821,8.611,8.5731,8.5851,8.605,8.5372,8.4923,8.4515,8.3886,8.3468,8.3051,8.2295,8.1701,8.1155,8.0649,7.9869,7.8918,7.7916,7.7078,7.6326,7.565,7.5225,7.4702,7.3774,7.3066,7.2387,7.1824,7.1127,7.0442,6.9769,6.8581,6.7571,6.7024,6.5438,0.0,6.4025,6.3283,6.279,6.279,6.279,6.279,6.279,6.279,0.0,6.3729,6.4038,6.4178,6.4178,6.5432,6.6416,6.7016,6.8253,6.9686,7.1213,7.1878,7.2524,7.3114,7.3713,7.3877,7.3661,7.3661,7.3544,7.33,7.33,7.33,7.328,7.3103,7.3024,7.3004,7.2779,7.2699,7.2699,8.0124,8.0788,8.1496,8.2266,8.3344,8.4157,8.4372,8.5388,8.6256,8.67,8.7293,8.7772,8.8067,8.818,8.8504,8.9132,8.9375,8.9377,8.9168,8.9297,8.941,8.941,8.9068,8.8626,8.8056,8.7976,8.7327,8.6099,8.5451,8.5083,8.5013,8.5013,8.5013,8.5013,8.5013,8.5013,8.5013,8.5013,8.5342,8.5851,8.5851,8.62,8.6708,8.6708,8.6708,8.6708,8.6708,8.6708,8.6619,8.605,8.5791,8.5492,8.4365,8.3867,8.3617,8.3087,8.2581,8.2068,8.1495,8.0914,8.0053,7.8402,7.7304,7.643,7.5784,7.5592,7.5196,7.4093,7.3716,7.3269,7.2184,7.1824,7.1516,7.0947,6.9632,6.8617,6.848,0.0,6.5663,6.5476,6.5103,6.4871,6.482,6.4803,6.4803,6.4803,6.4803,6.4887,6.5056,6.5544,6.591,6.6107,6.6528,6.7073,6.7775,6.904,7.0248,7.1353,7.2018,7.2636,7.3254,7.3769,7.3994,7.3994,7.3994,7.3994,7.3994,7.3994,7.3994,7.3955,7.3622,7.3485,7.3446,7.3044,7.2897,7.2897,8.0819,8.1465,8.2328,8.3572,8.3941,8.4495,8.5634,8.5955,8.6552,8.7757,8.8034,8.8322,8.8923,8.9487,8.9905,8.9998,9.1053,9.1177,8.9937,8.9868,8.9889,8.9889,8.9829,8.9759,8.9668,8.9259,8.8667,8.7914,8.7466,8.6928,8.6379,8.6379,8.6379,8.6379,8.6379,8.6379,8.6379,8.6379,8.6439,8.6529,8.6529,8.6619,8.6708,8.6708,8.6708,8.6708,8.6708,8.6708,8.6678,8.6589,8.617,8.5671,8.5462,8.4604,8.3688,8.3587,8.3149,8.2587,8.2087,8.0876,7.9474,7.8285,7.7491,7.6893,7.6459,7.593,7.5428,7.5243,7.4354,7.3541,7.3338,7.2445,7.1679,7.1545,7.0854,7.0031,6.9171,0.0,6.7381,6.6191,6.5561,6.5114,6.4837,6.4803,6.4803,6.4803,6.4803,6.5252,6.6275,6.6416,6.695,6.8018,6.7607,6.7916,6.9096,7.0314,7.1316,7.2046,7.2664,7.3283,7.3853,7.3966,7.3994,7.3994,7.3994,7.3994,7.3994,7.3994,7.3994,7.3974,7.3916,7.3896,7.3896,7.3838,7.3798,7.3798,8.1589,8.2481,8.3357,8.3972,8.4711,8.5388,8.6016,8.6724,8.7451,8.8097,8.8497,8.899,8.9667,9.0017,9.0479,9.1217,9.1833,9.2075,9.175,9.1511,9.1392,9.1392,9.1151,9.0879,9.0535,8.9971,8.9518,8.9216,8.9017,8.8786,8.8474,8.8474,8.8474,8.8474,8.8474,8.8335,8.8096,8.8096,8.7976,8.7756,8.7397,8.7247,8.7197,8.6828,8.6708,8.6708,8.6708,8.6708,8.6708,8.6708,8.6499,8.617,8.5791,8.5043,8.4186,8.3827,8.3277,8.2769,8.256,8.1484,8.0254,7.9397,7.8393,7.7462,7.6943,7.6417,7.5959,7.5592,7.5022,7.4499,7.4151,7.3356,7.2718,7.2718,7.1876,0.0,0.0,6.9852,6.9004,6.8133,6.7587,6.7156,6.6834,6.6799,6.6799,6.6799,6.6799,6.7052,6.7596,6.7624,6.8046,6.8973,6.8674,6.9124,7.036,7.0932,7.169,7.2692,7.2973,7.3423,7.3994,7.3994,7.3994,7.3994,7.3994,7.3994,7.3994,7.3994,7.3994,7.3994,7.3994,7.3994,7.3994,7.3994,7.3994,7.405,8.2512,8.3405,8.4157,8.4311,8.5327,8.6139,8.6324,8.742,8.8251,8.8405,8.8866,8.9451,9.0109,9.0325,9.0909,9.209,9.2356,9.2633,9.3176,9.2908,9.2748,9.2748,9.2387,9.2012,9.1534,9.0917,9.0542,9.037,9.0291,9.014,8.9988,8.9988,8.9988,8.9988,8.9988,8.9789,8.947,8.947,8.9289,8.8937,8.8326,8.8056,8.7996,8.7207,8.6948,8.6918,8.6768,8.6708,8.6708,8.6708,8.6708,8.6619,8.609,8.5462,8.4784,8.4126,8.3397,8.2806,8.2806,8.2101,8.1192,8.0593,7.9365,7.8123,7.7467,7.6954,7.6467,7.5842,7.5621,7.5341,7.4837,7.4209,7.3803,7.3803,0.0,0.0,0.0,7.1125,7.0329,6.9798,6.938,6.9006,6.863,6.855,6.8496,6.8496,6.8496,6.8552,6.8692,6.8721,6.9058,6.9798,6.9826,7.0276,7.1184,7.1493,7.2112,7.3114,7.3254,7.3544,7.3994,7.3994,7.3994,7.3994,7.3994,7.3994,7.3994,7.3994,7.3994,7.3994,7.3994,7.4078,7.4218,7.4218,7.4303,7.4499,8.3695,8.4034,8.4311,8.4926,8.5616,8.6324,8.702,8.7728,8.8405,8.9051,8.9174,8.9451,9.0109,9.0756,9.1433,9.2121,9.2776,9.3145,9.3207,9.3187,9.3167,9.3167,9.3096,9.3096,9.3035,9.2626,9.2089,9.1478,9.113,9.0595,8.9988,8.9988,8.9988,8.9988,8.9988,8.9968,8.9948,8.9948,8.9929,8.9849,8.9369,8.9179,8.9078,8.8016,8.7616,8.7556,8.6918,8.6708,8.6708,8.6708,8.6708,8.6678,8.6648,8.617,8.5492,8.4814,8.3775,8.2806,8.2806,8.2309,8.1669,8.1233,8.0121,7.8901,7.8107,7.748,7.693,7.6517,7.5911,7.5486,7.5446,7.4895,7.4412,7.4412,0.0,0.0,7.2613,7.1974,7.1224,7.026,6.9787,6.9398,6.9006,6.8665,6.8496,6.8496,6.8496,6.8749,6.9311,6.9339,6.9854,7.1016,7.1072,7.11,7.1213,7.2364,7.3002,7.3114,7.3657,7.3966,7.3994,7.3994,7.3994,7.3994,7.3994,7.3994,7.3994,7.3994,7.3994,7.3994,7.3994,7.4359,7.4817,7.4817,7.523,7.5783,8.4413,8.4823,8.5228,8.564,8.6312,8.702,8.7697,8.8374,8.8928,8.9174,8.9574,9.0079,9.0756,9.1433,9.211,9.2776,9.3053,9.3207,9.3207,9.3207,9.3207,9.3207,9.3207,9.3207,9.3207,9.3068,9.2865,9.2589,9.243,9.2227,9.1982,9.1982,9.1982,9.1982,9.1982,9.1843,9.1614,9.1614,9.1454,9.1143,9.0577,9.0174,8.9822,8.9008,8.8276,8.7676,8.7407,8.7067,8.6708,8.6708,8.6708,8.6708,8.6708,8.6229,8.5492,8.4395,8.3737,8.3277,8.2896,8.2627,8.229,8.1702,8.1,8.0262,7.9528,7.8489,7.7608,7.7458,7.6737,7.6133,7.6133,7.5563,7.5109,7.5109,0.0,7.4064,7.3803,7.3589,7.323,7.2637,7.2064,7.1444,7.0797,7.0284,7.0045,7.0182,7.0164,7.0473,7.111,7.1138,7.1363,7.1793,7.2187,7.2364,7.2364,7.2861,7.3311,7.3657,7.3881,7.3994,7.3994,7.3994,7.3994,7.3994,7.3994,7.3994,7.4022,7.4415,7.4555,7.4592,7.5005,7.5314,7.5511,7.5511,7.5699,7.5952,8.5224,8.5743,8.622,8.6272,8.7081,8.7815,8.8146,8.8774,8.9205,8.9205,8.9771,9.0448,9.1125,9.1802,9.2479,9.3145,9.3207,9.3207,9.3207,9.3207,9.3207,9.3207,9.3207,9.3207,9.3207,9.3207,9.3207,9.3207,9.3207,9.3207,9.3207,9.3207,9.3207,9.3207,9.3207,9.3068,9.2788,9.2788,9.2608,9.2276,9.1718,9.1314,9.0921,8.9973,8.9158,8.8426,8.7896,8.7407,8.6978,8.6768,8.6708,8.6708,8.6708,8.6229,8.5521,8.4604,8.4036,8.3617,8.3187,8.2937,8.2687,8.2238,8.1743,8.123,8.0652,7.958,7.862,7.8375,7.7585,7.6922,7.6809,7.6249,7.5795,7.5795,7.5243,7.4789,7.4789,7.4615,7.4426,7.4169,7.3647,7.3094,7.2549,7.1882,7.1548,7.1691,7.1588,7.1709,7.2178,7.2383,7.2468,7.2468,7.3086,7.3395,7.3395,7.3395,7.3572,7.3994,7.3994,7.3994,7.3994,7.3994,7.3994,7.3994,7.3994,7.4106,7.4303,7.4732,7.5013,7.5258,7.5727,7.6036,7.6177,7.6177,7.6317,7.6514,8.6152,8.682,8.7194,8.6778,8.7857,8.8676,8.8264,8.8774,8.9205,8.9205,8.979,9.0448,9.1125,9.1802,9.2479,9.3145,9.3207,9.3207,9.3207,9.3207,9.3207,9.3207,9.3207,9.3207,9.3207,9.3207,9.3207,9.3207,9.3207,9.3207,9.3207,9.3207,9.3207,9.3207,9.3207,9.3207,9.3207,9.3207,9.3207,9.3187,9.2768,9.2588,9.2446,9.091,9.0294,9.0083,8.8346,8.7706,8.7616,8.6918,8.6708,8.6708,8.6708,8.6229,8.5701,8.5701,8.4754,8.3718,8.3688,8.3247,8.2806,8.2806,8.2297,8.1687,8.1292,8.0693,7.9974,7.9192,7.8465,7.7865,7.7496,7.6917,7.65,7.65,7.594,7.5515,7.5515,7.4953,7.4518,7.4518,7.4235,7.4013,7.4013,7.3289,7.282,7.2802,7.2433,7.2206,7.2206,7.2777,7.3114,7.3114,7.3685,7.3994,7.3994,7.3994,7.3994,7.3994,7.3994,7.3994,7.3994,7.3994,7.3994,7.4022,7.4022,7.4359,7.4901,7.4901,7.5314,7.5924,7.5924,7.6289,7.6803,7.6803,7.7188,7.7715,8.6668,8.7211,8.7731,8.7817,8.8621,8.935,8.9668,8.9655,8.9776,9.0271,9.0671,9.1156,9.1833,9.251,9.2991,9.3176,9.3207,9.3207,9.3207,9.3207,9.3207,9.3207,9.3207,9.3207,9.3207,9.3207,9.3207,9.3207,9.3207,9.3207,9.3207,9.3207,9.3207,9.3207,9.3207,9.3207,9.3207,9.3207,9.3207,9.3176,9.3087,9.2848,9.2537,9.2093,9.1264,9.0183,8.9169,8.8356,8.7616,8.6918,8.6708,8.6708,8.6708,8.6559,8.6319,8.5821,8.5432,8.4904,8.3976,8.3587,8.3337,8.2926,8.2657,8.2469,8.2356,8.1584,8.075,8.0219,7.9347,7.8585,7.8194,7.7566,7.713,7.713,7.6597,7.6191,7.6191,7.6017,7.5901,7.5901,7.5383,7.4937,7.4647,7.4021,7.3591,7.3435,7.3457,7.346,7.346,7.3628,7.3713,7.3713,7.3909,7.3994,7.3994,7.3994,7.3994,7.3994,7.3994,7.3994,7.3994,7.3994,7.4246,7.462,7.462,7.5005,7.5623,7.6072,7.6353,7.655,7.6992,7.7273,7.7413,7.7413,7.7546,7.7715,8.7445,8.8008,8.8625,8.8902,8.9554,9.0112,9.0351,9.0172,9.0271,9.0936,9.1287,9.1697,9.2364,9.2905,9.3207,9.3207,9.3207,9.3207,9.3207,9.3207,9.3207,9.3207,9.3207,9.3207,9.3207,9.3207,9.3207,9.3207,9.3207,9.3207,9.3207,9.3207,9.3207,9.3207,9.3207,9.3207,9.3207,9.3207,9.3207,9.3207,9.3207,9.3068,9.2828,9.2648,9.2022,9.1062,9.0053,8.9118,8.8216,8.7377,8.6918,8.6708,8.6708,8.6708,8.6619,8.6229,8.591,8.5521,8.4694,8.4096,8.3617,8.3247,8.2967,8.2806,8.2806,8.2288,8.1717,8.128,8.0347,7.9505,7.9084,7.8348,7.7798,7.7798,7.7497,7.7236,7.7236,7.7236,7.7149,7.6888,7.6491,7.605,7.5564,7.5021,7.4532,7.4087,7.4176,7.4169,7.4013,7.3994,7.3994,7.3994,7.3994,7.3994,7.3994,7.3994,7.3994,7.3994,7.3994,7.4134,7.4359,7.4359,7.4696,7.5314,7.5314,7.5651,7.6289,7.6634,7.6943,7.7188,7.7574,7.7715,7.7715,7.7715,7.7715,7.7715,8.8261,8.8974,8.9612,8.9896,9.0564,9.0912,9.0544,9.0532,9.0776,9.1444,9.177,9.2204,9.2874,9.3122,9.3266,9.3266,9.3216,9.3207,9.3207,9.3207,9.3207,9.3207,9.3268,9.3319,9.3319,9.3207,9.3207,9.3207,9.3207,9.3207,9.3207,9.3207,9.3207,9.3207,9.3207,9.3207,9.3207,9.3207,9.3207,9.3207,9.3207,9.3207,9.3167,9.2788,9.2628,9.2396,9.0941,8.9963,8.9219,8.8086,8.7257,8.6708,8.6708,8.6708,8.6708,8.6708,8.6259,8.5761,8.5701,8.4814,8.3837,8.3718,8.3277,8.2866,8.2806,8.2806,8.2674,8.2187,8.136,8.0534,8.0063,7.9142,7.8494,7.8494,7.8436,7.8407,7.8407,7.8407,7.8175,7.7566,7.7507,7.7275,7.6732,7.6249,7.5679,7.495,7.4814,7.4601,7.424,7.4182,7.4162,7.4162,7.4162,7.4162,7.4162,7.4162,7.4134,7.4078,7.4078,7.4415,7.4985,7.4985,7.5342,7.598,7.598,7.6317,7.6887,7.6887,7.7216,7.7715,7.7715,7.7715,7.7715,7.7715,7.7715,7.7715,8.8261,8.8974,8.9701,9.0288,9.0982,9.1456,9.1365,9.1512,9.1886,9.2576,9.2924,9.3381,9.4066,9.3914,9.3752,9.3752,9.3405,9.3207,9.3207,9.3207,9.3207,9.3207,9.375,9.4058,9.4058,9.3504,9.3207,9.3207,9.3207,9.3207,9.3207,9.3207,9.3207,9.3207,9.3207,9.3207,9.3207,9.3207,9.3207,9.3207,9.3207,9.3207,9.3176,9.3107,9.2888,9.2476,9.1624,9.0789,8.9842,8.8236,8.7257,8.6708,8.6708,8.6708,8.6708,8.6708,8.6589,8.6379,8.5821,8.5492,8.5013,8.3957,8.3617,8.3397,8.2926,8.2806,8.2674,8.2187,8.1696,8.1173,8.0746,7.9812,7.9104,7.9104,7.8698,7.8407,7.8407,7.8407,7.8349,7.8204,7.8175,7.8117,7.8001,7.7626,7.7289,7.7115,7.6472,7.604,7.5969,7.5653,7.5502,7.5502,7.5502,7.5502,7.5502,7.5502,7.5202,7.4704,7.4704,7.5061,7.5699,7.5699,7.6036,7.6606,7.6606,7.6964,7.7497,7.7497,7.7582,7.7715,7.7715,7.7715,7.7715,7.7715,7.7715,7.7715,8.8784,8.948,9.0193,9.0888,9.1348,9.1601,9.1601,9.1987,9.2533,9.3208,9.358,9.4053,9.4722,9.4417,9.4105,9.3909,9.3693,9.3444,9.3196,9.3207,9.335,9.3719,9.4089,9.4447,9.4786,9.4396,9.4212,9.4212,9.3873,9.3719,9.3719,9.338,9.3207,9.3207,9.3207,9.3207,9.3207,9.3207,9.3207,9.3207,9.3207,9.3207,9.3207,9.3207,9.3087,9.2837,9.227,9.1314,9.0032,8.8296,8.7467,8.7127,8.6798,8.6708,8.6708,8.6708,8.6708,8.6619,8.6289,8.596,8.5521,8.4833,8.4425,8.3946,8.2997,8.2806,8.2731,8.2473,8.2072,8.1649,8.1243,8.0571,8.0006,7.9811,7.9511,7.9307,7.9307,7.9307,7.9191,7.8872,7.8843,7.8727,7.8436,7.8215,7.8012,7.7818,7.7389,7.6938,7.6524,7.6286,7.6095,7.5896,7.5896,7.5896,7.5896,7.5896,7.5848,7.58,7.5511,7.5707,7.6345,7.6345,7.6654,7.7216,7.7216,7.7413,7.7715,7.7715,7.7715,7.7715,7.7715,7.7715,7.7715,7.7715,7.7715,7.7715,8.9497,9.0129,9.0712,9.1475,9.1601,9.1601,9.1601,9.2247,9.2974,9.3542,9.4051,9.4599,9.5145,9.4843,9.4436,9.4027,9.4007,9.385,9.3444,9.3458,9.3757,9.4363,9.458,9.4909,9.5443,9.5566,9.5536,9.5289,9.4755,9.4478,9.4478,9.3719,9.3411,9.338,9.3257,9.3207,9.3207,9.3207,9.3207,9.3207,9.3207,9.3207,9.3207,9.3207,9.3207,9.3167,9.2828,9.1718,9.0184,8.8657,8.7946,8.7616,8.7067,8.6798,8.6708,8.6708,8.6708,8.6708,8.6708,8.6289,8.5821,8.5731,8.5282,8.4564,8.3386,8.3046,8.2926,8.2806,8.2446,8.1976,8.1572,8.1166,8.0785,8.0373,8.0294,8.0294,8.0294,8.0294,8.0091,7.954,7.9481,7.9278,7.8785,7.8727,7.8591,7.8252,7.8154,7.7783,7.7074,7.6895,7.6685,7.6353,7.6245,7.6205,7.6205,7.6205,7.6458,7.6964,7.6458,7.6458,7.6943,7.6943,7.7216,7.7715,7.7715,7.7715,7.7715,7.7715,7.7715,7.7715,7.7715,7.7715,7.7715,7.7715,7.7715,7.7715,9.0111,9.0427,9.0712,9.1475,9.1601,9.1601,9.1601,9.2676,9.3511,9.3574,9.4706,9.5521,9.5615,9.5266,9.4862,9.4456,9.4417,9.4397,9.4339,9.4546,9.472,9.4813,9.5615,9.6059,9.6151,9.6736,9.6459,9.5289,9.5197,9.5166,9.5135,9.4478,9.417,9.4139,9.3473,9.3207,9.3207,9.3207,9.3207,9.3207,9.3207,9.3207,9.3207,9.3207,9.3207,9.3176,9.3147,9.218,9.0799,9.0174,8.8957,8.7676,8.7586,8.7187,8.6708,8.6708,8.6708,8.6708,8.6708,8.6619,8.6439,8.5851,8.5641,8.5372,8.4624,8.3976,8.3408,8.2926,8.2446,8.1976,8.1572,8.1166,8.0785,8.0373,8.0294,8.0294,8.0294,8.0294,8.0265,8.0178,8.0149,8.012,8.0062,8.0033,8.0013,7.9954,7.9599,7.9313,7.9194,7.8522,7.8127,7.8067,7.7673,7.7462,7.7462,7.7462,7.7518,7.7574,7.7518,7.7518,7.7574,7.7574,7.763,7.7715,7.7715,7.7715,7.7715,7.7715,7.7715,7.7715,7.7715,7.7715,7.7715,7.7715,7.7715,7.7715,9.0301,9.0825,9.1204,9.1538,9.1601,9.1728,9.2089,9.2974,9.3764,9.4174,9.5059,9.571,9.571,9.5539,9.5253,9.4882,9.4843,9.4746,9.4514,9.4973,9.5285,9.547,9.6229,9.6685,9.686,9.7167,9.7013,9.6429,9.6028,9.5844,9.5844,9.5166,9.4663,9.4293,9.3965,9.3596,9.3207,9.3207,9.3207,9.3207,9.3207,9.3207,9.3207,9.3207,9.3207,9.3187,9.2948,9.2444,9.1738,9.0638,8.9811,8.8987,8.8026,8.7496,8.7187,8.6798,8.6708,8.6708,8.6708,8.6708,8.6619,8.6349,8.6259,8.606,8.5402,8.5043,8.4654,8.3995,8.3692,8.3245,8.225,8.1919,8.1469,8.0451,8.0294,8.0294,8.0294,8.0294,8.0294,8.0294,8.0294,8.0294,8.0294,8.0294,8.0294,8.0294,8.0117,7.987,7.9612,7.9252,7.898,7.8738,7.8313,7.809,7.809,7.7837,7.7715,7.7715,7.7715,7.7715,7.7715,7.7715,7.7715,7.7715,7.7715,7.7715,7.7715,7.7715,7.7715,7.7715,7.7715,7.7715,7.7715,7.7715,7.7715,7.7715]}]]